[[{"header":{"parameterUnit":"m.s-1","parameterCategory":1,"la1":30.6,"la2":28.766,"lo1":-90.7593,"lo2":-88.6598,"dy":0.0162,"dx":0.0183,"nx":116,"ny":114,"refTime":"2023-06-03T06:00:00:Z","depth":0,"parameterNumber":2,"parameterNumberName":"U-component_of_WINDS"},"data":[0.0,0.0,0.0,0.0,0.0,0.0,0.0,0.0,0.0,0.0,0.0,0.0,0.0,0.0,0.0,0.0,0.0,0.0,0.0,0.0,0.0,0.0,0.0,0.0,0.0,0.0,0.0,0.0,0.0,0.0,0.0,0.0,0.0,0.0,0.0,0.0,0.0,0.0,0.0,0.0,0.0,0.0,0.0,0.0,0.0,0.0,0.0,0.0,0.0,0.0,0.0,0.0,0.0,0.0,0.0,0.0,0.0,0.0,0.0,0.0,0.0,0.0,0.0,0.0,0.0,0.0,0.0,0.0,0.0,0.0,0.0,0.0,0.0,0.0,0.0,0.0,0.0,0.0,0.0,0.0,0.0,0.0,0.0,0.0,0.0,0.0,0.0,0.0,0.0,0.0,0.0,0.0,0.0,0.0,0.0,0.0,0.0,0.0,0.0,0.0,0.0,0.0,0.0,0.0,0.0,0.0,0.0,0.0,0.0,0.0,0.0,0.0,0.0,0.0,0.0,0.0,0.0,0.0,0.0,0.0,0.0,0.0,0.0,0.0,0.0,0.0,0.0,0.0,0.0,0.0,0.0,0.0,0.0,0.0,0.0,0.0,0.0,0.0,0.0,0.0,0.0,0.0,0.0,0.0,0.0,0.0,0.0,0.0,0.0,0.0,0.0,0.0,0.0,0.0,0.0,0.0,0.0,0.0,0.0,0.0,0.0,0.0,0.0,0.0,0.0,0.0,0.0,0.0,0.0,0.0,0.0,0.0,0.0,0.0,0.0,0.0,0.0,0.0,0.0,0.0,0.0,0.0,0.0,0.0,0.0,0.0,0.0,0.0,0.0,0.0,0.0,0.0,0.0,0.0,0.0,0.0,0.0,0.0,0.0,0.0,0.0,0.0,0.0,0.0,0.0,0.0,0.0,0.0,0.0,0.0,0.0,0.0,0.0,0.0,0.0,0.0,0.0,0.0,0.0,0.0,0.0,0.0,0.0,0.0,0.0,0.0,0.0,0.0,0.0,0.0,0.0,0.0,0.0,0.0,0.0,0.0,0.0,0.0,0.0,0.0,0.0,0.0,0.0,0.0,0.0,0.0,0.0,0.0,0.0,0.0,0.0,0.0,0.0,0.0,0.0,0.0,0.0,0.0,0.0,0.0,0.0,0.0,0.0,0.0,0.0,0.0,0.0,0.0,0.0,0.0,0.0,0.0,0.0,0.0,0.0,0.0,0.0,0.0,0.0,0.0,0.0,0.0,0.0,0.0,0.0,0.0,0.0,0.0,0.0,0.0,0.0,0.0,0.0,0.0,0.0,0.0,0.0,0.0,0.0,0.0,0.0,0.0,0.0,0.0,0.0,0.0,0.0,0.0,0.0,0.0,0.0,0.0,0.0,0.0,0.0,0.0,0.0,0.0,0.0,0.0,0.0,0.0,0.0,0.0,0.0,0.0,0.0,0.0,0.0,0.0,0.0,0.0,0.0,0.0,0.0,0.0,0.0,0.0,0.0,0.0,0.0,0.0,0.0,0.0,0.0,0.0,0.0,0.0,0.0,0.0,0.0,0.0,0.0,0.0,0.0,0.0,0.0,0.0,0.0,0.0,0.0,0.0,0.0,0.0,0.0,0.0,0.0,0.0,0.0,0.0,0.0,0.0,0.0,0.0,0.0,0.0,0.0,0.0,0.0,0.0,0.0,0.0,0.0,0.0,0.0,0.0,0.0,0.0,0.0,0.0,0.0,0.0,0.0,0.0,0.0,0.0,0.0,0.0,0.0,0.0,0.0,0.0,0.0,0.0,0.0,0.0,0.0,0.0,0.0,0.0,0.0,0.0,0.0,0.0,0.0,0.0,0.0,0.0,0.0,0.0,0.0,0.0,0.0,0.0,0.0,0.0,0.0,0.0,0.0,0.0,0.0,0.0,0.0,0.0,0.0,0.0,0.0,0.0,0.0,0.0,0.0,0.0,0.0,0.0,0.0,0.0,0.0,0.0,0.0,0.0,0.0,0.0,0.0,0.0,0.0,0.0,0.0,0.0,0.0,0.0,0.0,0.0,0.0,0.0,0.0,0.0,0.0,0.0,0.0,0.0,0.0,0.0,0.0,0.0,0.0,0.0,0.0,0.0,0.0,0.0,0.0,0.0,0.0,0.0,0.0,0.0,0.0,0.0,0.0,0.0,0.0,0.0,0.0,0.0,0.0,0.0,0.0,0.0,0.0,0.0,0.0,0.0,0.0,0.0,0.0,0.0,0.0,0.0,0.0,0.0,0.0,0.0,0.0,0.0,0.0,0.0,0.0,0.0,0.0,0.0,0.0,0.0,0.0,0.0,0.0,0.0,0.0,0.0,0.0,0.0,0.0,0.0,0.0,0.0,0.0,0.0,0.0,0.0,0.0,0.0,0.0,0.0,0.0,0.0,0.0,0.0,0.0,0.0,0.0,0.0,0.0,0.0,0.0,0.0,0.0,0.0,0.0,0.0,0.0,0.0,0.0,0.0,0.0,0.0,0.0,0.0,0.0,0.0,0.0,0.0,0.0,0.0,0.0,0.0,0.0,0.0,0.0,0.0,0.0,0.0,0.0,0.0,0.0,0.0,0.0,0.0,0.0,0.0,0.0,0.0,0.0,0.0,0.0,0.0,0.0,0.0,0.0,0.0,0.0,0.0,0.0,0.0,0.0,0.0,0.0,0.0,0.0,0.0,0.0,0.0,0.0,0.0,0.0,0.0,0.0,0.0,0.0,0.0,0.0,0.0,0.0,0.0,0.0,0.0,0.0,0.0,0.0,0.0,0.0,0.0,0.0,0.0,0.0,0.0,0.0,0.0,0.0,0.0,0.0,0.0,0.0,0.0,0.0,0.0,0.0,0.0,0.0,0.0,0.0,0.0,0.0,0.0,0.0,0.0,0.0,0.0,0.0,0.0,0.0,0.0,0.0,0.0,0.0,0.0,0.0,0.0,0.0,0.0,0.0,0.0,0.0,0.0,0.0,0.0,0.0,0.0,0.0,0.0,0.0,0.0,0.0,0.0,0.0,0.0,0.0,0.0,0.0,0.0,0.0,0.0,0.0,0.0,0.0,0.0,0.0,0.0,0.0,0.0,0.0,0.0,0.0,0.0,0.0,0.0,0.0,0.0,0.0,0.0,0.0,0.0,0.0,0.0,0.0,0.0,0.0,0.0,0.0,0.0,0.0,0.0,0.0,0.0,0.0,0.0,0.0,0.0,0.0,0.0,0.0,0.0,0.0,0.0,0.0,0.0,0.0,0.0,0.0,0.0,0.0,0.0,0.0,0.0,0.0,0.0,0.0,0.0,0.0,0.0,0.0,0.0,0.0,0.0,0.0,0.0,0.0,0.0,0.0,0.0,0.0,0.0,0.0,0.0,0.0,0.0,0.0,0.0,0.0,0.0,0.0,0.0,0.0,0.0,0.0,0.0,0.0,0.0,0.0,0.0,0.0,0.0,0.0,0.0,0.0,0.0,0.0,0.0,0.0,0.0,0.0,0.0,0.0,0.0,0.0,0.0,0.0,0.0,0.0,0.0,0.0,0.0,0.0,0.0,0.0,0.0,0.0,0.0,0.0,0.0,0.0,0.0,0.0,0.0,0.0,0.0,0.0,0.0,0.0,0.0,0.0,0.0,0.0,0.0,0.0,0.0,0.0,0.0,0.0,0.0,0.0,0.0,0.0,0.0,0.0,0.0,0.0,0.0,0.0,0.0,0.0,0.0,0.0,0.0,0.0,0.0,0.0,0.0,0.0,0.0,0.0,0.0,0.0,0.0,0.0,0.0,0.0,0.0,0.0,0.0,0.0,0.0,0.0,0.0,0.0,0.0,0.0,0.0,0.0,0.0,0.0,0.0,0.0,0.0,0.0,0.0,0.0,0.0,0.0,0.0,0.0,0.0,0.0,0.0,0.0,0.0,0.0,0.0,0.0,0.0,0.0,0.0,0.0,0.0,0.0,0.0,0.0,0.0,0.0,0.0,0.0,0.0,0.0,0.0,0.0,0.0,0.0,0.0,0.0,0.0,0.0,0.0,0.0,0.0,0.0,0.0,0.0,0.0,0.0,0.0,0.0,0.0,0.0,0.0,0.0,0.0,0.0,0.0,0.0,0.0,0.0,0.0,0.0,0.0,0.0,0.0,0.0,0.0,0.0,0.0,0.0,0.0,0.0,0.0,0.0,0.0,0.0,0.0,0.0,0.0,0.0,0.0,0.0,0.0,0.0,0.0,0.0,0.0,0.0,0.0,0.0,0.0,0.0,0.0,0.0,0.0,0.0,0.0,0.0,0.0,0.0,0.0,0.0,0.0,0.0,0.0,0.0,0.0,0.0,0.0,0.0,0.0,0.0,0.0,0.0,0.0,0.0,0.0,0.0,0.0,0.0,0.0,0.0,0.0,0.0,0.0,0.0,0.0,0.0,0.0,0.0,0.0,0.0,0.0,0.0,0.0,0.0,0.0,0.0,0.0,0.0,0.0,0.0,0.0,0.0,0.0,0.0,0.0,0.0,0.0,0.0,0.0,0.0,0.0,0.0,0.0,0.0,0.0,0.0,0.0,0.0,0.0,0.0,0.0,0.0,0.0,0.0,0.0,0.0,0.0,0.0,0.0,0.0,0.0,0.0,0.0,0.0,0.0,0.0,0.0,0.0,0.0,0.0,0.0,0.0,0.0,0.0,0.0,0.0,0.0,0.0,0.0,0.0,0.0,0.0,0.0,0.0,0.0,0.0,0.0,0.0,0.0,0.0,0.0,0.0,0.0,0.0,0.0,0.0,0.0,0.0,0.0,0.0,0.0,0.0,0.0,0.0,0.0,0.0,0.0,0.0,0.0,0.0,0.0,0.0,0.0,0.0,0.0,0.0,0.0,0.0,0.0,0.0,0.0,0.0,0.0,0.0,0.0,0.0,0.0,0.0,0.0,0.0,0.0,0.0,0.0,0.0,0.0,0.0,0.0,0.0,0.0,0.0,0.0,0.0,0.0,0.0,0.0,0.0,0.0,0.0,0.0,0.0,0.0,0.0,0.0,0.0,0.0,0.0,0.0,0.0,0.0,0.0,0.0,0.0,0.0,0.0,0.0,0.0,0.0,0.0,0.0,0.0,0.0,0.0,0.0,0.0,0.0,0.0,0.0,0.0,0.0,0.0,0.0,0.0,0.0,0.0,0.0,0.0,0.0,0.0,0.0,0.0,0.0,0.0,0.0,0.0,0.0,0.0,0.0,0.0,0.0,0.0,0.0,0.0,0.0,0.0,0.0,0.0,0.0,0.0,0.0,0.0,0.0,0.0,0.0,0.0,0.0,0.0,0.0,0.0,0.0,0.0,0.0,0.0,0.0,0.0,0.0,0.0,0.0,0.0,0.0,0.0,0.0,0.0,0.0,0.0,0.0,0.0,0.0,0.0,0.0,0.0,0.0,0.0,0.0,0.0,0.0,0.0,0.0,0.0,0.0,0.0,0.0,0.0,0.0,0.0,0.0,0.0,0.0,0.0,0.0,0.0,0.0,0.0,0.0,0.0,0.0,0.0,0.0,0.0,0.0,0.0,0.0,0.0,0.0,0.0,0.0,0.0,0.0,0.0,0.0,0.0,0.0,0.0,0.0,0.0,0.0,0.0,0.0,0.0,0.0,0.0,0.0,0.0,0.0,0.0,0.0,0.0,0.0,0.0,0.0,0.0,0.0,0.0,0.0,0.0,0.0,0.0,0.0,0.0,0.0,0.0,0.0,0.0,0.0,0.0,0.0,0.0,0.0,0.0,0.0,0.0,0.0,0.0,0.0,0.0,0.0,0.0,0.0,0.0,0.0,0.0,0.0,0.0,0.0,0.0,0.0,0.0,0.0,0.0,0.0,0.0,0.0,0.0,0.0,0.0,0.0,0.0,0.0,0.0,0.0,0.0,0.0,0.0,0.0,0.0,0.0,0.0,0.0,0.0,0.0,0.0,0.0,0.0,0.0,0.0,0.0,0.0,0.0,0.0,0.0,0.0,0.0,0.0,0.0,0.0,0.0,0.0,0.0,0.0,0.0,0.0,0.0,0.0,0.0,0.0,0.0,0.0,0.0,0.0,0.0,0.0,0.0,0.0,0.0,0.0,0.0,0.0,0.0,0.0,0.0,-2.2772,0.0,0.0,0.0,0.0,0.0,0.0,0.0,0.0,0.0,0.0,0.0,0.0,0.0,0.0,0.0,0.0,0.0,0.0,0.0,0.0,0.0,0.0,0.0,0.0,0.0,0.0,0.0,0.0,0.0,0.0,0.0,0.0,0.0,0.0,0.0,0.0,0.0,0.0,-2.3966,-2.3785,-2.3628,-2.3459,-2.3649,-2.3714,-2.3714,0.0,0.0,0.0,0.0,0.0,0.0,0.0,0.0,0.0,0.0,0.0,0.0,0.0,0.0,0.0,0.0,0.0,0.0,0.0,0.0,0.0,0.0,0.0,0.0,0.0,0.0,0.0,0.0,0.0,0.0,0.0,0.0,0.0,0.0,0.0,0.0,0.0,0.0,0.0,0.0,0.0,0.0,0.0,0.0,0.0,0.0,0.0,0.0,0.0,0.0,0.0,0.0,0.0,0.0,0.0,0.0,0.0,0.0,0.0,0.0,0.0,0.0,0.0,0.0,0.0,0.0,0.0,0.0,0.0,0.0,0.0,-2.402,0.0,0.0,0.0,0.0,0.0,0.0,0.0,0.0,0.0,0.0,0.0,0.0,0.0,0.0,0.0,0.0,0.0,0.0,0.0,0.0,0.0,0.0,0.0,-2.419,-2.419,-2.419,-2.419,-2.419,0.0,0.0,0.0,0.0,0.0,0.0,-2.419,-2.419,-2.4064,-2.3795,-2.3804,-2.3606,-2.3232,-2.3434,-2.3661,-2.3934,-2.4003,0.0,0.0,0.0,0.0,0.0,0.0,0.0,0.0,0.0,0.0,0.0,0.0,0.0,0.0,0.0,0.0,0.0,0.0,0.0,0.0,0.0,0.0,0.0,0.0,0.0,0.0,0.0,0.0,0.0,0.0,0.0,0.0,0.0,0.0,0.0,0.0,0.0,0.0,0.0,0.0,0.0,0.0,0.0,0.0,0.0,0.0,0.0,0.0,0.0,0.0,0.0,0.0,0.0,0.0,0.0,0.0,0.0,0.0,0.0,0.0,0.0,0.0,0.0,0.0,0.0,-2.4316,-2.4375,-2.4215,-2.3844,-2.3381,-2.3538,-2.4178,0.0,0.0,0.0,0.0,0.0,0.0,0.0,0.0,0.0,0.0,0.0,0.0,0.0,0.0,0.0,0.0,0.0,0.0,0.0,0.0,0.0,0.0,-2.419,-2.419,-2.419,-2.419,-2.419,-2.419,0.0,0.0,0.0,0.0,0.0,-2.419,-2.419,-2.418,-2.4123,-2.418,-2.3929,-2.34,-2.433,-2.4792,-2.4777,-2.3772,-2.3335,-2.3357,0.0,0.0,0.0,0.0,0.0,0.0,0.0,0.0,0.0,0.0,0.0,0.0,0.0,0.0,0.0,0.0,0.0,0.0,0.0,0.0,0.0,0.0,0.0,0.0,0.0,0.0,0.0,0.0,0.0,0.0,0.0,0.0,0.0,0.0,0.0,0.0,0.0,0.0,0.0,0.0,0.0,-2.3992,-2.4518,0.0,0.0,0.0,0.0,0.0,0.0,0.0,0.0,0.0,0.0,0.0,0.0,0.0,0.0,-2.5477,-2.6225,-2.6562,-2.6537,-2.7348,-2.6822,-2.5146,-2.5209,-2.4401,-2.3011,-2.3664,0.0,-2.4196,-2.431,0.0,0.0,0.0,0.0,0.0,0.0,0.0,0.0,0.0,0.0,0.0,0.0,0.0,0.0,0.0,0.0,0.0,0.0,0.0,0.0,0.0,-2.4026,-2.3917,-2.3917,-2.3753,-2.3714,-2.3907,-2.3917,0.0,0.0,0.0,-2.419,-2.419,-2.419,-2.4341,-2.4579,-2.4891,-2.5138,-2.5321,-2.6022,-2.6343,-2.6308,-2.5098,-2.4276,-2.3802,-2.3524,0.0,0.0,0.0,0.0,0.0,0.0,0.0,0.0,0.0,0.0,0.0,0.0,0.0,0.0,0.0,0.0,0.0,0.0,0.0,0.0,0.0,0.0,0.0,0.0,0.0,0.0,0.0,0.0,0.0,0.0,0.0,0.0,0.0,0.0,0.0,0.0,0.0,0.0,0.0,-2.3873,-2.4229,-2.4478,-2.4678,-2.4855,0.0,0.0,0.0,0.0,0.0,0.0,0.0,0.0,0.0,-2.6162,-2.6107,-2.6315,-2.6834,-2.7236,-2.7404,-2.7374,-2.7791,-2.73,-2.6024,-2.6058,-2.5398,-2.4235,-2.462,-2.4537,-2.4188,-2.4623,-2.4861,-2.4923,0.0,0.0,0.0,0.0,0.0,0.0,0.0,0.0,0.0,0.0,0.0,0.0,0.0,0.0,0.0,0.0,0.0,0.0,-2.4074,-2.3945,-2.3788,-2.3584,-2.3513,-2.3548,-2.37,-2.3703,-2.3837,-2.418,-2.419,-2.419,-2.419,-2.4593,-2.4939,-2.5201,-2.6378,-2.7108,-2.7428,-2.8126,-2.8329,-2.8089,-2.7002,-2.5705,-2.4313,-2.3659,-2.3395,-2.3444,0.0,0.0,0.0,0.0,0.0,0.0,0.0,0.0,0.0,0.0,0.0,0.0,0.0,0.0,0.0,0.0,0.0,0.0,0.0,0.0,0.0,0.0,0.0,0.0,0.0,0.0,0.0,0.0,0.0,0.0,0.0,0.0,0.0,0.0,0.0,0.0,0.0,-2.4272,-2.4561,-2.4446,-2.4778,-2.4982,0.0,0.0,0.0,0.0,0.0,0.0,-2.5862,-2.5991,-2.6359,-2.6983,-2.6959,-2.7236,-2.7895,-2.8107,-2.8203,-2.8203,-2.8429,-2.7986,-2.6928,-2.6928,-2.6351,-2.5308,-2.5308,-2.4966,-2.4432,-2.4832,-2.5017,-2.5074,-2.5074,-2.5219,0.0,-2.5477,-2.5515,-2.5549,0.0,0.0,0.0,0.0,0.0,0.0,0.0,0.0,0.0,0.0,0.0,-2.3742,-2.3742,-2.4058,-2.3978,-2.3283,-2.3855,-2.41,-2.3707,-2.3703,-2.3837,-2.418,-2.419,-2.419,-2.419,-2.5695,-2.6337,-2.6037,-2.9132,-3.01,-2.9119,-3.0587,-3.0894,-3.0118,-2.9367,-2.7332,-2.4448,-2.4046,-2.3432,-2.281,-2.3426,0.0,0.0,0.0,0.0,0.0,0.0,0.0,0.0,0.0,0.0,0.0,0.0,0.0,0.0,0.0,0.0,0.0,0.0,0.0,0.0,0.0,0.0,0.0,0.0,0.0,0.0,0.0,0.0,0.0,0.0,0.0,0.0,0.0,0.0,0.0,0.0,0.0,0.0,-2.4272,-2.506,0.0,0.0,0.0,0.0,-2.6168,-2.6291,-2.6755,-2.7708,-2.7835,-2.7864,-2.7848,-2.7838,-2.7857,-2.7895,-2.8665,-2.905,-2.905,-2.989,-2.9423,-2.7838,-2.7838,-2.6909,-2.5308,-2.5308,-2.5288,-2.5173,-2.4452,-2.4149,-2.4177,-2.4177,-2.4634,-2.5322,-2.5372,-2.5413,-2.5418,0.0,0.0,0.0,0.0,0.0,0.0,0.0,0.0,-2.419,-2.419,-2.3907,-2.388,-2.437,-2.4607,-2.4648,-2.4382,-2.4389,-2.4326,-2.41,-2.3643,-2.3678,-2.4356,-2.4266,-2.4428,-2.4952,-2.6043,-2.7292,-2.8748,-3.0927,-3.2315,-3.2946,-3.3746,-3.3997,-3.3661,-3.2634,-3.0995,-2.8813,-2.5952,-2.437,-2.3749,-2.3268,-2.3117,0.0,0.0,0.0,0.0,0.0,0.0,0.0,0.0,0.0,0.0,0.0,0.0,0.0,0.0,0.0,0.0,0.0,0.0,0.0,0.0,0.0,0.0,0.0,0.0,0.0,0.0,0.0,0.0,0.0,0.0,0.0,0.0,0.0,0.0,0.0,0.0,0.0,-2.5737,-2.653,0.0,0.0,-2.6757,-2.699,-2.7665,-2.7694,-2.7913,-2.8447,-2.8621,-2.8688,-2.8665,-2.9217,-2.95,-2.95,-2.9236,-2.9107,-2.9107,-2.889,-2.8179,-2.7063,-2.7063,-2.6428,-2.5308,-2.5308,-2.5308,-2.5288,-2.4981,-2.487,-2.487,-2.487,-2.5058,-2.5293,-2.5336,-2.5363,-2.5409,0.0,0.0,0.0,0.0,0.0,0.0,0.0,0.0,-2.4161,-2.4054,-2.3735,-2.3781,-2.4432,-2.4704,-2.4834,-2.4834,-2.4643,-2.4433,-2.431,-2.3679,-2.3666,-2.4459,-2.4625,-2.5049,-2.5797,-2.7383,-2.9145,-3.1017,-3.3201,-3.4669,-3.5445,-3.5979,-3.609,-3.5802,-3.5006,-3.3905,-3.2466,-2.9308,-2.6839,-2.4958,-2.4046,-2.3591,-2.3407,0.0,0.0,0.0,0.0,0.0,0.0,0.0,0.0,0.0,0.0,0.0,0.0,0.0,0.0,0.0,0.0,0.0,0.0,0.0,0.0,0.0,0.0,0.0,0.0,0.0,0.0,0.0,0.0,0.0,0.0,0.0,0.0,0.0,0.0,0.0,-2.6854,-2.735,-2.8117,-2.8552,-2.8418,-2.8272,-2.849,-2.9166,-2.9166,-2.9358,-2.9889,-3.0129,-3.0126,-2.9858,-3.0489,-3.0692,-3.0404,-2.9833,-2.9544,-2.9525,-2.8703,-2.7852,-2.7024,-2.6736,-2.6115,-2.5308,-2.5308,-2.5308,-2.5308,-2.5308,-2.5308,-2.5308,-2.5308,-2.5308,-2.5308,-2.5308,-2.534,-2.5371,0.0,0.0,0.0,0.0,0.0,0.0,0.0,-2.419,-2.4084,-2.3735,-2.3421,-2.3409,-2.3869,-2.4308,-2.4558,-2.4541,-2.454,-2.4482,-2.431,-2.3793,-2.3805,-2.4488,-2.5297,-2.6051,-2.6704,-2.9824,-3.1861,-3.2711,-3.5932,-3.7107,-3.6376,-3.7199,-3.7162,-3.6376,-3.6395,-3.5917,-3.5009,-3.3963,-3.0822,-2.6472,-2.5897,-2.498,-2.3856,0.0,0.0,0.0,0.0,0.0,0.0,0.0,0.0,0.0,0.0,0.0,0.0,0.0,0.0,0.0,0.0,0.0,0.0,0.0,0.0,0.0,0.0,0.0,0.0,0.0,0.0,0.0,0.0,0.0,0.0,0.0,0.0,0.0,-2.6033,-2.715,-2.818,-2.8987,-2.9812,-2.9996,-2.9189,-2.9133,-2.9572,-3.061,-3.0658,-3.109,-3.209,-3.2393,-3.2156,-3.134,-3.1583,-3.1296,-3.043,-3.0379,-3.034,-3.0346,-2.9448,-2.8607,-2.7838,-2.6967,-2.6096,-2.5308,-2.5308,-2.5308,-2.5308,-2.5308,-2.5308,-2.5308,-2.5308,-2.5308,-2.5308,-2.5308,-2.5308,-2.5308,0.0,0.0,0.0,0.0,0.0,0.0,0.0,-2.419,-2.4084,-2.3735,-2.3868,-2.4181,-2.4653,-2.554,-2.5879,-2.5338,-2.5521,-2.5279,-2.4358,-2.3882,-2.4107,-2.5113,-2.6061,-2.7394,-2.9163,-3.1219,-3.3256,-3.5275,-3.6776,-3.7694,-3.8065,-3.8854,-3.8799,-3.8065,-3.8652,-3.812,-3.6798,-3.6501,-3.4448,-3.1123,-2.8158,-2.6251,-2.5033,0.0,0.0,0.0,0.0,0.0,0.0,0.0,0.0,0.0,0.0,0.0,0.0,0.0,0.0,0.0,0.0,0.0,0.0,0.0,0.0,0.0,0.0,0.0,0.0,0.0,0.0,0.0,0.0,0.0,0.0,0.0,0.0,-2.6039,-2.6535,-2.8588,-3.0225,-3.0681,-3.1971,-3.2504,-3.1684,-3.2142,-3.2441,-3.2352,-3.2341,-3.2555,-3.3013,-3.31,-3.276,-3.1919,-3.1989,-3.1746,-3.1057,-2.9848,-2.9315,-2.9429,-2.7986,-2.7178,-2.6928,-2.6058,-2.5538,-2.5308,-2.5308,-2.5308,-2.5308,-2.5308,-2.5308,-2.5308,-2.5308,-2.5308,-2.5308,-2.5308,-2.5308,-2.5226,0.0,0.0,0.0,0.0,0.0,0.0,0.0,-2.419,-2.4026,-2.3555,-2.3691,-2.3967,-2.4282,-2.4919,-2.527,-2.5152,-2.5167,-2.4927,-2.434,-2.4458,-2.4989,-2.5983,-2.769,-2.95,-3.1372,-3.3315,-3.5445,-3.7718,-3.8391,-3.9139,-3.9919,-4.0381,-4.029,-3.9701,-3.9845,-3.957,-3.8964,-3.8285,-3.7061,-3.5263,-3.1828,-2.8797,-2.6251,-2.5279,-2.403,-2.2759,-2.2759,-2.244,-2.1949,-2.155,0.0,0.0,0.0,0.0,0.0,0.0,0.0,0.0,0.0,0.0,0.0,0.0,0.0,0.0,0.0,0.0,0.0,0.0,0.0,0.0,0.0,0.0,0.0,0.0,-2.7087,-2.8355,-2.9271,-3.0325,-3.1549,-3.2938,-3.3654,-3.4053,-3.4128,-3.3935,-3.3813,-3.3839,-3.3525,-3.3394,-3.3563,-3.3668,-3.3392,-3.2665,-3.2788,-3.2423,-3.1489,-3.0508,-2.9704,-2.9088,-2.7775,-2.6948,-2.6563,-2.5692,-2.5308,0.0,-2.5308,-2.5308,-2.5308,-2.5308,-2.5308,0.0,0.0,0.0,0.0,0.0,-2.5096,-2.4783,0.0,0.0,0.0,0.0,0.0,0.0,0.0,-2.419,-2.3966,-2.33,-2.3277,-2.3338,-2.3396,-2.3505,-2.3805,-2.4382,-2.4167,-2.4117,-2.4412,-2.5293,-2.6247,-2.7231,-2.9786,-3.1944,-3.3563,-3.5826,-3.7947,-3.9901,-4.0325,-4.091,-4.1586,-4.1655,-4.1471,-4.1058,-4.0451,-4.0524,-4.1003,-3.9588,-3.8872,-3.8475,-3.5973,-3.2118,-2.7766,-2.6884,-2.5478,-2.395,-2.3885,-2.3173,-2.2262,-2.2103,0.0,0.0,0.0,0.0,0.0,0.0,0.0,0.0,0.0,0.0,0.0,0.0,0.0,0.0,0.0,0.0,0.0,0.0,0.0,0.0,0.0,0.0,0.0,0.0,-2.9641,-3.1407,-3.2943,-3.2248,-3.2538,-3.5199,-3.5006,-3.5102,-3.6201,-3.4945,-3.4339,-3.4949,-3.4252,-3.3807,-3.3807,0.0,0.0,0.0,0.0,-3.3029,-3.1718,-3.1648,-3.0803,-2.9194,-2.8404,-2.7621,-2.6851,-2.5885,-2.5442,-2.5442,-2.5346,-2.5308,-2.5308,-2.5308,-2.5308,-2.5308,-2.5308,-2.5308,-2.5308,-2.5308,-2.4851,0.0,0.0,0.0,0.0,0.0,0.0,0.0,0.0,-2.419,-2.3966,-2.33,-2.3731,-2.3911,-2.3447,-2.4181,-2.4508,-2.406,-2.438,-2.4792,-2.5171,-2.5949,-2.7356,-2.9471,-3.131,-3.3664,-3.6578,-3.8018,-3.9546,-4.1231,-4.1311,-4.1437,-4.1605,-4.2004,-4.1781,-4.1113,-4.1625,-4.157,-4.1077,-4.0765,-3.99,-3.8637,-3.8099,-3.5005,-3.0501,-2.8739,-2.7061,-2.5553,-2.4959,-2.4426,-2.3842,-2.2699,-2.2279,-2.2064,-2.096,-2.0569,0.0,0.0,0.0,0.0,0.0,0.0,0.0,0.0,0.0,0.0,0.0,0.0,0.0,0.0,0.0,0.0,0.0,0.0,0.0,-2.9379,-3.0983,-3.2502,-3.4015,-3.4006,-3.4283,-3.5368,-3.6318,-3.6743,-3.634,-3.6009,-3.5587,-3.5041,-3.4252,-3.3807,-3.3807,-3.3855,0.0,-3.3732,-3.313,-3.2493,-3.1793,-3.1298,-3.0633,-2.9815,0.0,0.0,-2.8569,-2.7044,-2.6351,-2.6308,-2.5615,-2.5308,-2.5308,-2.5308,-2.5308,-2.5308,-2.5308,-2.5308,-2.5308,-2.5308,-2.5192,-2.5096,0.0,0.0,0.0,0.0,0.0,0.0,0.0,-2.419,-2.4016,-2.3522,-2.3765,-2.3815,-2.3354,-2.3776,-2.3955,-2.3583,-2.3975,-2.4631,-2.5485,-2.6717,-2.8432,-3.0699,-3.3605,-3.6152,-3.8257,-4.0009,-4.1496,-4.2706,-4.2521,-4.2667,-4.3117,-4.3351,-4.3039,-4.2321,-4.2495,-4.2463,-4.2249,-4.1425,-4.0636,-3.9845,-3.9019,-3.6497,-3.3006,-3.1222,-2.8905,-2.6561,-2.6181,-2.5313,-2.42,-2.3238,-2.2752,-2.2402,-2.1493,-2.0957,-2.0708,0.0,0.0,0.0,0.0,0.0,0.0,0.0,0.0,0.0,0.0,0.0,0.0,0.0,0.0,-2.6268,0.0,0.0,-3.0006,-3.1512,-3.2679,-3.38,-3.4895,-3.4968,-3.5016,-3.5347,-3.5823,-3.6061,-3.5951,-3.5396,-3.522,-3.561,-3.4857,-3.4399,-3.4399,-3.4399,-3.4291,-3.3999,-3.3605,-3.2953,-3.2016,-3.1694,-3.0758,-2.9208,-2.8888,-2.8335,-2.7541,-2.7191,-2.6583,-2.5795,-2.5917,-2.5692,-2.5284,-2.5198,-2.5152,-2.5146,-2.5086,-2.5149,-2.5308,-2.5308,-2.5308,-2.5308,0.0,0.0,0.0,0.0,0.0,0.0,0.0,-2.419,-2.4084,-2.3735,-2.3703,-2.3566,-2.3242,-2.3247,-2.3317,-2.3392,-2.3649,-2.4381,-2.5773,-2.7428,-2.9416,-3.1758,-3.5437,-3.8071,-3.9468,-4.1468,-4.2941,-4.384,-4.3715,-4.3951,-4.4487,-4.4553,-4.4213,-4.3495,-4.3178,-4.3206,-4.3423,-4.2121,-4.148,-4.1205,-3.9753,-3.7535,-3.4959,-3.3433,-3.0699,-2.763,-2.7348,-2.6079,-2.445,-2.3702,-2.3133,-2.259,-2.1857,-2.1336,-2.1057,-2.1211,-2.0571,0.0,0.0,0.0,0.0,0.0,0.0,0.0,0.0,-2.3797,-2.5112,-2.5887,-2.7439,-2.8873,-2.9517,-3.0855,-3.2222,-3.3423,-3.4235,-3.4878,-3.5312,-3.5253,-3.4996,-3.4547,-3.4723,-3.5114,-3.5677,-3.4702,-3.4669,-3.6193,-3.5481,-3.5004,-3.5004,-3.5004,-3.4736,-3.4148,-3.4123,-3.3533,-3.2292,-3.2164,-3.1007,-2.8826,-2.8709,-2.7972,-2.6747,-2.7217,-2.6693,-2.5457,-2.601,-2.5896,-2.5279,-2.5088,-2.5004,-2.4992,-2.4877,-2.4987,-2.5212,-2.5224,-2.5229,-2.5253,0.0,0.0,0.0,0.0,0.0,0.0,0.0,0.0,-2.4084,-2.3735,-2.3703,-2.3566,-2.3242,-2.3477,-2.3756,-2.4064,-2.4113,-2.4812,-2.6405,-2.8015,-3.0301,-3.3403,-3.5413,-3.7841,-4.0809,-4.1726,-4.2762,-4.3986,-4.4605,-4.4606,-4.4073,-4.4433,-4.4213,-4.3513,-4.3757,-4.3728,-4.3496,-4.3296,-4.2818,-4.2084,-4.1187,-3.8876,-3.5794,-3.4266,-3.2039,-2.9574,-2.8208,-2.6898,-2.5594,-2.4143,-2.3764,-2.3605,-2.1887,-2.1744,-2.2055,-2.1255,-2.0646,-2.0433,-2.1306,-2.0927,-2.0314,-2.0365,-2.1682,-2.3199,0.0,-2.6501,-2.8691,-2.9606,-3.0858,-3.1819,-3.1904,-3.3139,-3.4167,-3.4336,-3.5013,-3.5284,-3.4692,-3.4605,-3.385,-3.1882,-3.3917,-3.5693,-3.6179,-3.5412,-3.5261,-3.6229,-3.5481,-3.5004,-3.5004,-3.5004,-3.4665,-3.386,-3.3842,-3.3445,-3.2569,-3.2087,-3.1345,-3.0356,-2.9804,-2.946,-2.9252,-2.7862,-2.7123,-2.6877,-2.5572,-2.5107,-2.5279,-2.5088,-2.5004,-2.5004,-2.4986,-2.493,-2.4862,-2.4999,-2.5034,-2.5052,0.0,0.0,0.0,0.0,0.0,0.0,0.0,0.0,0.0,-2.4006,-2.3996,-2.3927,-2.3795,-2.3907,-2.4086,-2.4348,-2.4275,-2.4937,-2.6651,-2.8312,-3.0604,-3.3673,-3.6185,-3.8655,-4.1056,-4.222,-4.3198,-4.4001,-4.4318,-4.4428,-4.4346,-4.4527,-4.4308,-4.3804,-4.4194,-4.4035,-4.3478,-4.3002,-4.2341,-4.148,-3.9913,-3.7732,-3.5155,-3.2913,-3.0681,-2.8618,-2.7554,-2.6286,0.0,-2.4017,-2.3766,-2.3637,-2.2295,-2.2009,-2.209,-2.1691,-2.1163,-2.0797,-2.115,-2.144,-2.1761,-2.2262,-2.3629,-2.5255,-2.6843,-2.9123,-3.1033,-3.1405,-3.2959,-3.3964,-3.3102,-3.415,-3.5013,0.0,-3.5131,-3.5329,-3.459,-3.3766,-3.2632,-3.1082,-3.1235,-3.1874,-3.2941,-3.2965,-3.343,-3.4691,-3.4712,-3.4651,-3.4651,-3.4873,-3.4637,-3.3825,-3.3807,-3.3183,-3.1916,-3.1685,-3.0932,-2.9658,-2.8936,-2.8347,-2.7874,-2.7297,-2.709,-2.711,-2.5495,-2.5139,-2.5665,-2.4988,-2.4715,-2.47,-2.4578,-2.451,-2.4486,-2.4785,-2.4877,-2.491,0.0,0.0,0.0,0.0,0.0,0.0,0.0,0.0,0.0,0.0,-2.419,-2.419,-2.419,-2.419,-2.4266,-2.441,-2.4284,-2.4855,-2.6394,-2.7826,-2.9883,-3.2682,-3.559,-3.8069,-4.0047,-4.1899,-4.3067,-4.3531,-4.3964,-4.4223,-4.4294,-4.4593,-4.4414,-4.3862,-4.4115,-4.3843,-4.3112,-4.2304,-4.1497,-4.0602,-3.866,-3.6436,-3.4001,-3.1367,-2.8918,-2.6826,-2.6268,-2.5286,-2.4107,-2.3514,-2.3437,-2.344,-2.2436,-2.215,-2.2149,-2.1956,-2.1649,-2.1451,-2.1857,-2.2605,-2.3506,-2.4562,-2.605,-2.7682,-2.9357,-3.1385,-3.297,-3.3173,-3.432,-3.4928,-3.3643,-3.4264,-3.4805,-3.4286,-3.4827,-3.5047,-3.4303,-3.2936,-3.1482,-3.0074,-2.8593,-2.8196,-2.9472,-3.0317,-3.1517,-3.3258,-3.3844,-3.4189,-3.439,-3.4787,-3.4637,-3.3825,-3.3807,-3.3128,-3.1733,-3.1513,-3.0705,-2.9317,-2.8521,-2.7714,-2.6924,-2.6846,-2.6804,-2.6712,-2.5499,-2.523,-2.5601,-2.481,-2.4503,-2.4486,-2.433,-2.4256,-2.4237,-2.4537,-2.467,-2.4723,0.0,0.0,0.0,0.0,0.0,0.0,0.0,0.0,0.0,0.0,0.0,0.0,0.0,-2.419,-2.4199,-2.4199,-2.4199,-2.4548,-2.5384,-2.6229,-2.778,-3.021,-3.264,-3.5083,-3.7566,-4.0261,-4.188,-4.234,-4.3849,-4.4209,-4.3565,-4.46,-4.4521,-4.3511,-4.3386,-4.2964,-4.2286,-4.148,-4.0671,-3.979,-3.8175,-3.5623,-3.2503,-3.0155,-2.7305,-2.4592,-2.4558,-2.4085,-2.3325,-2.26,-2.2823,-2.3203,-2.1999,-2.2108,-2.2534,-2.1829,-2.1915,-2.2572,-2.402,-2.4645,-2.5274,-2.6732,-2.8743,-3.0572,-3.1428,-3.3084,-3.4641,-3.5346,-3.4979,-3.4303,-3.3541,-3.344,-3.3457,-3.344,-3.4049,-3.4269,-3.3541,-3.2154,-3.0395,-2.8146,-2.6589,-2.598,0.0,-2.8299,-3.0211,-3.2458,-3.3065,-3.3656,-3.4354,-3.4787,-3.4637,-3.3825,-3.3807,-3.3403,-3.2564,-3.1788,-3.098,-3.0155,-2.9354,-2.8528,-2.7732,-2.6972,-2.6296,-2.5735,-2.5484,-2.517,-2.482,-2.4594,-2.4503,-2.4503,-2.4495,-2.4366,-2.419,-2.4209,-2.433,-2.4545,0.0,0.0,0.0,0.0,0.0,0.0,0.0,0.0,0.0,0.0,0.0,0.0,0.0,0.0,0.0,0.0,-2.419,-2.4548,-2.5338,-2.6153,-2.7427,-2.9317,-3.1201,-3.3091,-3.5,-3.7049,-3.8416,-3.9126,-4.017,-4.0674,-4.0651,-4.1205,-4.1149,-4.0647,-4.0791,-4.0515,-3.9863,-3.9038,-3.8248,-3.7283,-3.4603,-3.256,-3.0754,-2.7625,-2.575,-2.4697,0.0,-2.303,-2.2632,-2.2381,-2.2448,-2.2543,-2.1831,-2.1975,-2.2379,-2.2144,-2.2868,-2.3922,-2.4645,-2.6307,-2.8216,-2.9805,-3.1452,-3.2962,-3.404,-3.4767,-3.5008,-3.4303,-3.3541,-3.253,-3.0804,-3.0886,-3.1376,-3.185,-3.2966,-3.3677,-3.344,-3.2544,-3.0736,-2.7469,-2.664,0.0,0.0,0.0,0.0,-3.0763,-3.1323,-3.2121,-3.3407,-3.339,-3.3579,-3.4129,-3.3666,-3.2787,-3.1479,-3.143,-3.0588,-2.9002,-2.8454,-2.7493,-2.6219,-2.6484,-2.6195,-2.5493,-2.5433,-2.5326,-2.5143,-2.4561,-2.4303,-2.4303,-2.4303,-2.4266,-2.419,-2.419,-2.4247,-2.4312,0.0,0.0,0.0,0.0,0.0,0.0,0.0,0.0,0.0,0.0,0.0,0.0,0.0,0.0,0.0,0.0,0.0,-2.442,-2.4934,-2.5456,-2.6337,-2.7658,-2.9255,-3.0723,-3.2063,-3.4065,-3.5339,-3.5855,-3.6666,-3.7174,-3.7379,-3.7709,-3.7685,-3.7379,-3.7382,-3.7093,-3.6546,-3.5567,-3.4751,-3.3895,-3.1423,-2.9765,-2.853,-2.5937,-2.4699,0.0,-2.3222,-2.2768,-2.2584,-2.2377,-2.2296,-2.2254,-2.1959,-2.2046,-2.2398,-2.2936,-2.412,-2.5576,-2.6852,-2.9151,-3.1537,-3.3143,-3.4191,-3.5013,-3.5504,-3.4974,-3.3998,-3.2506,-3.119,-2.9788,-2.8113,-2.818,-2.8738,-2.9465,-3.0615,-3.1576,-3.2134,-3.1343,-2.9888,-2.7774,-2.7046,-2.642,0.0,0.0,0.0,-2.9159,-2.9918,-3.0959,-3.2482,-3.2774,-3.3255,-3.4019,-3.3584,-3.2596,-3.1052,-3.1006,-3.0048,-2.8206,-2.7374,-2.6797,-2.6469,-2.6443,-2.6362,-2.6237,-2.5944,-2.5668,-2.5338,-2.453,-2.419,-2.419,-2.419,-2.419,-2.419,-2.419,-2.419,-2.419,0.0,0.0,0.0,0.0,0.0,0.0,0.0,0.0,0.0,0.0,0.0,0.0,0.0,0.0,0.0,0.0,0.0,0.0,-2.417,-2.419,-2.4548,-2.5301,-2.6843,-2.8026,-2.8803,-3.1348,-3.2639,-3.2639,-3.3467,-3.3869,-3.3869,-3.4256,-3.4253,-3.3844,-3.3423,-3.3035,-3.2646,-3.136,-3.0534,-2.9977,-2.8827,-2.7435,-2.5947,-2.5147,-2.4162,-2.32,-2.3212,-2.32,-2.3087,-2.2521,-2.2341,-2.2347,-2.2398,-2.2431,-2.2753,-2.4237,-2.5743,-2.7571,-3.0514,-3.2949,-3.503,-3.6541,-3.6863,-3.6592,-3.5757,-3.3795,-3.1769,-3.0243,-2.8146,-2.6353,-2.5625,-2.549,-2.5778,-2.6623,-2.7367,-2.8415,-2.9987,-2.8939,-2.8263,0.0,0.0,0.0,0.0,0.0,0.0,-2.7908,0.0,-3.0318,-3.1805,-3.2967,-3.36,-3.3617,-3.3582,-3.2823,-3.1285,-3.0506,-2.9354,-2.788,-2.6357,-2.6564,-2.8255,-2.685,-2.6745,-2.7633,-2.6881,-2.6093,-2.5279,-2.4481,-2.4161,-2.417,-2.417,-2.417,-2.417,-2.419,-2.418,-2.417,0.0,0.0,0.0,0.0,0.0,0.0,0.0,0.0,0.0,0.0,0.0,0.0,0.0,0.0,0.0,0.0,0.0,0.0,-2.3827,-2.4064,-2.4281,-2.4511,-2.5466,-2.6109,-2.6311,-2.8291,-2.9314,-2.9314,-3.0287,-3.075,-3.0759,-3.1049,-3.1031,-3.0741,-3.0839,-3.0719,-3.0411,-2.9927,-2.9285,-2.8532,-2.7225,-2.6109,-2.5111,-2.4317,-2.3661,-2.3224,-2.3471,-2.3247,-2.281,-2.2647,-2.2822,-2.3224,-2.378,-2.4323,-2.505,-2.6522,-2.8433,-3.0463,-3.2324,-3.4895,-3.7263,-3.8193,-3.7625,-3.6457,-3.5081,-3.2645,-3.0074,-2.7994,-2.6234,-2.4846,-2.4103,-2.3951,-2.4746,-2.7131,-2.818,0.0,-3.1464,-3.1413,0.0,-2.9162,0.0,-2.8873,-2.7891,-2.8349,0.0,0.0,-3.0306,-3.1436,-3.2914,-3.3273,-3.3599,-3.3949,-3.343,-3.2422,-3.0871,-2.9531,-2.8555,-2.7897,-2.7472,-2.7217,-2.7143,-2.7361,-2.6956,-2.6081,-2.5874,-2.532,-2.451,-2.3777,-2.3599,-2.3827,-2.3827,-2.3827,-2.3865,-2.4103,-2.4036,-2.3847,0.0,0.0,0.0,0.0,0.0,0.0,0.0,0.0,0.0,0.0,0.0,0.0,0.0,0.0,0.0,0.0,0.0,0.0,0.0,-2.3795,-2.3986,-2.3986,-2.4563,-2.4879,-2.4879,-2.5968,-2.6552,-2.665,-2.723,-2.7528,-2.7577,-2.773,-2.7723,-2.7596,-2.7737,-2.7723,-2.7546,-2.7159,-2.6793,0.0,0.0,-2.4864,-2.4543,-2.4099,-2.3703,-2.3459,-2.3795,-2.35,-2.3003,-2.3532,-2.4004,-2.4492,-2.5235,-2.6217,-2.7452,-2.9245,-3.114,-3.3051,-3.4878,-3.7077,-3.8886,-3.8971,-3.7618,-3.5791,-3.3947,-3.097,-2.8061,-2.6132,-2.4558,-2.341,-2.2987,-2.2919,-2.3579,-2.5542,-2.6522,0.0,-3.0006,-3.0635,-3.0753,0.0,-3.0531,0.0,-2.9837,-2.9888,-3.0125,0.0,-3.097,-3.1698,-3.2848,-3.322,-3.3362,-3.3308,-3.2899,-3.1804,-2.9969,-2.9093,-2.8388,-2.7851,-2.7207,-2.7091,-2.7437,-2.7251,-2.6933,-2.6529,0.0,-2.5769,-2.5266,-2.4143,-2.3792,-2.3955,-2.3955,-2.3955,-2.4032,-2.4557,-2.4655,-2.4468,0.0,0.0,0.0,0.0,0.0,0.0,0.0,0.0,0.0,0.0,0.0,0.0,0.0,0.0,0.0,0.0,0.0,0.0,0.0,0.0,-2.3621,-2.3621,-2.3947,-2.4123,-2.4123,-2.4365,-2.4594,-2.476,-2.479,-2.4876,-2.5004,-2.5004,-2.5016,-2.5034,-2.5034,-2.5034,-2.5004,-2.4369,-2.4273,-2.4485,-2.3981,-2.3937,-2.4208,0.0,-2.3927,-2.366,-2.3865,-2.3606,-2.3316,-2.4542,-2.5297,-2.5913,-2.6843,-2.8214,-2.9873,-3.209,-3.3732,-3.5267,-3.7466,-3.8971,-3.9808,-3.9157,-3.7077,-3.4624,-3.2496,-2.9111,-2.5997,-2.4508,-2.319,-2.2296,-2.2296,-2.2296,-2.2615,-2.3545,-2.4237,-2.5472,-2.7773,-2.8704,-2.989,-3.1904,-3.1599,-3.1444,-3.209,-3.1582,-3.1241,-3.1326,-3.1343,-3.1633,-3.2276,-3.3,-3.3017,-3.2192,-3.2056,-3.099,-2.8857,-2.8942,-2.8602,-2.779,-2.6488,-2.6738,-2.8282,-2.7002,-2.6904,-2.7701,0.0,0.0,-2.6448,-2.4941,-2.4352,-2.439,-2.439,-2.439,-2.4478,-2.5222,-2.5473,-2.5341,0.0,0.0,0.0,0.0,0.0,0.0,0.0,0.0,0.0,0.0,-2.2895,-2.32,0.0,0.0,0.0,0.0,0.0,0.0,0.0,0.0,0.0,-2.3288,-2.3599,-2.3785,-2.3785,-2.4266,-2.452,-2.4543,-2.4723,-2.4876,-2.5004,-2.5004,-2.5094,-2.5253,-2.5253,-2.5253,-2.5214,-2.4836,-2.4697,-2.4716,-2.4275,-2.4151,-2.417,-2.3896,0.0,0.0,-2.279,-2.2695,-2.2976,-2.4189,-2.5435,-2.686,-2.889,-3.0531,-3.2158,-3.4387,-3.5673,-3.6761,-3.8362,-3.8988,-3.9157,-3.9022,-3.5893,-3.2462,-3.0852,-2.7571,-2.4457,-2.2987,-2.2482,-2.2296,-2.2296,-2.2296,-2.2939,-2.4898,-2.5338,-2.642,-2.9294,-2.982,-3.0277,0.0,-3.1275,-3.1241,-3.1376,-3.1275,0.0,0.0,0.0,0.0,-3.2293,-3.3,-3.278,-3.1427,-3.0801,-2.9702,-2.801,-2.8671,-2.8602,-2.7807,-2.7536,-2.7588,-2.7895,-2.764,-2.73,-2.6872,0.0,0.0,-2.573,-2.4827,-2.4643,-2.4882,-2.4882,-2.4882,-2.4927,-2.5341,-2.5326,-2.5115,0.0,0.0,0.0,0.0,0.0,0.0,0.0,-2.2398,-2.2453,-2.2324,-2.2544,-2.2721,-2.2721,-2.2594,-2.2504,0.0,0.0,0.0,0.0,0.0,0.0,-2.2947,-2.3247,-2.3522,-2.3692,-2.3943,-2.422,-2.4503,0.0,-2.4727,-2.4897,-2.4897,-2.4955,-2.505,-2.505,-2.505,-2.5012,-2.4768,-2.4639,-2.4615,-2.4321,-2.419,-2.4161,-2.3827,0.0,0.0,-2.2521,-2.2477,-2.2885,-2.4086,-2.5235,-2.659,-2.9262,-3.1376,-3.322,-3.5059,-3.6163,-3.7134,-3.8582,-3.8988,-3.8802,-3.8065,-3.4781,-3.1224,-2.9328,-2.6319,-2.3613,-2.2516,-2.2296,-2.2296,-2.2296,-2.2296,-2.2769,-2.4222,-2.478,-2.5795,-2.8027,-2.9025,-2.9939,-3.1055,-3.119,-3.1343,-3.1752,-3.143,0.0,0.0,0.0,0.0,-3.1735,-3.1345,-3.0784,-3.0093,-2.9702,-2.8975,-2.7824,-2.8197,-2.8197,-2.7807,-2.7807,-2.801,-2.8416,-2.8416,-2.801,-2.7249,0.0,0.0,-2.6116,-2.5372,-2.516,-2.5297,-2.5297,-2.5297,-2.5379,-2.5924,-2.6016,-2.5858,0.0,0.0,0.0,0.0,0.0,0.0,0.0,-2.2296,-2.2296,-2.2296,-2.2296,-2.2268,-2.2149,-2.2237,-2.2268,0.0,0.0,0.0,0.0,0.0,0.0,0.0,0.0,0.0,-2.3488,0.0,0.0,-2.4338,-2.4265,0.0,0.0,0.0,0.0,0.0,-2.4763,-2.4804,-2.479,-2.4594,-2.4459,0.0,0.0,-2.4054,0.0,0.0,0.0,0.0,0.0,-2.244,-2.2779,-2.3901,-2.4762,-2.5812,-2.8349,-3.0765,-3.2983,-3.4472,-3.5673,-3.688,-3.8345,-3.8751,-3.8396,-3.6907,-3.355,-3.0046,-2.8026,-2.5206,-2.2885,-2.24,-2.2296,-2.2296,-2.2296,-2.2296,-2.2519,-2.3154,-2.3821,-2.4747,-2.6135,-2.7739,-2.9247,-3.0565,-3.1004,0.0,-3.1827,-3.1352,0.0,0.0,0.0,0.0,0.0,-2.955,-2.8756,-2.8756,-2.8756,-2.8366,-2.757,-2.7722,-2.7807,-2.7807,-2.7976,-2.8383,-2.901,-2.9162,-2.8789,-2.8043,0.0,0.0,0.0,-2.615,-2.5845,-2.5845,-2.5845,-2.5845,-2.5913,-2.6488,-2.6691,-2.6607,0.0,0.0,0.0,0.0,0.0,0.0,0.0,-2.2296,-2.2296,-2.2296,-2.2296,-2.2135,-2.1703,-2.2032,-2.212,0.0,0.0,0.0,0.0,0.0,0.0,0.0,0.0,0.0,0.0,0.0,0.0,-2.3777,-2.3482,0.0,0.0,0.0,0.0,0.0,0.0,-2.4804,-2.479,-2.4594,0.0,0.0,0.0,0.0,0.0,0.0,0.0,0.0,0.0,-2.2324,-2.2471,-2.3238,-2.4,-2.4778,-2.5727,-2.8027,-3.07,-3.2154,-3.4083,-3.6039,-3.7584,-3.8007,-3.7635,-3.609,-3.2106,-2.8246,-2.7079,-2.4176,-2.1877,-2.2225,-2.2296,-2.2296,-2.2296,-2.2296,-2.2399,-2.2707,-2.3185,-2.3895,-2.4996,-2.6755,-2.8229,-2.9111,0.0,0.0,-3.0518,-3.0426,0.0,0.0,0.0,0.0,0.0,-2.8737,-2.7908,-2.7908,-2.7908,-2.7536,-2.681,-2.7469,-2.7807,-2.7807,-2.8535,-2.8925,-2.9027,-2.9685,-2.9583,-2.8857,0.0,0.0,0.0,-2.6911,-2.659,-2.659,-2.659,-2.659,-2.6607,-2.6674,-2.6691,-2.6691,0.0,0.0,0.0,0.0,0.0,0.0,-2.2296,-2.2296,-2.2296,-2.2296,-2.2046,-2.1809,-2.1612,-2.1553,-2.1431,-2.126,0.0,0.0,0.0,0.0,0.0,0.0,0.0,0.0,0.0,0.0,-2.3069,-2.3403,-2.3277,0.0,0.0,0.0,0.0,0.0,0.0,0.0,-2.3832,-2.3757,0.0,0.0,0.0,0.0,0.0,0.0,0.0,0.0,0.0,0.0,-2.233,-2.2649,-2.2936,-2.3224,-2.3513,-2.4746,-2.6623,-2.9484,-3.159,-3.335,-3.4838,-3.5298,-3.5021,-3.3576,-3.0108,-2.6759,-2.5489,-2.3144,-2.1291,-2.1493,-2.1705,-2.1794,-2.1554,-2.1721,-2.1832,-2.1696,-2.1823,-2.2246,-2.3127,-2.4275,-2.5752,-2.7701,-2.8503,0.0,0.0,0.0,0.0,0.0,0.0,0.0,0.0,-2.682,-2.6243,-2.6243,-2.6243,-2.6096,-2.5801,-2.6096,-2.6407,-2.6729,-2.7479,-2.8263,-2.901,-2.9314,-2.9516,-2.9583,0.0,0.0,0.0,-2.7199,-2.6962,-2.735,-2.735,-2.7097,-2.6742,-2.7199,-2.708,-2.6691,0.0,0.0,0.0,0.0,0.0,-2.2135,-2.2282,-2.218,-2.2092,-2.2092,-2.1809,-2.1506,-2.1243,-2.0959,-2.0747,-2.0631,-2.0731,0.0,0.0,0.0,0.0,0.0,0.0,0.0,0.0,0.0,-2.2587,-2.3057,-2.2977,-2.2898,0.0,0.0,0.0,0.0,0.0,0.0,0.0,0.0,0.0,0.0,0.0,0.0,0.0,0.0,0.0,0.0,0.0,0.0,0.0,0.0,0.0,-2.2092,-2.2092,-2.2369,-2.3311,-2.6555,-2.8857,-3.0629,-3.1767,-3.2308,-3.2216,-3.0753,-2.7924,-2.5188,-2.3893,-2.2123,-2.0878,-2.1118,-2.1306,-2.1368,-2.1213,-2.1306,-2.1291,-2.0862,-2.091,-2.1134,-2.1514,-2.2512,-2.3961,-2.6047,0.0,0.0,0.0,0.0,0.0,0.0,0.0,0.0,0.0,0.0,-2.4855,-2.5202,-2.5202,-2.5202,-2.5202,-2.5202,-2.5392,-2.5779,-2.6515,-2.7443,-2.8496,-2.8732,-2.9212,0.0,0.0,0.0,0.0,-2.716,-2.6975,-2.7624,-2.7607,-2.741,-2.7175,-2.7636,-2.7469,-2.6996,0.0,0.0,0.0,0.0,0.0,0.0,-2.2223,-2.1913,-2.1613,-2.1613,-2.1597,-2.1275,-2.0416,-2.0314,-2.0158,-1.9747,-2.0087,0.0,0.0,0.0,0.0,0.0,0.0,0.0,0.0,0.0,-2.196,-2.2708,-2.244,-2.2243,-2.2107,-2.2521,-2.2495,-2.2135,0.0,0.0,0.0,0.0,0.0,0.0,0.0,0.0,0.0,0.0,0.0,0.0,0.0,0.0,0.0,0.0,0.0,0.0,0.0,-2.1337,-2.1408,-2.3375,-2.5983,-2.8296,-2.8647,-2.9281,-2.9459,-2.7939,-2.5632,-2.3459,-2.2367,-2.1187,-2.0551,-2.143,-2.1275,-2.1118,-2.1521,-2.1275,-2.0845,-2.0382,-2.0715,-2.0845,-2.0382,-2.1985,-2.3465,0.0,0.0,-2.67,0.0,0.0,0.0,0.0,0.0,0.0,0.0,0.0,-2.4095,-2.5163,-2.5202,-2.5202,-2.5202,-2.5202,-2.5202,-2.5221,-2.5962,-2.6647,-2.7331,-2.8084,0.0,0.0,0.0,0.0,0.0,-2.6789,-2.6589,-2.7205,-2.7117,-2.7509,-2.8056,-2.7882,-2.7807,-2.7689,0.0,0.0,0.0,0.0,0.0,0.0,0.0,-2.1291,-2.1181,-2.1181,-2.091,-2.0616,-2.0331,-2.0037,-1.9839,-1.9711,-1.9818,0.0,0.0,0.0,0.0,0.0,0.0,0.0,0.0,0.0,-2.1306,-2.1532,-2.1445,-2.1384,-2.1351,-2.1472,-2.1624,-2.1757,-2.1986,0.0,0.0,0.0,0.0,0.0,0.0,0.0,0.0,0.0,0.0,0.0,0.0,0.0,0.0,0.0,0.0,0.0,0.0,0.0,0.0,-2.1353,-2.3059,-2.4982,-2.5595,-2.6006,-2.601,-2.5066,-2.3575,-2.2117,-2.1326,-2.0484,-1.998,-2.0244,-2.0431,-2.0483,-2.033,-2.0416,-2.0382,-1.9962,-2.0,-2.0067,-1.9909,-2.0813,0.0,-2.4175,-2.6015,0.0,0.0,0.0,0.0,0.0,0.0,0.0,0.0,0.0,-2.3767,-2.4095,-2.4116,-2.4116,-2.4116,-2.4116,-2.4287,-2.4652,-2.5352,-2.6251,-2.731,-2.7492,0.0,0.0,0.0,0.0,0.0,-2.7482,-2.7306,-2.7955,-2.7922,-2.7743,-2.7529,-2.7977,-2.7517,-2.6655,0.0,0.0,0.0,0.0,0.0,0.0,0.0,-2.0845,-2.0747,-2.0747,-2.0483,-2.0229,-2.0089,-1.9856,-1.9708,-1.9708,-1.9708,0.0,0.0,0.0,0.0,0.0,0.0,0.0,-2.0297,-2.0583,-2.0829,-2.0991,-2.0991,-2.091,-2.0732,-2.091,-2.1039,-2.1118,-2.129,-2.1368,0.0,0.0,0.0,0.0,0.0,0.0,-2.1086,0.0,0.0,0.0,0.0,0.0,0.0,0.0,0.0,0.0,0.0,0.0,0.0,0.0,-2.0956,-2.2083,-2.2815,-2.305,-2.302,-2.2622,-2.1724,-2.0827,-2.0423,-1.9989,-1.9729,-1.9892,-2.0,-2.0037,-1.9929,-2.0017,-2.0,-1.9729,-1.9708,-1.9708,-1.9708,-2.0288,0.0,-2.3585,0.0,0.0,0.0,0.0,0.0,0.0,0.0,0.0,0.0,0.0,-2.3355,-2.3595,-2.3595,-2.3595,-2.3595,-2.3595,-2.3773,-2.4095,-2.4793,-2.5663,-2.667,0.0,0.0,0.0,0.0,0.0,0.0,-2.7462,-2.7399,-2.8045,-2.8005,-2.7867,-2.7734,-2.8156,-2.7748,-2.696,0.0,0.0,0.0,0.0,0.0,0.0,0.0,-2.0533,-2.0263,-2.0263,-2.0263,-2.0106,-1.9693,-1.9639,-1.9639,-1.9639,0.0,0.0,0.0,0.0,0.0,0.0,0.0,0.0,-2.0246,-2.0263,-2.0466,-2.091,-2.091,-2.0682,-2.0263,-2.0715,-2.0682,-2.0314,-2.0764,-2.0959,-2.0959,-2.0272,-2.0368,-2.0943,-2.0256,-2.0083,0.0,0.0,0.0,0.0,0.0,0.0,0.0,0.0,0.0,0.0,0.0,0.0,0.0,0.0,0.0,0.0,0.0,-2.0628,-2.0628,-2.0628,-2.0154,-1.9708,-1.9708,-1.9708,0.0,-2.0193,-1.9947,-1.9803,-2.0193,-1.9947,-1.9708,-1.9708,-1.9753,-1.9753,-1.9708,-2.0363,0.0,0.0,0.0,0.0,0.0,0.0,0.0,0.0,0.0,0.0,0.0,0.0,0.0,-2.352,-2.358,-2.3595,-2.3595,-2.3595,-2.3625,-2.3684,-2.435,-2.5023,-2.5704,0.0,0.0,0.0,0.0,0.0,0.0,-2.6941,-2.7046,-2.76,-2.754,-2.7891,-2.8434,-2.8293,-2.823,-2.8081,0.0,0.0,0.0,0.0,0.0,0.0,0.0,0.0,0.0,0.0,-1.9839,-1.966,-1.9136,-1.9095,-1.9095,0.0,0.0,0.0,0.0,0.0,0.0,0.0,0.0,0.0,-1.9839,-1.9839,-1.9892,-1.9997,-1.9997,-1.9945,-1.9839,-1.9945,-2.0104,-2.0299,-2.0416,-2.0666,-2.0959,-2.0124,-2.0241,-2.0943,-2.0107,-1.971,0.0,0.0,0.0,0.0,-1.8961,-1.9413,0.0,0.0,0.0,0.0,0.0,0.0,0.0,0.0,-1.9708,-1.9738,-1.9902,0.0,-1.9947,-1.9947,-1.9828,-1.9708,0.0,-1.9708,-1.9744,-1.9836,-1.9764,-1.9744,-1.9821,-1.9764,-1.9708,-1.9708,-2.0124,-2.0288,-1.9768,0.0,0.0,0.0,0.0,0.0,0.0,0.0,0.0,0.0,0.0,0.0,0.0,0.0,0.0,-2.2927,-2.3355,-2.3595,-2.3595,-2.3595,-2.3864,-2.4365,-2.5038,-2.5719,-2.6378,0.0,0.0,0.0,0.0,0.0,0.0,-2.742,-2.7465,-2.761,-2.7579,-2.7659,-2.782,-2.7786,-2.7455,-2.6959,0.0,0.0,0.0,0.0,0.0,0.0,0.0,0.0,0.0,0.0,0.0,0.0,0.0,0.0,0.0,0.0,0.0,0.0,0.0,0.0,0.0,0.0,0.0,-1.9207,-1.969,-1.946,-1.9442,-1.9708,-1.9442,-1.9332,-1.9332,-1.908,-1.9214,-1.9654,-1.9654,-1.9796,-1.9958,-1.8946,-1.9099,-1.9958,-1.8928,0.0,0.0,0.0,0.0,0.0,-1.9046,-1.9393,0.0,-1.9947,-1.9874,-1.9729,0.0,0.0,0.0,0.0,-1.9708,-1.9708,-1.9708,-1.9708,-1.9708,-1.9708,-1.9708,-1.9708,-1.9708,-1.9708,-1.9708,-1.9708,-1.9708,-1.9708,-1.9708,-1.9708,-1.9708,-1.9708,-1.9989,0.0,0.0,0.0,0.0,0.0,0.0,0.0,0.0,0.0,0.0,0.0,0.0,0.0,0.0,0.0,0.0,0.0,-2.3017,-2.331,-2.3595,-2.3595,-2.3789,-2.4141,-2.4814,-2.5495,-2.6153,0.0,0.0,0.0,0.0,0.0,-2.76,-2.76,-2.76,-2.76,-2.76,-2.76,-2.76,-2.76,-2.7375,-2.7061,0.0,0.0,0.0,0.0,0.0,0.0,0.0,0.0,0.0,0.0,0.0,0.0,0.0,0.0,0.0,0.0,0.0,0.0,0.0,0.0,0.0,0.0,-1.8574,-1.8535,-1.9442,-1.9006,-1.9006,-1.946,-1.9006,-1.8779,-1.8765,-1.8322,-1.8341,-1.8779,-1.8779,-1.8779,-1.8717,-1.7687,-1.7847,-1.8669,-1.7576,0.0,0.0,0.0,0.0,0.0,0.0,0.0,0.0,-1.9518,-1.9584,-1.9584,-1.9672,0.0,0.0,0.0,0.0,0.0,-1.9708,-1.9708,-1.9708,-1.9708,-1.9708,-1.9708,-1.9708,-1.9708,-1.9708,-1.9708,-1.9708,-1.9708,-1.9708,-1.9708,-1.9708,-1.9708,0.0,0.0,-2.1017,-2.1062,0.0,0.0,0.0,0.0,0.0,0.0,0.0,0.0,0.0,0.0,0.0,0.0,0.0,0.0,-2.2703,-2.3002,-2.3595,-2.3699,-2.3759,-2.3759,-2.453,-2.5187,-2.5779,-2.6437,0.0,0.0,0.0,0.0,-2.76,-2.76,-2.76,-2.76,-2.76,-2.76,-2.76,-2.76,-2.76,-2.76,0.0,0.0,0.0,0.0,0.0,0.0,0.0,0.0,0.0,0.0,0.0,0.0,0.0,0.0,0.0,0.0,0.0,0.0,0.0,0.0,0.0,-1.8322,-1.8204,-1.8185,-1.8341,-1.8263,-1.8263,-1.8361,-1.8263,-1.8224,-1.8224,-1.8145,-1.8145,-1.8224,-1.8224,-1.8224,-1.821,-1.8029,-1.8048,-1.8168,-1.7519,0.0,0.0,0.0,0.0,0.0,0.0,0.0,0.0,-1.872,-1.9024,-1.9114,-1.9566,0.0,0.0,0.0,0.0,0.0,-1.9708,-1.9708,-1.9708,-1.9708,-1.9708,-1.9708,-1.9708,-1.9708,-1.9708,-1.9708,-1.9708,-1.9708,-1.9708,-1.9708,-1.9708,-1.9708,0.0,-2.1171,0.0,0.0,0.0,0.0,0.0,0.0,0.0,0.0,0.0,0.0,0.0,0.0,0.0,0.0,0.0,0.0,0.0,-2.3002,-2.3595,-2.4156,-2.4455,-2.4455,-2.5704,-2.6348,-2.6467,-2.7151,-2.7495,0.0,0.0,0.0,-2.76,-2.76,-2.76,-2.76,-2.76,-2.76,-2.76,-2.76,-2.76,-2.76,0.0,0.0,0.0,0.0,0.0,0.0,0.0,0.0,0.0,0.0,0.0,0.0,0.0,0.0,0.0,0.0,0.0,0.0,0.0,0.0,-1.6476,-1.6739,-1.6739,-1.7177,-1.8086,-1.7827,-1.7807,-1.8106,-1.7807,-1.7666,-1.7666,-1.7334,-1.7354,-1.7646,-1.7334,-1.7354,-1.7646,-1.7374,-1.7415,-1.7619,0.0,0.0,0.0,0.0,0.0,0.0,0.0,0.0,0.0,0.0,-1.8477,-1.8516,-1.8746,0.0,0.0,0.0,0.0,0.0,-1.9621,-1.9708,-1.9708,-1.9708,-1.9708,-1.9708,-1.9708,-1.9708,-1.9708,-1.9708,-1.9708,-1.9708,-1.9708,-1.9708,-1.9828,-2.0183,0.0,0.0,0.0,0.0,0.0,0.0,0.0,0.0,0.0,0.0,0.0,0.0,0.0,0.0,0.0,0.0,0.0,0.0,0.0,0.0,-2.312,-2.4104,-2.4425,-2.4066,-2.4687,-2.5166,-2.5555,-2.6213,-2.6731,0.0,0.0,-2.76,-2.76,-2.76,-2.76,-2.76,-2.76,-2.76,-2.76,-2.76,-2.76,-2.754,0.0,0.0,0.0,0.0,0.0,0.0,0.0,0.0,0.0,0.0,0.0,0.0,0.0,0.0,0.0,0.0,0.0,0.0,0.0,-1.5118,-1.5387,-1.5387,-1.5387,-1.6055,-1.7484,-1.6962,-1.6899,-1.7287,-1.6899,-1.6701,-1.668,-1.6348,-1.637,-1.668,-1.6219,-1.6327,-1.6883,-1.6463,-1.6612,-1.7063,0.0,0.0,0.0,0.0,0.0,0.0,0.0,0.0,0.0,0.0,0.0,0.0,0.0,0.0,0.0,-1.8593,-1.8708,-1.8798,-1.9207,-1.9332,-1.9332,-1.9332,-1.9512,-1.9708,-1.9708,-1.9828,-1.9902,-1.9738,-1.9828,-1.9902,-1.9738,-1.9708,0.0,-2.0812,-2.1799,0.0,0.0,0.0,0.0,0.0,0.0,0.0,0.0,0.0,0.0,0.0,0.0,0.0,0.0,0.0,0.0,0.0,0.0,0.0,-2.2475,-2.3437,-2.3799,-2.3595,-2.3777,-2.4052,-2.4415,-2.5059,-2.5605,-2.6144,-2.6984,-2.7331,-2.7357,-2.7524,-2.76,-2.7575,-2.7408,-2.7255,-2.7111,-2.728,-2.7331,-2.7282,0.0,0.0,0.0,0.0,0.0,0.0,0.0,0.0,0.0,0.0,0.0,0.0,0.0,0.0,0.0,0.0,0.0,0.0,0.0,-1.4744,-1.4766,-1.4766,-1.4766,-1.5073,-1.5774,-1.5186,-1.4926,-1.4937,-1.4926,-1.4903,-1.4903,-1.541,-1.5387,-1.4903,-1.4835,-1.5163,-1.572,-1.5676,-1.5996,-1.6514,-1.5977,0.0,0.0,0.0,0.0,0.0,0.0,0.0,0.0,0.0,0.0,0.0,0.0,0.0,-1.8125,-1.8165,-1.8165,-1.8185,-1.8204,-1.8224,-1.8224,-1.8224,-1.8968,-1.9708,-1.9708,-2.0183,-2.0434,-1.9842,-2.0198,-2.0438,-1.9813,-1.9708,-2.0127,-2.141,0.0,0.0,0.0,0.0,0.0,0.0,0.0,0.0,0.0,0.0,0.0,0.0,0.0,0.0,0.0,0.0,0.0,0.0,0.0,0.0,-2.1767,-2.187,-2.2475,-2.361,-2.4291,-2.4307,-2.3782,-2.4329,-2.4629,-2.4725,-2.6024,-2.659,-2.6642,-2.7331,-2.76,-2.7534,-2.6852,-2.6176,-2.5646,-2.6336,-2.659,-2.6654,0.0,0.0,0.0,0.0,0.0,0.0,0.0,0.0,0.0,0.0,0.0,0.0,0.0,0.0,0.0,0.0,0.0,0.0,0.0,-1.3677,-1.4143,-1.4143,-1.4143,-1.426,-1.448,-1.4629,-1.4698,-1.4698,-1.4698,-1.4698,-1.4698,-1.4549,-1.4549,-1.4675,-1.4306,-1.4491,-1.5039,-1.5039,-1.5175,-1.5365,-1.5166,-1.5074,0.0,0.0,0.0,0.0,0.0,0.0,0.0,0.0,-1.6795,-1.6837,-1.7034,-1.7118,-1.7167,-1.7504,-1.7605,-1.7686,-1.8007,-1.8106,-1.8106,-1.8106,-1.84,-1.8798,-1.9132,-1.9668,-2.0004,-1.9753,-1.9884,-1.9989,-1.9753,-2.0034,-2.0617,-2.1545,0.0,0.0,0.0,0.0,0.0,0.0,0.0,0.0,0.0,0.0,0.0,0.0,0.0,0.0,0.0,0.0,0.0,0.0,0.0,0.0,0.0,-2.152,-2.1932,-2.2409,-2.2706,-2.27,-2.2479,-2.3481,-2.3946,-2.4001,-2.5267,-2.581,-2.5837,-2.6108,-2.6242,-2.6215,-2.5919,-2.5646,-2.5425,-2.5701,-2.581,-2.5864,0.0,0.0,0.0,0.0,0.0,0.0,0.0,0.0,0.0,0.0,0.0,0.0,0.0,0.0,0.0,0.0,0.0,0.0,-1.1491,-1.2346,-1.2856,-1.2856,-1.2856,-1.2856,-1.2856,-1.3253,-1.3561,-1.3784,-1.4005,-1.4109,-1.4131,-1.3897,-1.392,-1.4107,-1.3695,-1.3849,-1.4422,-1.4422,-1.4525,-1.4698,-1.4698,-1.4698,0.0,0.0,0.0,0.0,0.0,0.0,0.0,0.0,-1.5932,-1.5964,-1.6151,-1.6216,-1.6324,-1.6888,-1.7055,-1.7126,-1.7504,-1.7585,-1.7585,-1.7585,-1.7727,-1.7947,-1.8322,-1.896,-1.9551,-1.973,-1.9912,-1.9907,-1.9523,-1.9972,0.0,0.0,0.0,0.0,0.0,0.0,0.0,0.0,0.0,0.0,0.0,0.0,0.0,0.0,0.0,0.0,0.0,0.0,0.0,0.0,0.0,0.0,0.0,-2.0879,-2.111,-2.111,-2.111,-2.1302,-2.1703,-2.2544,-2.3017,-2.3272,-2.4517,-2.5035,-2.5063,-2.5287,-2.5259,-2.5035,-2.5035,-2.4894,-2.4696,-2.4951,-2.5035,-2.5091,0.0,0.0,0.0,0.0,0.0,0.0,0.0,0.0,0.0,0.0,0.0,0.0,0.0,0.0,0.0,0.0,0.0,0.0,-1.0788,-1.0788,-1.0788,-1.0788,-1.0788,-1.0788,-1.0788,-1.0788,-1.1116,-1.1789,-1.2458,-1.2827,-1.2905,-1.3505,-1.3457,-1.2905,-1.2905,-1.3238,-1.3802,-1.3802,-1.4143,-1.4675,-1.4675,-1.4675,-1.4675,0.0,0.0,0.0,0.0,0.0,0.0,0.0,-1.4698,-1.4789,-1.541,-1.5588,-1.5698,-1.6315,-1.65,-1.65,-1.65,-1.65,-1.65,-1.65,-1.6888,-1.7291,-1.7291,-1.8214,-1.9251,-1.9778,-2.0313,-2.0313,-1.9136,-1.9332,0.0,0.0,0.0,0.0,0.0,0.0,0.0,0.0,0.0,0.0,0.0,0.0,0.0,0.0,0.0,0.0,0.0,0.0,0.0,0.0,0.0,0.0,0.0,-1.9798,-1.9798,-1.9798,-1.9798,-2.0425,-2.1576,-2.1519,-2.1794,-2.2376,-2.3696,-2.4292,-2.435,-2.5063,-2.4951,-2.4292,-2.4292,-2.3796,-2.3198,-2.4002,-2.4292,-2.4408,0.0,0.0,0.0,0.0,0.0,0.0,0.0,0.0,0.0,0.0,0.0,0.0,0.0,0.0,0.0,0.0,0.0,0.0,-1.009,-1.0542,-1.0788,-1.0788,-1.0788,-1.0788,-1.0788,-1.0338,-1.044,-1.1091,-1.178,-1.211,-1.2129,-1.2842,-1.3065,-1.2905,-1.2905,-1.2992,-1.3176,-1.3176,-1.3262,-1.343,-1.343,-1.343,-1.343,0.0,0.0,0.0,0.0,0.0,0.0,0.0,0.0,0.0,-1.4903,-1.4971,-1.4994,-1.5175,-1.5533,-1.5864,-1.5864,-1.6173,-1.65,-1.65,-1.6616,-1.6731,-1.6731,-1.7609,-1.8428,-1.8601,-1.8759,-1.8878,-1.8903,-1.8708,0.0,0.0,0.0,0.0,0.0,0.0,0.0,0.0,0.0,0.0,0.0,0.0,0.0,0.0,0.0,0.0,0.0,0.0,0.0,0.0,0.0,0.0,0.0,0.0,-1.9798,-1.9798,-1.9798,-2.0204,-2.0985,-2.134,-2.1794,-2.2347,-2.3124,-2.3454,-2.3484,-2.3708,-2.3649,-2.3454,-2.3454,-2.3305,-2.3138,-2.3365,-2.3454,-2.3484,0.0,0.0,0.0,0.0,0.0,0.0,0.0,0.0,0.0,0.0,-0.896,-0.8698,0.0,0.0,0.0,0.0,0.0,0.0,0.0,-0.8894,-0.9122,-0.9122,-0.9415,-0.9714,-0.9987,-0.9614,-0.9614,-1.002,-1.0686,-1.1141,-1.1416,-1.1866,-1.2206,-1.2452,-1.2172,-1.2197,-1.2452,-1.2452,-1.2452,-1.2476,-1.2774,-1.2905,-1.2905,0.0,0.0,0.0,0.0,0.0,0.0,0.0,0.0,0.0,-1.4271,-1.4329,-1.4376,-1.4629,-1.4971,-1.5298,-1.5543,-1.5864,-1.6194,-1.6445,-1.65,-1.65,-1.65,-1.7371,-1.8052,-1.7557,-1.8018,-1.8442,-1.8285,-1.8185,0.0,0.0,0.0,0.0,0.0,0.0,0.0,0.0,0.0,0.0,0.0,0.0,0.0,0.0,0.0,0.0,0.0,0.0,0.0,0.0,0.0,0.0,0.0,0.0,0.0,-1.9798,-1.9798,-2.0138,-2.0704,-2.1031,-2.1581,-2.2347,-2.2869,-2.3108,-2.3108,-2.3108,-2.3108,-2.3108,-2.3108,-2.3108,-2.3108,-2.3108,-2.3108,-2.3108,0.0,0.0,0.0,0.0,0.0,0.0,0.0,0.0,0.0,0.0,-0.702,-0.6588,0.0,0.0,0.0,0.0,0.0,0.0,0.0,-0.6588,-0.6588,-0.6588,-0.7235,-0.7937,-0.8672,-0.8699,-0.8725,-0.8804,-0.9458,-1.0115,-1.0712,-1.0762,-1.1141,-1.169,-1.1065,-1.1141,-1.1715,-1.1715,-1.174,-1.1864,-1.2525,-1.2847,-1.2881,-1.2832,0.0,0.0,0.0,0.0,0.0,0.0,0.0,0.0,-1.3552,-1.3732,-1.3826,-1.4387,-1.456,-1.4744,-1.5298,-1.5521,-1.572,-1.6281,-1.6457,-1.65,-1.65,-1.7351,-1.7817,-1.6717,-1.7763,-1.8549,-1.7487,-1.7666,0.0,0.0,0.0,0.0,0.0,0.0,0.0,0.0,0.0,0.0,0.0,0.0,0.0,0.0,0.0,0.0,0.0,0.0,0.0,0.0,0.0,0.0,0.0,0.0,0.0,0.0,-1.9798,-2.0075,-2.0616,-2.0666,-2.127,-2.2272,-2.2794,-2.3032,-2.3032,-2.3083,-2.3108,-2.3108,-2.3108,-2.3108,-2.3108,-2.3108,-2.3108,-2.3108,0.0,0.0,0.0,0.0,0.0,0.0,0.0,0.0,0.0,0.0,0.0,0.0,0.0,0.0,0.0,0.0,0.0,0.0,0.0,-0.6588,-0.6588,-0.6588,-0.675,-0.7182,-0.791,-0.7943,-0.8209,-0.8804,-0.9458,-0.9865,-1.0038,-1.0534,-1.0889,-1.1015,-1.0864,-1.0889,-1.1015,-1.1015,-1.1316,-1.1814,-1.1972,-1.2369,-1.2847,-1.2261,-1.2055,0.0,0.0,0.0,0.0,0.0,0.0,0.0,-1.3065,-1.3079,-1.3128,-1.3248,-1.3624,-1.4027,-1.4156,-1.4881,-1.5632,-1.5764,-1.6139,-1.65,-1.65,-1.6705,-1.682,-1.6556,-1.679,-1.7114,-1.7276,0.0,0.0,0.0,0.0,0.0,0.0,0.0,0.0,0.0,0.0,0.0,0.0,0.0,0.0,0.0,0.0,0.0,0.0,0.0,0.0,0.0,0.0,0.0,-1.9798,-1.9798,-1.9798,0.0,-1.9798,-1.9874,-1.9999,-2.0478,-2.1056,-2.1694,-2.2246,-2.2456,-2.2493,-2.2932,-2.3108,-2.3108,-2.3108,-2.3108,-2.3108,-2.3108,-2.3108,-2.3108,0.0,0.0,0.0,0.0,0.0,0.0,0.0,0.0,0.0,0.0,0.0,0.0,0.0,0.0,0.0,0.0,0.0,0.0,0.0,0.0,-0.5741,-0.6064,-0.6064,-0.6421,-0.7155,-0.7509,-0.7883,-0.8262,-0.8968,-0.9309,-0.9342,-0.9692,-1.0012,-1.032,-0.9994,-1.0012,-1.0312,-1.0312,-1.0517,-1.0889,-1.1541,-1.1848,-1.1891,-1.1823,-1.1591,-1.1366,-1.169,0.0,0.0,0.0,0.0,0.0,0.0,0.0,-1.2905,-1.2905,-1.3128,-1.342,-1.3732,-1.4457,-1.5298,-1.5898,-1.6259,-1.65,-1.65,-1.65,-1.65,-1.65,-1.65,-1.6595,0.0,0.0,0.0,0.0,0.0,0.0,0.0,0.0,0.0,0.0,0.0,0.0,0.0,0.0,0.0,0.0,0.0,0.0,0.0,0.0,0.0,0.0,0.0,0.0,-1.9798,-1.9798,-1.9798,-1.9798,-1.9798,-1.9605,-1.9305,-2.0256,-2.0993,-2.1518,-2.2071,-2.2225,-2.2145,-2.2427,-2.2279,-2.1896,-2.1896,-2.1896,-2.1896,-2.1896,-2.1896,-2.1959,0.0,0.0,0.0,0.0,0.0,0.0,0.0,0.0,0.0,0.0,0.0,0.0,0.0,0.0,0.0,0.0,0.0,0.0,0.0,0.0,0.0,-0.5296,-0.5324,-0.5678,-0.6394,-0.7015,-0.7396,-0.7503,-0.8129,-0.848,-0.8619,-0.8725,-0.908,-0.9614,-0.9035,-0.9113,-0.964,-0.964,-0.9684,-0.9891,-1.1015,-1.1191,-1.0838,-1.1291,-1.1116,-1.0686,-1.1266,-1.1541,-1.1715,-1.2329,0.0,0.0,0.0,0.0,-1.2905,-1.2905,-1.2905,-1.3017,-1.3505,-1.4084,-1.4835,-1.603,-1.6324,-1.638,-1.6479,-1.65,-1.65,-1.65,-1.65,0.0,0.0,0.0,0.0,0.0,0.0,0.0,0.0,0.0,0.0,0.0,0.0,0.0,0.0,0.0,0.0,0.0,0.0,0.0,0.0,0.0,0.0,0.0,0.0,-1.9747,-1.9618,-1.9618,-1.9553,-1.9423,-1.9423,-1.9097,-1.854,-1.9651,-2.04,-2.0856,-2.1399,-2.1546,-2.1419,-2.1513,-2.1189,-2.059,-2.059,-2.059,-2.059,-2.059,-2.059,-2.0687,0.0,0.0,0.0,0.0,0.0,0.0,0.0,0.0,0.0,0.0,-0.4012,-0.3511,0.0,0.0,0.0,0.0,0.0,0.0,0.0,0.0,0.0,-0.4598,-0.4625,-0.4948,-0.5624,-0.5733,-0.6118,-0.675,-0.6858,-0.7208,-0.7857,-0.8507,-0.8857,-0.8936,-0.8831,-0.8857,-0.8929,-0.8929,-0.9263,-0.9814,-0.9987,-1.0364,-1.0745,-1.0236,-1.0012,-0.9943,-1.0038,-1.044,-1.0939,-1.1049,-1.1891,0.0,0.0,0.0,-1.2905,-1.2905,-1.2905,-1.2929,-1.2992,-1.3467,-1.4202,-1.541,-1.572,-1.5864,-1.638,-1.65,-1.65,0.0,0.0,0.0,0.0,0.0,0.0,0.0,0.0,0.0,0.0,0.0,0.0,0.0,0.0,0.0,0.0,0.0,0.0,0.0,0.0,0.0,0.0,0.0,-1.8694,-1.9773,-1.9798,0.0,-1.8847,-1.8847,-1.8528,-1.7907,-1.7907,-1.7841,-1.7743,-1.792,-1.8043,-1.8162,-1.8743,-1.9187,-1.9527,-1.9988,-2.0324,-2.059,-2.059,-2.059,-2.059,-2.059,-2.059,-2.0623,0.0,0.0,0.0,0.0,0.0,0.0,0.0,0.0,0.0,0.0,0.0,-0.2704,0.0,0.0,0.0,0.0,0.0,0.0,0.0,0.0,0.0,-0.3204,-0.3204,-0.3536,-0.425,-0.4683,-0.5257,-0.5982,-0.6394,-0.6777,-0.7101,-0.7429,-0.7996,-0.8804,-0.8804,-0.8804,-0.8804,-0.8804,-0.8982,-0.9283,-0.964,-0.9762,-0.9692,-0.9762,-0.9562,-0.929,-0.9666,-0.9994,-1.0287,-1.0661,-1.12,-1.1733,-1.1765,0.0,0.0,0.0,-1.2905,-1.2968,-1.331,-1.36,-1.4003,-1.4869,-1.5096,-1.5253,-1.5876,-1.6008,-1.6095,-1.6423,0.0,0.0,0.0,0.0,0.0,0.0,0.0,0.0,0.0,0.0,0.0,0.0,0.0,0.0,0.0,0.0,0.0,0.0,0.0,0.0,0.0,-1.7412,-1.7881,-1.8546,-1.8581,0.0,-1.8097,-1.8085,-1.7934,-1.7605,-1.7191,-1.6978,-1.6978,-1.6557,-1.7006,-1.8126,-1.8379,-1.85,-1.8525,-1.897,-1.9041,-1.8822,-1.905,-1.9144,-1.9144,-1.9144,-1.9144,-1.9199,0.0,0.0,0.0,0.0,0.0,0.0,0.0,0.0,0.0,0.0,0.0,0.0,0.0,0.0,0.0,0.0,0.0,0.0,0.0,0.0,0.0,-0.2202,-0.2202,-0.2454,-0.301,-0.3748,-0.4405,-0.4937,-0.571,-0.615,-0.6312,-0.6312,-0.7015,-0.8235,-0.8235,-0.8235,-0.8235,-0.8235,-0.8348,-0.856,-0.9066,-0.9073,-0.8857,-0.9361,-0.9237,-0.8857,-0.9361,-0.9666,-0.9865,-1.0192,-1.0517,-1.0864,-1.1191,-1.1541,0.0,0.0,0.0,-1.2992,-1.3443,-1.3576,-1.3718,-1.4306,-1.4468,-1.4629,-1.5231,-1.5365,-1.5499,0.0,0.0,0.0,0.0,0.0,0.0,0.0,0.0,0.0,0.0,0.0,0.0,0.0,0.0,0.0,0.0,0.0,0.0,0.0,0.0,0.0,-1.6027,-1.6662,-1.7145,-1.7431,-1.7538,-1.7495,-1.733,-1.7135,-1.7052,-1.7024,-1.6482,-1.6208,-1.6208,-1.5642,-1.6238,-1.7719,-1.7719,-1.764,-1.7543,-1.7936,-1.7829,-1.7422,-1.7842,-1.8008,-1.8008,-1.8008,-1.8008,-1.8076,0.0,0.0,0.0,0.0,0.0,0.0,0.0,0.0,0.0,0.0,0.0,0.0,-0.1146,-0.0532,-0.0112,-0.0112,-0.0112,-0.042,-0.1118,-0.1146,-0.148,-0.2174,-0.2202,0.0,-0.2258,-0.3037,-0.3453,-0.3425,-0.4208,-0.4924,-0.5569,-0.5569,-0.5982,-0.6723,-0.6723,-0.6723,-0.6723,-0.6723,-0.7128,-0.775,-0.7803,-0.8209,-0.8804,-0.8831,-0.8831,-0.8811,-0.8831,-0.9263,-0.9718,-0.9113,-0.9744,-1.0686,-1.009,-1.0788,-1.1814,0.0,0.0,0.0,-1.2954,-1.2954,-1.3079,-1.3695,-1.3839,-1.4003,-1.4606,0.0,0.0,0.0,0.0,0.0,0.0,0.0,0.0,0.0,0.0,0.0,0.0,0.0,0.0,0.0,0.0,0.0,0.0,0.0,0.0,0.0,0.0,0.0,-1.5543,-1.6356,-1.6882,-1.7029,-1.7398,-1.7246,-1.6567,-1.5864,-1.5517,-1.5517,-1.5468,-1.5468,-1.5468,-1.541,-1.5449,-1.5556,-1.5556,-1.5812,-1.6224,-1.6635,-1.7044,-1.7422,-1.7842,-1.8008,-1.8008,-1.8008,-1.8008,-1.8008,0.0,0.0,0.0,0.0,0.0,0.0,0.0,0.0,0.0,0.0,0.0,0.0,0.0,-0.0168,0.0,0.0,0.0,-0.0112,-0.0364,-0.0392,-0.0504,-0.0783,-0.0783,-0.1006,-0.148,-0.1786,-0.2371,-0.3287,-0.3594,-0.4122,-0.4866,-0.4866,-0.5007,-0.5281,-0.6209,-0.6588,-0.6588,-0.6588,-0.675,-0.7047,-0.7503,-0.7857,-0.8156,-0.8619,-0.8804,-0.8804,-0.8804,-0.8956,-0.9106,-0.8883,-0.9106,-0.9536,-0.9736,-1.0141,-1.0695,-1.1541,-1.1996,-1.2295,-1.2774,-1.2905,-1.2954,-1.3176,-1.3214,-1.3372,-1.399,-1.412,0.0,0.0,0.0,0.0,0.0,0.0,0.0,0.0,0.0,0.0,0.0,0.0,0.0,0.0,0.0,0.0,0.0,0.0,0.0,0.0,0.0,0.0,-1.4635,-1.5563,-1.6065,-1.5979,-1.6105,-1.6054,-1.5806,-1.5526,-1.541,-1.541,-1.541,-1.541,-1.541,-1.541,-1.541,-1.541,-1.541,-1.5498,-1.5703,-1.6395,-1.665,-1.6672,-1.7627,-1.7842,-1.7637,-1.791,-1.8008,-1.7969,0.0,0.0,0.0,0.0,0.0,0.0,0.0,0.0,0.0,0.0,0.0,0.0,0.0,0.0,0.0,0.0,0.0,0.0,0.0,0.0,0.0,0.0,0.0,-0.0224,-0.0727,-0.0978,-0.1591,-0.2565,-0.3065,-0.3594,-0.4125,-0.4377,-0.4491,-0.4546,-0.5473,-0.5909,-0.5909,-0.5909,-0.6014,-0.6285,-0.7042,-0.7477,-0.7777,-0.8507,-0.8804,-0.8804,0.0,0.0,0.0,0.0,0.0,0.0,0.0,-0.9614,-1.0064,-1.14,-1.1798,-1.1972,-1.2691,-1.2905,-1.2905,-1.2905,-1.2905,-1.2992,-1.3396,0.0,0.0,0.0,0.0,0.0,0.0,0.0,0.0,0.0,0.0,0.0,0.0,0.0,0.0,0.0,0.0,0.0,0.0,0.0,0.0,0.0,0.0,0.0,-1.4138,-1.5054,-1.5533,-1.54,-1.541,-1.541,-1.541,-1.541,-1.541,-1.541,-1.541,-1.541,-1.541,-1.541,-1.541,-1.541,-1.541,-1.541,-1.5469,-1.6201,-1.6416,-1.6408,-1.7246,-1.7588,-1.7607,-1.7744,-1.7891,-1.7969,0.0,0.0,0.0,0.0,0.0,0.0,0.0,0.0,0.0,0.0,0.0,0.0,0.0,0.0,0.0,0.0,0.0,0.0,0.0,0.0,0.0,0.0,0.0,0.0,0.0,-0.0699,-0.109,-0.109,-0.2565,-0.3314,-0.34,-0.4153,-0.4491,-0.4491,-0.4491,-0.4491,-0.4491,-0.4491,-0.4893,-0.5569,-0.6312,-0.7047,-0.7777,-0.8507,-0.8804,0.0,-0.8804,-0.8804,0.0,-0.8804,0.0,0.0,0.0,-0.9237,-1.002,-1.1367,-1.1758,-1.1947,0.0,0.0,0.0,-1.2905,-1.2905,-1.2905,-1.2905,0.0,0.0,0.0,0.0,0.0,0.0,0.0,0.0,0.0,0.0,0.0,0.0,0.0,0.0,0.0,0.0,0.0,0.0,0.0,0.0,0.0,0.0,-1.4124,-1.4124,-1.4923,-1.541,-1.541,-1.541,-1.541,-1.541,-1.541,-1.541,-1.541,-1.541,-1.5381,-1.5352,-1.5352,-1.5352,-1.5323,-1.5323,-1.5323,-1.5381,-1.5889,-1.6309,-1.6668,-1.6675,-1.7181,-1.7876,-1.7463,-1.758,-1.7954,0.0,0.0,0.0,0.0,0.0,0.0,0.0,0.0,0.0,0.0,0.0,0.0,0.0,0.0,0.0,0.0,0.0,0.0,0.0,0.0,0.0,0.0,0.0,0.0,0.0,-0.0196,-0.056,-0.109,-0.2035,-0.2788,-0.3345,-0.4125,-0.4491,-0.4491,-0.4491,-0.4491,-0.4491,-0.4491,-0.4893,-0.5569,-0.6312,-0.7047,-0.7777,-0.8507,0.0,0.0,0.0,-0.8804,-0.8804,0.0,-0.8804,-0.8804,0.0,-0.8936,-0.9335,-1.0669,-1.1074,-1.135,-1.2569,0.0,0.0,0.0,0.0,0.0,0.0,0.0,0.0,0.0,0.0,0.0,0.0,0.0,0.0,0.0,0.0,0.0,0.0,0.0,0.0,0.0,0.0,0.0,0.0,0.0,0.0,0.0,0.0,-1.4609,-1.4609,-1.5117,-1.541,-1.541,-1.541,-1.541,-1.541,-1.541,-1.541,-1.541,-1.541,-1.5108,-1.454,-1.454,-1.4204,-1.3666,-1.3666,-1.3666,-1.3791,-1.5417,-1.5987,-1.5779,-1.6043,-1.597,-1.5748,-1.5804,-1.616,-1.6578,0.0,0.0,0.0,0.0,0.0,0.0,0.0,0.0,0.0,0.0,0.0,0.0,0.0,0.0,0.0,0.0,0.0,0.0,0.0,0.0,0.0,0.0,0.0,0.0,0.0,0.0,-0.0224,-0.0643,-0.1368,-0.212,-0.2871,-0.3677,-0.4211,-0.4491,-0.4491,-0.4491,-0.4491,-0.4491,-0.4732,-0.5167,-0.6177,-0.6858,-0.7343,-0.8401,-0.8804,0.0,0.0,0.0,-0.8804,-0.8804,-0.8804,0.0,0.0,0.0,-0.9008,-1.0064,-1.0389,-1.0669,-1.2082,-1.2437,-1.2501,-1.2822,0.0,0.0,-1.2905,-1.2905,0.0,0.0,0.0,0.0,0.0,0.0,0.0,0.0,0.0,0.0,0.0,0.0,0.0,0.0,0.0,0.0,0.0,0.0,0.0,0.0,-1.4394,-1.4863,-1.5039,-1.5283,-1.541,-1.541,-1.541,-1.541,-1.541,-1.541,-1.5225,-1.4903,-1.4903,-1.4481,-1.3696,-1.3696,-1.3425,-1.3009,-1.3009,-1.3009,-1.3086,-1.4314,-1.4732,-1.4653,-1.4677,-1.4737,-1.48,-1.4773,-1.5146,-1.5737,0.0,0.0,0.0,0.0,0.0,0.0,0.0,0.0,0.0,0.0,0.0,0.0,0.0,0.0,0.0,0.0,0.0,0.0,0.0,0.0,0.0,0.0,0.0,0.0,0.0,0.0,0.0,0.0,-0.0727,-0.148,-0.2232,-0.301,-0.379,-0.4491,-0.4491,-0.4491,-0.4491,-0.4491,-0.4546,-0.4736,-0.6073,-0.6642,0.0,0.0,-0.8804,-0.8804,-0.8804,-0.8804,-0.8804,-0.8804,-0.8804,0.0,0.0,0.0,0.0,0.0,-0.9788,-1.0097,-1.1443,-1.1807,-1.1972,-1.2725,0.0,0.0,-1.2905,-1.2905,0.0,0.0,0.0,0.0,0.0,0.0,0.0,0.0,0.0,0.0,0.0,0.0,0.0,0.0,0.0,0.0,0.0,0.0,0.0,-1.4075,-1.458,-1.5019,-1.5391,-1.5323,-1.5323,-1.541,-1.5323,-1.5264,-1.5264,-1.5264,-1.4874,-1.4064,-1.4064,-1.3636,-1.2856,-1.2856,-1.2826,-1.2734,-1.2734,-1.2734,-1.2734,-1.2734,-1.3036,-1.3486,-1.3081,-1.3525,-1.436,-1.3997,-1.4348,-1.5105,0.0,0.0,0.0,0.0,0.0,0.0,0.0,0.0,0.0,0.0,0.0,0.0,0.0,0.0,0.0,0.0,0.0,0.0,0.0,0.0,0.0,0.0,0.0,0.0,0.0,0.0,0.0,0.0,-0.0727,-0.148,-0.2232,-0.301,-0.379,-0.4491,-0.4491,-0.4491,-0.4491,-0.4491,-0.4814,-0.5378,-0.6258,-0.6966,-0.7589,-0.8454,-0.8804,-0.8804,-0.8804,-0.8804,-0.8804,-0.8804,-0.8804,-0.8804,0.0,0.0,0.0,-0.9614,0.0,0.0,-1.145,-1.1807,0.0,0.0,0.0,0.0,-1.2905,-1.2905,-1.2905,0.0,0.0,0.0,0.0,0.0,0.0,0.0,0.0,0.0,0.0,0.0,0.0,0.0,0.0,0.0,0.0,0.0,-1.4026,-1.4104,-1.4825,-1.5322,-1.541,-1.4785,-1.4717,-1.5381,-1.4776,-1.4421,-1.4421,-1.4421,-1.4025,-1.3213,-1.3213,-1.2818,-1.2012,-1.2012,-1.1686,-1.1083,-1.1083,-1.1083,-1.1083,-1.1083,-1.1887,-1.3071,-1.2562,-1.2499,-1.2661,-1.2407,-1.2895,-1.3665,0.0,0.0,0.0,0.0,0.0,0.0,0.0,0.0,0.0,0.0,0.0,0.0,0.0,0.0,0.0,0.0,0.0,0.0,0.0,0.0,0.0,0.0,0.0,0.0,0.0,0.0,0.0,0.0,-0.0727,-0.148,-0.2232,-0.301,-0.379,-0.4491,-0.4491,-0.4491,-0.4491,-0.4491,-0.4704,-0.5085,-0.6177,0.0,-0.7777,-0.8507,-0.8804,-0.8804,-0.8804,-0.8804,-0.8804,-0.8804,-0.8804,0.0,0.0,-0.8804,-0.8857,0.0,-0.9309,-0.9588,0.0,0.0,0.0,-1.2627,0.0,0.0,0.0,-1.2905,-1.2905,0.0,0.0,0.0,0.0,0.0,0.0,0.0,0.0,0.0,0.0,0.0,0.0,0.0,0.0,0.0,0.0,0.0,-1.3809,-1.3838,-1.4429,-1.4628,-1.4213,-1.3816,-1.3795,-1.4174,-1.3816,-1.3606,-1.3606,-1.3606,-1.3213,-1.2389,-1.2389,-1.1989,-1.1195,-1.1195,-1.0989,-1.0593,-1.0593,-1.0593,-1.06,-1.0747,-1.1276,-1.1978,-1.1729,-1.1781,-1.2024,-1.1933,-1.2279,-1.2842,0.0,0.0,0.0,0.0,0.0,0.0,0.0,0.0,0.0,0.0,0.0,0.0,0.0,0.0,0.0,0.0,0.0,0.0,0.0,0.0,0.0,0.0,0.0,0.0,0.0,0.0,0.0,0.0,-0.0727,-0.148,-0.2232,-0.301,-0.379,-0.4491,-0.4491,-0.4491,-0.4491,-0.4491,-0.457,-0.4814,0.0,-0.6966,-0.7589,-0.8454,-0.8804,-0.8804,-0.8804,-0.8804,-0.8804,-0.8804,-0.8804,-0.8804,-0.8804,-0.8804,0.0,0.0,0.0,0.0,0.0,0.0,0.0,0.0,0.0,-1.2486,0.0,0.0,0.0,-1.2486,0.0,0.0,0.0,0.0,0.0,0.0,0.0,0.0,0.0,0.0,0.0,0.0,0.0,0.0,0.0,0.0,-1.3236,-1.3402,-1.3753,-1.3704,-1.3039,-1.2848,-1.2856,-1.3009,-1.2848,-1.2765,-1.2765,-1.2765,-1.2358,-1.1562,-1.1562,-1.1226,-1.0593,-1.0593,-1.0593,-1.0593,-1.0593,-1.0626,-1.0687,-1.0835,-1.1009,-1.1156,-1.1096,-1.1369,-1.1826,-1.1886,-1.2053,-1.2294,0.0,0.0,0.0,0.0,0.0,0.0,0.0,0.0,0.0,0.0,0.0,0.0,0.0,0.0,0.0,0.0,0.0,0.0,0.0,0.0,0.0,0.0,0.0,0.0,0.0,0.0,0.0,0.0,-0.0727,-0.148,-0.2204,-0.2954,-0.3732,-0.4491,-0.4491,-0.4491,-0.4491,-0.4491,-0.4842,0.0,-0.6285,-0.6642,0.0,-0.8262,-0.8804,-0.8804,-0.8804,-0.8804,-0.8804,0.0,-0.8804,-0.8804,0.0,-0.8804,-0.8804,0.0,0.0,0.0,0.0,0.0,0.0,0.0,-1.1049,0.0,0.0,0.0,-1.1049,-1.1049,0.0,-1.1225,-1.1823,0.0,0.0,0.0,0.0,0.0,0.0,0.0,0.0,0.0,0.0,0.0,0.0,0.0,0.0,-1.2671,-1.2982,-1.31,-1.3009,-1.2328,-1.2266,-1.2978,-1.2297,-1.1958,-1.1958,-1.1958,-1.1531,-1.0744,-1.0744,-1.0688,-1.0593,-1.0593,-1.0593,-1.0593,-1.0593,-1.0734,-1.0929,-1.0734,-1.1102,-1.1779,-1.1476,-1.1382,-1.151,-1.177,-1.1926,-1.1953,0.0,0.0,0.0,0.0,0.0,0.0,0.0,0.0,0.0,0.0,0.0,0.0,0.0,0.0,0.0,0.0,0.0,0.0,0.0,0.0,0.0,0.0,0.0,0.0,0.0,0.0,-0.0196,-0.0643,-0.1368,-0.212,-0.2843,-0.3622,-0.4181,-0.4491,-0.4491,-0.4491,-0.4491,-0.4491,-0.4893,0.0,0.0,0.0,0.0,-0.8401,-0.8804,-0.8804,-0.8804,-0.8804,-0.8804,0.0,-0.8804,0.0,0.0,0.0,0.0,0.0,0.0,0.0,0.0,0.0,0.0,0.0,0.0,0.0,-1.0788,0.0,-1.0788,0.0,0.0,0.0,0.0,0.0,0.0,0.0,0.0,0.0,0.0,0.0,0.0,0.0,0.0,0.0,0.0,0.0,0.0,0.0,0.0,-1.2112,-1.1632,-1.1296,-1.1264,-1.16,-1.1288,-1.1108,-1.1108,-1.1108,-1.0926,-1.0593,-1.0593,-1.0593,-1.0593,-1.0593,-1.068,-1.0847,-1.0847,-1.0975,-1.1236,-1.1109,-1.1283,-1.1617,-1.1663,-1.1683,-1.1697,-1.1859,-1.1906,-1.1906,0.0,0.0,0.0,0.0,0.0,0.0,0.0,0.0,0.0,0.0,0.0,0.0,0.0,0.0,0.0,0.0,0.0,0.0,0.0,0.0,0.0,0.0,0.0,0.0,0.0,-0.0196,-0.056,-0.109,-0.1842,-0.2565,-0.3317,-0.3968,-0.4353,-0.4556,-0.4597,-0.4614,-0.4617,0.0,-0.5253,-0.5774,-0.6671,-0.7431,-0.8049,-0.8593,-0.8804,-0.8804,-0.8804,-0.8804,-0.8804,-0.8804,-0.8804,0.0,-0.8804,0.0,0.0,0.0,0.0,0.0,-0.9387,0.0,0.0,0.0,0.0,0.0,0.0,0.0,0.0,0.0,0.0,0.0,0.0,0.0,-1.051,-1.0439,0.0,0.0,0.0,0.0,0.0,0.0,0.0,0.0,0.0,0.0,0.0,0.0,-1.0995,0.0,-1.0618,-1.0593,-1.0593,-1.0593,-1.0593,-1.0633,-1.0713,-1.0713,-1.0754,-1.0827,-1.0747,-1.0754,-1.0827,-1.0747,-1.0868,-1.1109,-1.1109,-1.1276,-1.1543,-1.1422,-1.1435,-1.155,-1.161,-1.1712,-1.1764,-1.1966,-1.1973,-1.1906,0.0,0.0,0.0,0.0,0.0,0.0,0.0,0.0,0.0,0.0,0.0,0.0,0.0,0.0,0.0,0.0,0.0,0.0,0.0,0.0,0.0,0.0,0.0,0.0,0.0,-0.0699,-0.109,-0.109,-0.1842,-0.2565,-0.3317,-0.3517,-0.4007,-0.4691,-0.484,-0.4874,-0.4935,-0.5791,-0.6143,-0.6305,-0.7619,-0.8391,-0.8778,0.0,-0.8804,-0.8804,-0.8804,0.0,0.0,-0.8804,-0.8804,0.0,0.0,0.0,0.0,0.0,0.0,0.0,0.0,0.0,0.0,-0.8857,0.0,0.0,0.0,0.0,-0.8857,0.0,0.0,0.0,0.0,-0.984,-0.9735,-0.9494,-0.9663,0.0,0.0,0.0,0.0,0.0,0.0,0.0,0.0,0.0,0.0,0.0,-0.999,0.0,-1.0579,-1.0593,-1.0593,-1.0593,-1.0593,-1.0727,-1.0975,-1.0982,-1.1122,-1.1362,-1.1109,-1.1129,-1.1355,-1.1109,-1.1136,-1.1375,-1.1375,-1.1583,-1.1866,-1.1543,-1.1597,-1.1832,-1.1243,-1.1189,-1.1475,-1.2078,-1.2111,-1.1906,0.0,0.0,0.0,0.0,0.0,0.0,0.0,0.0,0.0,0.0,0.0,0.0,0.0,-0.0849,-0.0631,0.0,0.0,0.0,0.0,0.0,0.0,0.0,0.0,0.0,0.0,0.0,0.0,-0.184,-0.2226,-0.3025,-0.4238,-0.4381,-0.4597,-0.4843,-0.4867,-0.5214,0.0,0.0,0.0,0.0,0.0,-0.893,-0.9044,0.0,0.0,-0.8804,-0.8804,-0.8804,0.0,-0.8804,-0.8804,-0.8804,-0.8804,-0.8804,-0.8804,-0.8804,-0.8804,0.0,0.0,0.0,-0.8851,-0.9018,0.0,0.0,0.0,0.0,0.0,0.0,0.0,0.0,0.0,-0.9133,-0.9098,-0.9027,-0.907,-0.9026,0.0,0.0,0.0,0.0,0.0,0.0,0.0,0.0,0.0,-0.9659,-0.9953,-1.0247,0.0,-1.0593,-1.0593,-1.0593,-1.0593,-1.064,-1.0734,-1.0895,-1.1042,-1.1142,-1.1236,-1.1295,-1.1389,-1.1323,-1.1436,-1.1717,-1.1717,-1.1884,-1.2131,-1.1844,-1.1812,-1.1886,-1.1685,-1.1665,-1.1724,-1.1724,-1.1784,-1.1933,0.0,0.0,0.0,0.0,0.0,0.0,0.0,0.0,0.0,0.0,-0.1604,0.0,-0.1793,0.0,-0.1514,0.0,-0.0817,-0.0671,-0.042,-0.0643,0.0,-0.0392,-0.0643,0.0,0.0,0.0,0.0,0.0,-0.2876,-0.3577,-0.4775,-0.4647,-0.4711,-0.4965,-0.505,-0.5568,-0.6392,-0.6701,-0.7624,0.0,0.0,-0.9457,0.0,0.0,-0.8991,0.0,0.0,-0.8804,-0.8804,-0.8804,-0.8804,-0.8804,-0.8804,-0.8851,-0.8938,-0.8938,-0.9038,-0.9158,-0.9317,-0.9259,0.0,0.0,-0.9259,0.0,-0.9118,0.0,0.0,0.0,0.0,0.0,0.0,0.0,-0.8838,-0.8918,-0.8851,-0.8804,0.0,-0.8871,0.0,0.0,0.0,0.0,0.0,0.0,-0.9291,-0.9512,-0.9893,-1.02,0.0,0.0,-1.0593,-1.0593,-1.0593,-1.064,-1.0747,-1.1002,-1.1202,-1.1309,-1.1496,-1.1637,-1.173,-1.163,-1.1744,-1.2024,-1.2024,-1.2131,-1.2285,-1.2098,-1.2,-1.1906,-1.1906,-1.1906,-1.1893,-1.177,-1.1857,-1.2087,-0.0124,-0.013,0.0,0.0,-0.0099,0.0,0.0,0.0,-0.14,0.0,-0.2223,-0.2761,-0.2757,-0.265,-0.2554,-0.2492,-0.2303,-0.1898,-0.1202,-0.1814,0.0,0.0,-0.1813,-0.2204,-0.2209,0.0,0.0,0.0,0.0,-0.4172,-0.4891,-0.4336,-0.4426,-0.5117,-0.536,-0.5943,-0.6817,-0.7697,-0.8581,-0.941,-0.9896,-0.9953,-0.9706,-0.9693,0.0,-0.8844,-0.8831,-0.8838,-0.8844,-0.8831,-0.8838,-0.8851,-0.8851,-0.9011,-0.9231,-0.9231,-0.9459,-0.9715,-0.9699,-0.9722,-0.9715,-0.9699,0.0,0.0,0.0,0.0,-0.9715,0.0,0.0,0.0,0.0,0.0,-0.8938,-0.9191,-0.9004,-0.8851,-0.8851,0.0,0.0,0.0,0.0,0.0,0.0,-0.9064,-0.9224,-0.9211,-0.9757,-1.0083,0.0,0.0,0.0,-1.0593,-1.0593,-1.0734,-1.0989,-1.1283,-1.1577,-1.1906,-1.1919,-1.2037,-1.2291,-1.2053,-1.2044,-1.2305,-1.2305,-1.2305,-1.2305,-1.2305,-1.2138,-1.1926,-1.1926,-1.1891,-1.1888,-1.2198,-1.2268,-1.2224,-0.1868,-0.1931,-0.1997,0.0,-0.1422,-0.1188,0.0,0.0,0.0,0.0,-0.3524,-0.3677,-0.3663,-0.3539,-0.3218,-0.2556,-0.2303,0.0,0.0,0.0,0.0,-0.1924,-0.2093,-0.2257,-0.2431,-0.2507,0.0,-0.3603,0.0,-0.4085,-0.4891,-0.4841,-0.4996,-0.537,-0.6052,-0.6854,-0.773,-0.8581,-0.946,-1.0243,-1.0142,-1.0074,0.0,0.0,-0.9615,-0.9432,-0.9184,-0.9244,-0.9426,-0.9178,-0.9279,-0.9459,-0.9459,-0.9512,-0.9566,-0.9566,-0.9626,-0.9733,-0.9947,-0.9846,-0.9733,-0.9953,-0.984,-0.9715,0.0,0.0,0.0,0.0,0.0,0.0,0.0,0.0,0.0,-0.9559,-0.9506,-0.9459,-0.9459,0.0,0.0,0.0,0.0,0.0,0.0,-0.9399,-0.9479,-0.9224,-0.9757,-1.0083,0.0,0.0,0.0,-1.0593,-1.0593,-1.0734,-1.0989,-1.1283,-1.1577,-1.1906,-1.2091,-1.2231,-1.2298,-1.2225,-1.2231,-1.2305,-1.2305,-1.2305,-1.2305,-1.2305,-1.2258,-1.2191,-1.2191,-1.1739,-1.1181,-1.2007,-1.1848,-1.1279,-0.2585,0.0,0.0,-0.3211,0.0,0.0,-0.2667,0.0,0.0,-0.3848,-0.4238,0.0,-0.439,-0.4263,-0.4005,-0.3491,-0.3298,0.0,-0.2702,0.0,0.0,-0.2704,-0.301,-0.3261,-0.3382,-0.3313,0.0,-0.4074,0.0,-0.4494,-0.4982,-0.5162,-0.5502,-0.5976,-0.6494,-0.7405,-0.8613,-0.9492,-1.0142,-1.0579,-1.0381,0.0,0.0,-1.0157,-1.0097,-1.0057,-0.9704,-0.9646,-0.9659,-0.9492,-0.9546,-0.9715,-0.9715,-0.9773,-0.9873,-0.9873,-0.9997,-1.0137,-1.0267,-1.0218,-1.0137,-1.0267,-1.0218,-1.0097,-1.0097,-1.0097,-1.0097,0.0,0.0,0.0,0.0,0.0,0.0,-0.9715,-0.9715,-0.9715,0.0,0.0,0.0,0.0,0.0,0.0,0.0,-0.9773,-0.9753,-0.9431,-0.998,0.0,0.0,0.0,0.0,0.0,-1.0713,-1.0861,-1.0995,-1.141,-1.1703,-1.1906,-1.2164,-1.2305,-1.2305,-1.2305,-1.2305,-1.2305,-1.2305,-1.2305,-1.2305,-1.2305,-1.2305,-1.2261,-1.1811,-1.1316,-1.0826,-1.0944,-1.0907,-1.0901,-0.3013,0.0,0.0,0.0,0.0,0.0,0.0,-0.3689,0.0,-0.3988,0.0,-0.5046,-0.4904,-0.4782,-0.4691,-0.4691,0.0,-0.4208,-0.3511,-0.4125,-0.4184,-0.3483,-0.4125,-0.4498,-0.4518,-0.4631,0.0,0.0,0.0,-0.5032,-0.5073,-0.524,-0.5807,-0.6719,-0.6817,-0.7827,0.0,-1.0269,-1.0593,-1.0593,-1.0593,-1.0593,-1.0593,-1.0593,-1.0593,-1.0559,-1.0267,-1.0013,-0.9822,-0.9753,-0.9796,-0.9829,-0.9829,-0.9973,-1.0174,-1.0174,-1.0354,-1.0593,-1.0593,-1.0593,-1.0593,-1.0593,-1.0593,-1.0593,-1.0593,-1.0593,-1.0593,-1.0593,-1.0385,0.0,0.0,0.0,0.0,-0.9829,0.0,0.0,0.0,0.0,0.0,0.0,0.0,0.0,0.0,0.0,0.0,-0.9706,-1.0258,0.0,0.0,0.0,0.0,0.0,-1.0894,0.0,-1.1109,0.0,-1.1926,-1.1966,-1.2184,-1.2305,-1.2305,-1.2305,-1.2305,-1.2305,-1.2305,-1.2305,-1.2305,-1.2305,-1.2224,-1.1996,-1.1013,-1.0522,-1.0335,-0.9561,-0.9782,-1.0447,-0.4891,0.0,0.0,0.0,0.0,-0.5117,-0.4956,-0.5041,-0.5071,-0.489,-0.5001,-0.5046,-0.4904,-0.4782,-0.4691,-0.4691,-0.458,0.0,0.0,0.0,0.0,-0.4294,-0.4436,-0.4549,-0.4679,-0.4583,-0.4593,0.0,0.0,-0.4707,-0.4924,-0.4986,-0.5592,-0.6719,-0.7437,-0.8737,-1.0364,-1.053,0.0,-1.0593,-1.0593,-1.0593,-1.0593,-1.0593,-1.0593,-1.0586,-1.0533,-1.0479,-1.0399,-1.012,-1.02,-1.0439,-1.0439,-1.0472,-1.0512,-1.0512,-1.0553,-1.0593,-1.0593,-1.0593,-1.0593,-1.0593,-1.0593,-1.0593,-1.0593,-1.0593,-1.0593,-1.0593,-1.0553,-1.0526,-1.0579,0.0,0.0,0.0,0.0,0.0,0.0,0.0,0.0,0.0,0.0,0.0,0.0,0.0,0.0,0.0,0.0,0.0,0.0,0.0,0.0,0.0,0.0,0.0,0.0,0.0,0.0,-1.2225,-1.2278,-1.2305,-1.2305,-1.2305,-1.2305,-1.2305,-1.2305,-1.2305,-1.2305,-1.2305,-1.1805,-1.0975,-0.997,-0.9069,-0.8423,-0.9069,-0.8879,-0.8461,0.0,0.0,0.0,0.0,0.0,0.0,0.0,-0.6465,0.0,-0.5244,-0.5036,-0.4935,-0.4816,-0.4663,-0.46,-0.46,-0.4532,-0.4491,-0.4491,-0.4491,-0.4491,-0.4491,-0.4491,0.0,-0.46,-0.4528,-0.4566,-0.4691,0.0,-0.4813,-0.503,-0.5574,-0.6393,-0.7437,-0.8769,-0.9811,0.0,0.0,0.0,-1.0593,-1.0593,-1.0593,-1.0593,-1.0593,-1.0593,-1.0593,-1.0593,-1.0593,-1.0573,-1.0425,-1.0472,-1.0593,-1.0593,-1.0593,-1.0593,-1.0593,-1.0593,-1.0593,-1.0593,-1.0593,-1.0593,-1.0593,-1.0593,-1.0593,-1.0593,-1.0593,-1.0593,-1.0593,-1.0593,-1.0593,-1.0593,-1.0593,0.0,0.0,0.0,0.0,0.0,0.0,0.0,0.0,0.0,0.0,0.0,0.0,0.0,0.0,0.0,0.0,0.0,0.0,0.0,0.0,0.0,0.0,0.0,0.0,0.0,-1.2305,-1.2305,-1.2305,-1.2261,-1.1768,-1.1502,-1.1502,-1.0981,-1.0726,-1.0726,-1.0726,-1.0458,-0.9933,-0.8917,-0.8237,-0.7783,-0.7744,-0.7442,-0.7176,0.0,-0.5818,0.0,0.0,-0.6531,0.0,-0.6981,-0.7567,-0.7431,-0.5871,-0.5554,-0.543,-0.5227,-0.5116,-0.4966,-0.4736,-0.4708,-0.4653,-0.4519,-0.4491,-0.4491,-0.4491,-0.4491,-0.4491,-0.4491,-0.4716,-0.4766,0.0,0.0,-0.5417,-0.5385,-0.6431,-0.7395,-0.8355,0.0,0.0,0.0,0.0,-1.0593,-1.0593,-1.0593,-1.0593,-1.0593,-1.0593,-1.0593,-1.0593,-1.0593,-1.0593,-1.0593,-1.0593,-1.0593,-1.0593,-1.0593,-1.0593,-1.0593,-1.0593,-1.0593,-1.0593,-1.0593,-1.0593,-1.0593,-1.0593,-1.0593,-1.0593,-1.0593,-1.0593,-1.0593,-1.0593,-1.0593,-1.0593,-1.0593,-1.0593,0.0,0.0,0.0,0.0,0.0,0.0,0.0,0.0,0.0,0.0,0.0,0.0,0.0,0.0,0.0,-1.0593,-1.0593,-1.0428,0.0,0.0,0.0,0.0,-1.1993,0.0,-1.2305,0.0,-1.2077,-1.1959,-1.1959,-1.0938,-1.049,-1.0453,-0.9636,-0.9296,-0.9296,-0.9069,-0.8998,-0.8879,-0.7859,-0.748,-0.7407,-0.6641,-0.6327,-0.6419,0.0,0.0,0.0,0.0,0.0,0.0,0.0,-0.7962,-0.7876,-0.7488,-0.7443,-0.728,-0.6902,-0.6871,-0.6463,-0.5504,-0.5406,-0.5136,-0.4546,-0.4491,-0.4491,-0.4491,-0.4491,-0.4491,-0.4491,-0.5389,-0.5477,0.0,0.0,-0.6932,-0.6289,-0.7175,-0.8175,0.0,0.0,0.0,0.0,-1.0593,-1.0593,-1.0593,-1.0593,-1.0593,-1.0593,-1.0593,-1.0593,-1.0593,-1.0593,-1.0593,-1.0593,-1.0593,-1.0593,-1.0593,-1.0593,-1.0593,-1.0593,-1.0593,-1.0593,-1.0593,-1.0593,-1.0593,-1.0593,-1.0593,-1.0593,-1.0593,-1.0593,-1.0593,-1.0593,-1.0593,-1.0593,-1.0593,-1.0593,-1.0593,-1.0593,0.0,0.0,0.0,0.0,0.0,0.0,0.0,0.0,0.0,0.0,0.0,0.0,0.0,0.0,-1.0593,-1.0593,-0.9849,-1.0021,-1.1335,0.0,-1.0874,-1.2258,-1.2285,0.0,-1.2298,-1.1391,-1.0932,-1.0901,-0.9895,-0.9448,-0.9448,-0.9334,-0.9296,-0.9221,-0.8313,-0.7936,-0.7859,-0.6834,-0.6451,-0.643,-0.6482,-0.6412,-0.6317,0.0,0.0,0.0,0.0,0.0,0.0,0.0,-0.923,-0.9539,-0.9461,-0.8423,-0.7644,-0.747,-0.7249,-0.6936,-0.6505,-0.6275,-0.6036,-0.5769,-0.5773,-0.5773,-0.5773,-0.5773,-0.5853,-0.6052,-0.645,-0.661,0.0,0.0,0.0,0.0,-0.8244,0.0,0.0,0.0,-1.0593,-1.0593,-1.0593,-1.0593,-1.0593,-1.0593,-1.0593,-1.0593,-1.0593,-1.0593,-1.0593,-1.0593,-1.0593,-1.0593,-1.0593,-1.0593,-1.0593,-1.0593,-1.0593,-1.0593,-1.0593,-1.0593,-1.0593,-1.0593,-1.0593,-1.0633,-1.0807,-1.072,-1.064,-1.0814,-1.072,-1.0593,-1.0593,-1.0593,-1.0593,-1.0593,-1.0174,-0.9983,0.0,0.0,0.0,0.0,0.0,0.0,0.0,0.0,0.0,0.0,0.0,-0.8517,0.0,0.0,-0.9817,-0.9817,-0.9648,-0.9594,-0.973,0.0,-1.0359,-1.0496,-1.0501,-1.0501,-1.0496,-1.0083,-0.9895,-0.9857,-0.8841,-0.8089,-0.7518,-0.7518,-0.7537,-0.7591,-0.7207,-0.701,-0.6982,-0.6645,-0.6508,-0.6446,-0.6556,-0.6515,-0.6436,-0.8705,0.0,-0.8452,0.0,-0.9262,-0.969,-0.969,-1.0206,-1.0593,-1.0593,-0.9412,-0.8505,-0.8401,-0.8155,-0.7867,-0.7566,-0.7325,-0.7085,-0.689,-0.6867,-0.6867,-0.6867,-0.6867,0.0,-0.7211,-0.7515,-0.7671,-0.7711,-0.8276,0.0,0.0,0.0,0.0,0.0,-1.0593,-1.0593,-1.0593,-1.0593,-1.0593,-1.0593,-1.0593,-1.0593,-1.0593,-1.0593,-1.0593,-1.0593,-1.0593,-1.0593,-1.0606,-1.0687,-1.0667,-1.0593,-1.0593,-1.0593,-1.0593,-1.0593,-1.0593,-1.0613,-1.07,-1.0462,-1.027,-1.0555,-1.0211,-0.9982,-1.0495,-1.0236,-0.9968,-1.0226,-1.0027,-0.9907,-1.0174,-0.9492,-0.9102,0.0,0.0,0.0,0.0,0.0,0.0,0.0,0.0,0.0,0.0,0.0,0.0,0.0,0.0,0.0,-0.8962,-0.8915,0.0,0.0,0.0,0.0,0.0,0.0,-0.9296,-0.9296,-0.8993,-0.8846,-0.8808,-0.7821,-0.6984,-0.63,-0.63,-0.6358,-0.6453,-0.6494,-0.6511,-0.6528,-0.6641,-0.6634,-0.6559,-0.6712,-0.6671,-0.6539,-1.0396,-0.9881,-0.9562,-1.0428,-1.0593,-1.0593,-1.0593,-1.0593,-1.0593,-1.0593,-1.0593,-1.0441,-1.0117,-1.0077,-0.965,-0.8657,-0.8575,-0.8275,-0.7532,-0.7502,-0.7502,0.0,0.0,-0.7507,-0.7507,-0.8455,-0.855,-0.7711,0.0,0.0,-0.9306,0.0,0.0,-1.0593,-1.0593,-1.0593,-1.0593,-1.0593,-1.0593,-1.0593,-1.0593,-1.0593,-1.0593,-1.0593,-1.0593,-1.0593,-1.0593,-1.0593,-1.0633,-1.0928,-1.0827,-1.0593,-1.0593,-1.0593,-1.0593,-1.0593,-1.0593,-1.0653,-1.0909,-1.0153,-0.9365,-0.9657,-0.886,-0.8316,-0.9458,-0.8941,-0.8459,-0.9332,-0.8739,-0.8285,-0.9172,-0.8613,-0.8027,-0.8027,0.0,0.0,0.0,0.0,0.0,0.0,0.0,0.0,-0.6642,0.0,0.0,0.0,0.0,0.0,0.0,0.0,0.0,-0.874,-0.7965,0.0,-0.9296,-0.9296,-0.9296,-0.9296,-0.8275,-0.7821,-0.7783,-0.6795,-0.63,-0.63,-0.63,-0.6303,-0.6313,-0.6453,-0.6511,-0.6528,-0.6641,-0.6698,-0.6715,-0.6868,-0.6827,-0.6698,-1.0561,-1.0364,-1.0269,-1.0555,-1.0593,-1.0593,-1.0593,-1.0593,-1.0593,-1.0593,-1.0593,-1.0553,-1.0459,-1.0241,-0.9983,0.0,-0.9463,-0.9266,0.0,-0.8997,-0.8997,-0.8997,-0.8997,-0.9084,-0.927,-0.9576,-0.971,-0.9674,0.0,0.0,0.0,-1.0466,-1.0593,-1.0593,-1.0593,-1.0593,-1.0593,-1.0593,-1.0593,-1.0593,-1.0593,-1.0593,-1.0593,-1.0593,-1.0593,-1.0593,-1.0593,-1.0593,-1.0606,-1.07,-1.0801,-1.0855,-1.0855,-1.0754,-1.0593,-1.0593,-1.0593,-1.0526,-1.0102,-0.9718,-0.9387,-0.9136,-0.86,-0.8285,-0.8936,-0.8689,-0.8409,-0.8681,-0.8486,-0.8327,-0.852,-0.7822,-0.7407,-0.7922,0.0,0.0,0.0,0.0,0.0,0.0,0.0,0.0,0.0,-0.6168,0.0,0.0,0.0,0.0,0.0,0.0,0.0,0.0,-0.7434,0.0,-0.7249,-0.7253,-0.7253,-0.7253,-0.6945,-0.6795,-0.676,-0.6556,-0.6392,-0.631,-0.6474,-0.6559,-0.6573,-0.6722,-0.6783,-0.6797,-0.69,-0.69,-0.6832,-0.6974,-0.694,-0.6858,-1.0593,-1.0593,-1.0593,-1.0593,-1.0593,-1.0593,-1.0593,-1.0593,-1.0593,-1.0593,-1.0593,-1.0593,-1.0593,-1.0425,0.0,-1.0281,-1.0114,0.0,-1.0043,-1.0043,-1.0043,-1.0043,-1.0043,-1.0131,-1.0281,0.0,0.0,-1.0593,-1.0593,-1.0593,-1.0593,-1.0593,-1.0593,-1.0593,-1.0593,-1.0593,-1.0593,-1.0593,-1.0593,-1.0593,-1.0593,-1.0593,-1.0593,-1.0593,-1.0593,-1.0593,-1.0593,-1.0593,-1.0613,-1.072,-1.0801,-1.0836,-1.0643,-1.0416,-1.0212,-1.0314,-1.0346,-1.0186,-0.9366,-0.8865,-0.8473,-0.8303,-0.7719,-0.7315,-0.7657,-0.7902,-0.8062,-0.7991,-0.7682,-0.7491,-0.7757,-0.7077,-0.6625,-0.7089,0.0,0.0,0.0,0.0,0.0,0.0,0.0,0.0,0.0,-0.5905,0.0,0.0,0.0,0.0,0.0,0.0,0.0,-0.6115,-0.6851,0.0,-0.63,-0.63,-0.63,-0.63,-0.6354,-0.6378,-0.6385,-0.6532,-0.6549,-0.6477,-0.662,-0.6702,-0.6712,-0.6865,-0.6886,-0.69,-0.7041,-0.7041,-0.6974,-0.7061,-0.7041,-0.6957,-1.0593,-1.0593,0.0,0.0,-1.0593,0.0,-1.0593,-1.0593,-1.0593,-1.0593,-1.0593,-1.0593,-1.0593,-1.0593,-1.0593,-1.0593,0.0,0.0,0.0,-1.0593,-1.0593,-1.0593,-1.0593,0.0,-1.0593,-1.0593,-1.0593,-1.0593,-1.0593,-1.0593,-1.0593,-1.0593,-1.0593,-1.0593,-1.0593,-1.0593,-1.0593,-1.0593,-1.0593,-1.0593,-1.0593,-1.0593,-1.0593,-1.0613,-1.062,-1.0626,-1.0646,-1.0653,-1.0693,-1.0863,-1.0757,-1.0516,-0.9999,-0.9651,-0.9519,-0.9748,-0.9806,-0.9603,-0.8745,-0.7734,-0.6983,-0.7168,-0.6432,-0.5705,-0.5932,-0.6734,-0.7364,-0.7249,-0.647,-0.6079,-0.6889,-0.6352,-0.5813,-0.5803,-0.58,-0.58,-0.58,0.0,0.0,0.0,0.0,0.0,0.0,-0.6129,-0.6238,0.0,0.0,0.0,0.0,0.0,0.0,-0.6296,-0.63,-0.6306,-0.6313,-0.6313,-0.632,-0.633,-0.6463,-0.6528,-0.6532,-0.6647,-0.6712,-0.6702,-0.6722,-0.6725,-0.6729,-0.6839,-0.69,-0.6913,-0.7045,-0.7095,-0.7095,-0.7095,-0.7095,-0.7078,0.0,0.0,-1.0593,-1.0593,-1.0593,-1.0593,-1.0593,-1.0593,-1.0593,-1.0593,-1.0593,-1.0593,-1.0593,-1.0593,-1.0593,-1.0593,-1.0593,-1.0593,-1.0593,-1.0593,-1.0593,-1.0593,-1.0593,-1.0593,-1.0593,-1.0593,-1.0593,-1.0593,-1.0593,-1.0593,-1.0593,-1.0593,-1.0593,-1.0593,-1.0593,-1.0593,-1.0593,-1.0593,-1.0593,-1.0593,-1.0593,-1.0593,-1.062,-1.0841,-1.0928,-1.0922,-1.1142,-1.1223,-1.1094,-1.0393,-1.0297,-1.0295,-0.9369,-0.9207,-0.9259,-0.8877,-0.8754,-0.8579,-0.7812,-0.7426,-0.711,-0.6633,-0.6349,-0.6126,-0.6003,-0.6308,-0.6583,-0.6545,-0.6363,-0.6191,-0.6252,-0.6083,-0.5935,-0.582,-0.58,-0.58,-0.58,0.0,0.0,0.0,-0.5969,-0.6061,-0.6184,-0.6255,-0.6282,0.0,0.0,0.0,0.0,0.0,-0.6375,-0.6303,-0.63,-0.6351,-0.646,-0.6463,-0.6521,-0.6597,-0.663,-0.6647,-0.6651,-0.6803,-0.681,-0.6712,-0.6896,-0.693,-0.6846,-0.6987,-0.7048,-0.7048,-0.7085,-0.7095,-0.7095,-0.7095,-0.7095,-0.7092,-1.0593,-1.0593,-1.0593,-1.0593,-1.0593,-1.0593,-1.0593,-1.0593,-1.0593,-1.0593,-1.0593,-1.0593,-1.0593,-1.0593,-1.0593,-1.0593,-1.0593,-1.0593,-1.0593,-1.0593,-1.0593,-1.0593,-1.0593,-1.0593,-1.0593,-1.0593,-1.0593,-1.0593,-1.0593,-1.0593,-1.0593,-1.0593,-1.0593,-1.0593,-1.0593,-1.0593,-1.0593,-1.0593,-1.0593,-1.0593,-1.0593,-1.0593,-1.0626,-1.0914,-1.0995,-1.0963,-1.0799,-1.0717,-1.0544,-0.9557,-0.933,-0.9312,-0.8398,-0.8259,-0.8253,-0.7614,-0.7763,-0.791,-0.6974,-0.6719,-0.6634,-0.6246,-0.6248,-0.6279,-0.6156,-0.6238,-0.63,-0.63,-0.63,-0.6276,-0.6149,-0.6135,-0.6108,-0.6027,-0.601,-0.601,-0.601,-0.601,0.0,-0.6125,-0.6135,-0.6169,-0.6289,-0.63,-0.63,-0.63,0.0,0.0,-0.6399,-0.6538,-0.6549,-0.6402,-0.6467,-0.6498,-0.6576,-0.6576,-0.6617,-0.6702,-0.677,-0.6803,-0.681,-0.6916,-0.6937,-0.6909,-0.7024,-0.7051,-0.6987,-0.7065,-0.7095,-0.7095,-0.7095,-0.7095,-0.7095,-0.7095,-0.7095,-0.7095,-1.0593,-1.0593,-1.0593,-1.0593,-1.0593,-1.0593,-1.0593,-1.0593,-1.0593,-1.0593,-1.0593,-1.0593,-1.0593,-1.0593,-1.0593,-1.0593,-1.0633,-1.064,-1.0593,-1.0593,-1.0593,-1.0593,-1.0593,-1.0593,-1.0593,-1.0593,-1.0593,-1.0593,-1.0593,-1.0593,-1.0593,-1.0593,-1.055,-1.0424,-1.0543,-1.055,-1.0424,-1.0543,-1.0523,-1.0434,-1.0561,-1.0428,-1.0232,-1.066,-1.075,-1.0556,-0.9997,-0.9815,-0.9639,-0.8644,-0.8324,-0.8179,-0.7405,-0.7162,-0.7045,-0.6447,-0.6911,-0.7333,-0.6324,-0.6027,-0.6027,-0.6027,-0.6162,-0.63,-0.63,-0.63,-0.63,-0.63,-0.63,-0.63,-0.63,-0.63,-0.63,-0.63,-0.63,-0.63,-0.63,0.0,-0.63,-0.63,-0.63,-0.63,-0.63,-0.632,-0.633,-0.633,-0.6467,0.0,0.0,-0.6651,-0.6675,-0.6546,-0.6644,-0.6712,-0.6732,-0.6756,-0.6766,-0.677,-0.6856,-0.6916,-0.692,-0.7041,-0.7095,-0.7095,-0.7095,-0.7095,-0.7095,-0.7095,-0.7095,-0.7095,-0.7095,-0.7095,-0.7095,-0.7095,-0.7095,-0.7095,-1.0593,-1.0593,-1.0593,-1.0593,-1.0593,-1.0593,-1.0593,-1.0593,-1.0593,-1.0593,-1.0593,-1.0593,-1.0593,-1.0593,-1.0593,-1.0593,-1.0814,-1.0854,-1.0606,-1.0593,-1.0593,-1.0593,-1.0593,-1.0593,-1.0593,-1.0593,-1.0593,-1.0593,-1.0593,-1.0593,-1.0593,-1.0593,-1.0258,-0.97,-1.0303,-1.0264,-0.97,-1.0335,-1.0174,-0.9562,-1.0301,-0.9716,-0.8528,-0.9643,-0.9616,-0.9015,-0.9301,-0.9377,-0.9227,-0.8218,-0.7883,-0.7736,-0.6747,-0.6451,-0.6419,-0.6331,-0.6412,-0.6486,-0.6307,-0.6262,-0.6262,-0.6262,-0.6282,-0.63,-0.63,-0.63,-0.63,-0.63,-0.63,-0.63,-0.63,-0.63,-0.63,-0.63,-0.63,-0.63,0.0,0.0,-0.63,-0.63,-0.63,-0.63,-0.63,-0.6409,-0.6477,-0.6477,-0.658,-0.6664,-0.6664,-0.681,-0.6839,-0.6858,-0.6756,-0.6763,-0.6849,-0.6967,-0.7028,-0.7028,-0.7051,-0.7061,-0.7065,-0.7085,-0.7095,-0.7095,-0.7095,-0.7095,-0.7095,-0.7095,-0.7095,-0.7095,-0.7095,-0.7095,-0.7095,-0.7095,-0.7095,-0.7095,-1.0593,-1.0593,-1.0593,-1.0593,-1.0593,-1.0593,-1.0593,-1.0593,-1.0593,-1.0593,-1.0593,-1.0593,-1.0593,-1.0593,-1.0593,-1.0593,-1.0861,-1.0935,-1.0834,-1.0942,-1.1022,-1.1022,-1.0875,-1.0827,-1.0827,-1.0827,-1.0827,-1.0827,-1.0949,-1.0949,-1.0827,-1.0955,-1.0549,-0.973,-1.0062,-0.9732,-0.8927,-0.9208,-0.9114,-0.8851,-0.919,-0.8881,-0.8312,-0.9022,-0.9041,-0.8697,-0.8543,-0.8504,-0.8351,-0.7326,-0.6984,-0.6911,-0.6451,-0.63,-0.63,-0.63,-0.63,-0.63,-0.63,-0.63,-0.63,-0.63,-0.63,-0.63,-0.63,-0.63,-0.63,-0.63,-0.63,-0.63,-0.63,-0.63,-0.63,-0.63,-0.63,0.0,0.0,-0.63,-0.6327,-0.6405,-0.6416,-0.6446,-0.6488,-0.6556,-0.6597,-0.6597,-0.6736,-0.6858,-0.6932,-0.696,-0.7038,-0.7163,-0.7017,-0.6927,-0.6997,-0.7061,-0.7095,-0.7095,-0.7095,-0.7095,-0.7095,-0.7095,-0.7095,-0.7095,-0.7095,-0.7095,-0.7095,-0.7095,-0.7095,-0.7095,-0.7095,-0.7095,-0.7095,-0.7095,-0.7095,-0.7095,-1.0593,-1.0593,-1.0593,-1.0593,-1.0593,-1.0593,-1.0593,-1.0593,-1.0593,-1.0593,-1.0593,-1.0593,-1.0593,-1.0593,-1.0593,-1.0593,-1.0889,-1.1096,-1.1096,-1.143,-1.1535,-1.1395,-1.1209,-1.1096,-1.1096,-1.1096,-1.0989,-1.0749,-1.118,-1.1065,-1.0415,-1.0868,-1.0437,-0.9289,-0.948,-0.9031,-0.8148,-0.8221,-0.8191,-0.8112,-0.8196,-0.8053,-0.7828,-0.8278,-0.8322,-0.8098,-0.7635,-0.7442,-0.7326,-0.6567,-0.63,-0.63,-0.63,-0.63,-0.63,-0.63,-0.63,-0.63,-0.63,-0.63,-0.63,-0.63,-0.63,-0.63,-0.63,-0.63,-0.63,-0.63,-0.63,-0.63,-0.63,-0.63,-0.63,-0.63,0.0,0.0,0.0,-0.6351,-0.6402,-0.6549,-0.6566,-0.6573,-0.6688,-0.6732,-0.6753,-0.6753,-0.6852,-0.6997,-0.7142,-0.7149,-0.7265,-0.7417,-0.7275,-0.7149,-0.7149,-0.7183,-0.7203,-0.7203,-0.7166,-0.7149,-0.7149,-0.7112,-0.7095,-0.7098,-0.7132,-0.7129,-0.7098,-0.7136,-0.7129,-0.7095,-0.7095,-0.7095,-0.7095,-0.7095,-0.7095,-0.7095,-1.0593,-1.0593,-1.0593,-1.0593,-1.0593,-1.0593,-1.0593,-1.0593,-1.0593,-1.0593,-1.0593,-1.0593,-1.0593,-1.0593,-1.0593,-1.0593,-1.1069,-1.1362,-1.1362,-1.1924,-1.1997,-1.1415,-1.1369,-1.1362,-1.1362,-1.1362,-1.0898,-0.999,-1.0923,-1.0429,-0.8623,-0.9551,-0.911,-0.7526,-0.8208,-0.8084,-0.7412,-0.8118,-0.7936,-0.7252,-0.8077,-0.7407,-0.6101,-0.7053,-0.69,-0.6234,-0.6357,-0.6412,-0.6412,-0.6338,-0.63,-0.63,-0.63,-0.63,-0.63,-0.63,-0.63,-0.63,-0.63,-0.63,-0.63,-0.63,-0.63,-0.63,-0.63,-0.63,-0.63,-0.63,-0.63,-0.63,-0.63,-0.63,-0.63,-0.63,0.0,0.0,-0.6477,-0.6497,-0.6552,-0.6664,-0.6681,-0.6688,-0.6698,-0.6827,-0.6869,-0.6869,-0.7001,-0.719,-0.7346,-0.7398,-0.7424,-0.758,-0.7434,-0.7398,-0.7398,-0.7495,-0.7567,-0.7563,-0.7421,-0.7398,-0.735,-0.7207,-0.7095,-0.7102,-0.7292,-0.7275,-0.7105,-0.7295,-0.7272,-0.7095,-0.7095,-0.7095,-0.7095,-0.7095,-0.7095,-0.7095,-1.0593,-1.0593,-1.0593,-1.0593,-1.0593,-1.0593,-1.0593,-1.0593,-1.0593,-1.0593,-1.0593,-1.0593,-1.0593,-1.0754,-1.0861,-1.0861,-1.1363,-1.1697,-1.1697,-1.2078,-1.2118,-1.1717,-1.1697,-1.1697,-1.1697,-1.1697,-1.1233,-1.0219,-1.0743,-1.0227,-0.8672,-0.9259,-0.8862,-0.7626,-0.7891,-0.753,-0.6684,-0.6847,-0.6803,-0.6637,-0.682,-0.6585,-0.6167,-0.6522,-0.6471,-0.6179,-0.6279,-0.63,-0.63,-0.63,-0.63,-0.63,-0.63,-0.63,-0.63,-0.63,-0.63,-0.63,-0.63,-0.63,-0.63,-0.63,-0.63,-0.63,-0.63,-0.63,-0.63,-0.63,-0.63,-0.63,-0.63,-0.63,-0.6327,-0.6416,0.0,-0.6484,-0.6593,-0.6614,-0.6671,-0.6824,-0.6876,-0.701,-0.7105,-0.7255,-0.7346,-0.7346,-0.7394,-0.7489,-0.7638,-0.7645,-0.7631,-0.76,-0.7628,-0.76,-0.7512,-0.757,-0.76,-0.76,-0.7539,-0.7512,-0.7509,-0.7451,-0.7373,-0.7285,-0.7346,-0.7285,-0.7102,-0.7204,-0.7149,-0.7095,-0.7095,-0.7156,-0.7285,-0.7285,-0.7343,-0.7414,-1.0593,-1.0593,-1.0593,-1.0593,-1.0593,-1.0593,-1.0593,-1.0593,-1.0593,-1.0593,-1.0593,-1.0593,-1.0593,-1.0767,-1.0855,-1.0855,-1.1424,-1.173,-1.173,-1.2091,-1.2211,-1.2011,-1.204,-1.1896,-1.1558,-1.1558,-1.09,-0.9574,-1.007,-0.9537,-0.8022,-0.8585,-0.8275,-0.7326,-0.7326,-0.6949,-0.6293,-0.6146,-0.6162,-0.6289,-0.6146,-0.6166,-0.63,-0.63,-0.63,-0.63,-0.63,-0.63,-0.63,-0.63,-0.63,-0.63,-0.63,-0.63,-0.63,-0.63,-0.63,-0.63,-0.63,-0.63,-0.63,-0.63,-0.63,-0.63,-0.63,-0.63,-0.63,-0.63,-0.6334,-0.6368,-0.6368,-0.6405,-0.647,-0.6529,-0.6546,-0.6597,-0.6753,-0.6773,-0.6827,-0.6933,-0.7038,-0.72,-0.7402,-0.7465,-0.755,-0.7597,-0.76,-0.7662,-0.7804,-0.7858,-0.7838,-0.774,-0.7831,-0.7834,-0.774,-0.774,-0.774,-0.7736,-0.7689,-0.7665,-0.7665,-0.7621,-0.7543,-0.7444,-0.7444,-0.7356,-0.7217,-0.722,-0.7183,-0.7105,-0.7203,-0.7319,-0.7377,-0.6955,-0.6913,-0.6901,-1.0593,-1.0593,-1.0593,-1.0593,-1.0593,-1.0593,-1.0593,-1.0593,-1.0593,-1.0593,-1.0593,-1.0593,-1.0593,-1.0593,-1.0593,-1.0593,-1.1096,-1.1395,-1.1395,-1.1941,-1.2298,-1.2298,-1.2298,-1.1811,-1.082,-1.0783,-0.9809,-0.7783,-0.8803,-0.8275,-0.6338,-0.7326,-0.7253,-0.63,-0.63,-0.63,-0.63,-0.63,-0.63,-0.63,-0.63,-0.63,-0.63,-0.63,-0.63,-0.63,-0.63,-0.63,-0.63,-0.63,-0.63,-0.63,-0.63,-0.63,-0.63,-0.63,-0.63,-0.63,-0.63,-0.63,-0.63,-0.63,-0.63,-0.63,-0.6303,-0.6303,-0.6303,-0.6303,-0.6416,-0.6515,-0.6515,-0.66,-0.6702,-0.6702,-0.6702,-0.6756,-0.6869,-0.6889,-0.6943,-0.7082,-0.7102,-0.7207,-0.7405,-0.7422,-0.7441,-0.759,-0.7604,-0.7665,-0.7804,-0.7907,-0.7988,-0.7988,-0.7988,-0.7988,-0.7988,-0.7988,-0.7988,-0.7988,-0.7885,-0.7814,-0.7807,-0.7665,-0.7604,-0.76,-0.76,-0.7516,-0.7433,-0.7536,-0.7371,-0.7125,-0.7432,-0.7506,-0.7204,-0.6024,-0.5575,-0.5395,-1.0593,-1.0593,-1.0593,-1.0593,-1.0593,-1.0593,-1.0593,-1.0593,-1.0593,-1.0593,-1.0593,-1.0593,-1.0593,-1.0774,-1.0894,-1.0894,-1.1396,-1.1824,-1.2031,-1.1525,-1.1242,-1.1242,-1.1242,-1.1124,-1.082,-1.0115,-0.9102,-0.7783,-0.8084,-0.7595,-0.63,-0.6606,-0.6606,-0.63,-0.63,-0.63,-0.63,-0.63,-0.63,-0.63,-0.63,-0.63,-0.63,-0.63,-0.63,-0.63,-0.63,-0.63,-0.63,-0.63,-0.63,-0.63,-0.63,-0.63,-0.63,-0.63,-0.63,-0.63,-0.63,-0.63,-0.63,-0.63,-0.63,-0.6327,-0.6426,-0.645,-0.648,-0.6549,-0.6603,-0.663,-0.663,-0.6668,-0.6736,-0.6844,-0.6861,-0.6949,-0.7204,-0.7238,-0.7295,-0.7444,-0.755,-0.7628,-0.7675,-0.7777,-0.7858,-0.7853,-0.786,-0.7877,-0.7921,-0.7965,-0.7988,-0.7988,-0.7083,-0.7036,-0.7988,-0.7988,-0.7988,-0.7988,-0.7944,-0.7921,-0.7921,-0.7877,-0.7848,-0.7746,-0.7746,-0.7665,-0.7479,-0.6577,-0.6139,-0.6068,-0.6057,-0.558,-0.494,-0.544,-0.5147,-0.4411,-1.0593,-1.0593,-1.0626,-1.0747,-1.0667,-1.0633,-1.0747,-1.0667,-1.0593,-1.0593,-1.0593,-1.0593,-1.0593,-1.0747,-1.0868,-1.0982,-1.1177,-1.1257,-1.1118,-1.0533,-1.019,-1.019,-0.9814,-0.9626,-0.9626,-0.9026,-0.8199,-0.7215,-0.7215,-0.6911,-0.63,-0.63,-0.63,-0.63,-0.63,-0.63,-0.63,-0.63,-0.63,-0.63,-0.63,-0.63,-0.63,-0.63,-0.63,-0.63,-0.63,-0.63,-0.63,-0.63,-0.63,-0.63,-0.63,-0.63,-0.63,-0.63,-0.63,-0.63,-0.63,-0.634,-0.6381,-0.6381,-0.6381,-0.6405,-0.6494,-0.6559,-0.6586,-0.6681,-0.6749,-0.679,-0.679,-0.6837,-0.6926,-0.7078,-0.7051,-0.7119,-0.7417,-0.7456,-0.7428,-0.7584,-0.7675,-0.775,-0.7804,-0.7896,-0.7924,-0.7985,-0.7988,-0.7786,-0.7235,-0.7185,-0.698,-0.6426,-0.5625,-0.5572,-0.6426,-0.6426,-0.6678,-0.7185,-0.7185,-0.693,-0.6426,-0.6426,-0.6385,-0.6312,-0.622,-0.616,-0.6045,-0.5214,-0.486,-0.4793,-0.4857,-0.4423,-0.3849,-0.4069,-0.376,-0.3102,-1.0593,-1.0593,-1.068,-1.0942,-1.0807,-1.0727,-1.0982,-1.0841,-1.066,-1.0633,-1.0633,-1.0633,-1.0633,-1.0633,-1.0715,-1.0903,-1.051,-0.9966,-0.9357,-0.9221,-0.915,-0.915,-0.8199,-0.7668,-0.7668,-0.7668,-0.7215,-0.63,-0.63,-0.63,-0.63,-0.63,-0.63,-0.63,-0.63,-0.63,-0.63,-0.63,-0.63,-0.63,-0.63,-0.63,-0.63,-0.63,-0.63,-0.63,-0.63,-0.63,-0.63,-0.63,-0.63,-0.63,-0.63,-0.63,-0.63,-0.63,-0.63,-0.6303,-0.6317,-0.6412,-0.6515,-0.6528,-0.6542,-0.6552,-0.6552,-0.662,-0.6725,-0.6736,-0.6861,-0.6923,-0.6923,-0.7041,-0.7227,-0.737,-0.7272,-0.7237,-0.7577,-0.7499,-0.7468,-0.7621,-0.7638,-0.7689,-0.7821,-0.7686,-0.769,-0.7829,-0.7686,-0.7182,-0.6079,-0.5879,-0.5272,-0.4016,-0.3865,-0.3865,-0.4016,-0.3865,-0.4518,-0.5827,-0.5827,-0.5172,-0.4016,-0.4016,-0.4016,-0.4012,-0.3849,-0.3823,-0.3821,-0.3668,-0.3585,-0.3475,-0.3697,-0.3664,-0.3325,-0.2361,-0.1929,-0.1667,-1.0593,-1.0593,-1.068,-1.0942,-1.0942,-1.0995,-1.1255,-1.1242,-1.1156,-1.0929,-1.0902,-1.0902,-1.0902,-1.0902,-1.0711,-1.0188,-0.954,-0.9191,-0.9281,-0.858,-0.8122,-0.8122,-0.7176,-0.6641,-0.6641,-0.6641,-0.6528,-0.63,-0.63,-0.63,-0.63,-0.63,-0.63,-0.63,-0.63,-0.63,-0.63,-0.63,-0.63,-0.63,-0.63,-0.63,-0.63,-0.63,-0.63,-0.63,-0.63,-0.63,-0.63,-0.63,-0.63,-0.63,-0.63,-0.63,-0.63,-0.63,-0.63,-0.6323,-0.6436,-0.6491,-0.6542,-0.662,-0.6742,-0.6831,-0.6831,-0.6854,-0.6869,-0.6977,-0.7166,-0.7275,-0.7275,-0.74,-0.7512,-0.7546,-0.7522,-0.7563,-0.774,-0.7736,-0.7773,-0.7877,-0.7894,-0.7907,-0.7938,-0.6991,-0.6401,-0.6429,-0.5472,-0.522,-0.5979,-0.502,-0.4316,-0.4016,-0.2964,-0.2916,-0.3966,-0.2964,-0.3116,-0.4418,-0.4418,-0.4268,-0.4016,-0.4016,-0.4016,-0.4014,-0.395,-0.3944,-0.3889,-0.2803,-0.2363,-0.2361,-0.2298,-0.1675,-0.0926,-0.1606,-0.1235,-0.0378,-1.062,-1.0593,-1.0727,-1.1129,-1.1089,-1.1136,-1.157,-1.1482,-1.1289,-1.1035,-1.1109,-1.1096,-1.0847,-1.0542,-0.9884,-0.8669,-0.8413,-0.8196,-0.7889,-0.7365,-0.7099,-0.7099,-0.6567,-0.63,-0.63,-0.63,-0.63,-0.63,-0.63,-0.63,-0.63,-0.63,-0.63,-0.63,-0.63,-0.63,-0.63,-0.63,-0.63,-0.63,-0.63,-0.63,-0.63,-0.63,-0.63,-0.63,-0.63,-0.63,-0.63,-0.63,-0.63,-0.63,-0.63,-0.63,-0.63,-0.63,-0.6347,-0.6416,-0.6494,-0.658,-0.6709,-0.679,-0.6876,-0.6967,-0.6903,-0.7037,-0.716,-0.7234,-0.7373,-0.7482,-0.7482,-0.7546,-0.7624,-0.7689,-0.7645,-0.7675,-0.7889,-0.7268,-0.6884,-0.7018,-0.6476,-0.6074,-0.6074,-0.5472,-0.5022,-0.5022,-0.4418,-0.4017,-0.4069,-0.3417,-0.2764,-0.2113,-0.141,-0.136,-0.2063,-0.141,-0.141,-0.2113,-0.2765,-0.2715,-0.2113,-0.2113,-0.2113,-0.2113,-0.2113,-0.2113,-0.2062,-0.1345,-0.1026,-0.1047,-0.0951,-0.0564,-0.0093,-0.0709,-0.0524,0.0,-1.0787,-1.074,-1.0908,-1.141,-1.1303,-1.1323,-1.1899,-1.1737,-1.147,-1.1182,-1.1167,-1.1,-1.0561,-0.9792,-0.8724,-0.729,-0.7397,-0.7173,-0.6338,-0.63,-0.63,-0.63,-0.63,-0.63,-0.63,-0.63,-0.63,-0.63,-0.63,-0.63,-0.63,-0.63,-0.63,-0.63,-0.63,-0.63,-0.63,-0.63,-0.63,-0.63,-0.63,-0.63,-0.63,-0.63,-0.63,-0.63,-0.63,-0.63,-0.63,-0.63,-0.63,-0.63,-0.63,-0.63,-0.6306,-0.6327,-0.6419,-0.6525,-0.6576,-0.6736,-0.685,-0.6698,-0.6746,-0.6716,-0.6409,-0.6879,-0.7324,-0.7142,-0.7184,-0.73,-0.73,-0.7127,-0.7034,-0.7143,-0.7068,-0.7078,-0.7301,-0.624,-0.5527,-0.5665,-0.467,-0.3915,-0.3665,-0.3665,-0.3665,-0.3665,-0.3466,-0.2914,-0.2063,-0.1762,-0.1159,-0.0051,0.0,0.0,0.0,0.0,0.0,0.0,-0.1109,-0.1058,0.0,0.0,0.0,0.0,0.0,0.0,0.0,0.0,0.0,0.0,0.0,0.0,0.0,0.0,0.0,0.0,-1.1282,-1.1275,-1.1416,-1.1785,-1.1812,-1.1899,-1.2191,-1.2211,-1.2078,-1.1826,-1.089,-1.025,-1.0178,-0.8735,-0.7719,-0.7453,-0.6874,-0.6451,-0.63,-0.63,-0.63,-0.63,-0.63,-0.63,-0.63,-0.63,-0.63,-0.63,-0.63,-0.63,-0.63,-0.63,-0.63,-0.63,-0.63,-0.63,-0.63,-0.63,-0.63,-0.63,-0.63,-0.63,-0.63,-0.63,-0.63,-0.63,-0.63,-0.63,-0.63,-0.63,-0.63,-0.63,-0.63,-0.63,-0.6323,-0.6446,-0.6497,-0.6569,-0.6797,-0.6856,-0.6698,-0.5799,-0.5614,-0.5335,-0.4276,-0.5778,-0.7093,-0.6036,-0.5931,-0.6031,-0.6031,-0.5174,-0.4487,-0.4499,-0.4491,-0.4491,-0.4514,-0.4357,-0.4253,-0.4266,-0.4116,-0.3566,-0.2363,-0.2264,-0.2264,-0.2264,-0.1209,-0.0958,-0.1963,-0.0907,-0.0202,0.0,0.0,0.0,0.0,0.0,0.0,0.0,-0.0202,-0.0151,0.0,0.0,0.0,0.0,0.0,0.0,0.0,0.0,0.0,0.0,0.0,0.0,0.0,0.0,0.0,0.0,-1.1249,-1.1316,-1.147,-1.1597,-1.1792,-1.2,-1.2258,-1.2305,-1.2008,-1.1169,-1.0676,-1.0084,-0.923,-0.8096,-0.7196,-0.6689,-0.6436,-0.63,-0.63,-0.63,-0.63,-0.63,-0.63,-0.63,-0.63,-0.63,-0.63,-0.63,-0.63,-0.63,-0.63,-0.63,-0.63,-0.63,-0.63,-0.63,-0.63,-0.63,-0.63,-0.63,-0.63,-0.6347,-0.6419,-0.6419,-0.6419,-0.6409,-0.6327,-0.63,-0.63,-0.63,-0.63,-0.63,-0.63,-0.6354,-0.6429,-0.6494,-0.6135,-0.5907,-0.6675,-0.5987,-0.5119,-0.535,-0.4904,-0.4077,-0.2854,-0.4063,-0.5237,-0.4715,-0.4722,-0.4808,-0.4808,-0.4342,-0.4016,-0.4016,-0.4016,-0.4016,-0.4016,-0.3364,-0.2614,-0.1862,-0.1762,-0.1511,-0.0958,-0.0907,-0.0907,-0.0907,-0.0353,-0.0252,-0.0857,-0.0303,0.0,0.0,0.0,0.0,0.0,0.0,0.0,0.0,0.0,0.0,0.0,0.0,0.0,0.0,0.0,0.0,0.0,0.0,0.0,0.0,0.0,0.0,0.0,0.0,0.0,0.0]},{"header":{"parameterUnit":"m.s-1","parameterCategory":1,"la1":30.6,"la2":28.766,"lo1":-90.7593,"lo2":-88.6598,"dy":0.0162,"dx":0.0183,"nx":116,"ny":114,"refTime":"2023-06-03T06:00:00:Z","depth":0,"parameterNumber":3,"parameterNumberName":"V-component_of_WINDS"},"data":[0.0,0.0,0.0,0.0,0.0,0.0,0.0,0.0,0.0,0.0,0.0,0.0,0.0,0.0,0.0,0.0,0.0,0.0,0.0,0.0,0.0,0.0,0.0,0.0,0.0,0.0,0.0,0.0,0.0,0.0,0.0,0.0,0.0,0.0,0.0,0.0,0.0,0.0,0.0,0.0,0.0,0.0,0.0,0.0,0.0,0.0,0.0,0.0,0.0,0.0,0.0,0.0,0.0,0.0,0.0,0.0,0.0,0.0,0.0,0.0,0.0,0.0,0.0,0.0,0.0,0.0,0.0,0.0,0.0,0.0,0.0,0.0,0.0,0.0,0.0,0.0,0.0,0.0,0.0,0.0,0.0,0.0,0.0,0.0,0.0,0.0,0.0,0.0,0.0,0.0,0.0,0.0,0.0,0.0,0.0,0.0,0.0,0.0,0.0,0.0,0.0,0.0,0.0,0.0,0.0,0.0,0.0,0.0,0.0,0.0,0.0,0.0,0.0,0.0,0.0,0.0,0.0,0.0,0.0,0.0,0.0,0.0,0.0,0.0,0.0,0.0,0.0,0.0,0.0,0.0,0.0,0.0,0.0,0.0,0.0,0.0,0.0,0.0,0.0,0.0,0.0,0.0,0.0,0.0,0.0,0.0,0.0,0.0,0.0,0.0,0.0,0.0,0.0,0.0,0.0,0.0,0.0,0.0,0.0,0.0,0.0,0.0,0.0,0.0,0.0,0.0,0.0,0.0,0.0,0.0,0.0,0.0,0.0,0.0,0.0,0.0,0.0,0.0,0.0,0.0,0.0,0.0,0.0,0.0,0.0,0.0,0.0,0.0,0.0,0.0,0.0,0.0,0.0,0.0,0.0,0.0,0.0,0.0,0.0,0.0,0.0,0.0,0.0,0.0,0.0,0.0,0.0,0.0,0.0,0.0,0.0,0.0,0.0,0.0,0.0,0.0,0.0,0.0,0.0,0.0,0.0,0.0,0.0,0.0,0.0,0.0,0.0,0.0,0.0,0.0,0.0,0.0,0.0,0.0,0.0,0.0,0.0,0.0,0.0,0.0,0.0,0.0,0.0,0.0,0.0,0.0,0.0,0.0,0.0,0.0,0.0,0.0,0.0,0.0,0.0,0.0,0.0,0.0,0.0,0.0,0.0,0.0,0.0,0.0,0.0,0.0,0.0,0.0,0.0,0.0,0.0,0.0,0.0,0.0,0.0,0.0,0.0,0.0,0.0,0.0,0.0,0.0,0.0,0.0,0.0,0.0,0.0,0.0,0.0,0.0,0.0,0.0,0.0,0.0,0.0,0.0,0.0,0.0,0.0,0.0,0.0,0.0,0.0,0.0,0.0,0.0,0.0,0.0,0.0,0.0,0.0,0.0,0.0,0.0,0.0,0.0,0.0,0.0,0.0,0.0,0.0,0.0,0.0,0.0,0.0,0.0,0.0,0.0,0.0,0.0,0.0,0.0,0.0,0.0,0.0,0.0,0.0,0.0,0.0,0.0,0.0,0.0,0.0,0.0,0.0,0.0,0.0,0.0,0.0,0.0,0.0,0.0,0.0,0.0,0.0,0.0,0.0,0.0,0.0,0.0,0.0,0.0,0.0,0.0,0.0,0.0,0.0,0.0,0.0,0.0,0.0,0.0,0.0,0.0,0.0,0.0,0.0,0.0,0.0,0.0,0.0,0.0,0.0,0.0,0.0,0.0,0.0,0.0,0.0,0.0,0.0,0.0,0.0,0.0,0.0,0.0,0.0,0.0,0.0,0.0,0.0,0.0,0.0,0.0,0.0,0.0,0.0,0.0,0.0,0.0,0.0,0.0,0.0,0.0,0.0,0.0,0.0,0.0,0.0,0.0,0.0,0.0,0.0,0.0,0.0,0.0,0.0,0.0,0.0,0.0,0.0,0.0,0.0,0.0,0.0,0.0,0.0,0.0,0.0,0.0,0.0,0.0,0.0,0.0,0.0,0.0,0.0,0.0,0.0,0.0,0.0,0.0,0.0,0.0,0.0,0.0,0.0,0.0,0.0,0.0,0.0,0.0,0.0,0.0,0.0,0.0,0.0,0.0,0.0,0.0,0.0,0.0,0.0,0.0,0.0,0.0,0.0,0.0,0.0,0.0,0.0,0.0,0.0,0.0,0.0,0.0,0.0,0.0,0.0,0.0,0.0,0.0,0.0,0.0,0.0,0.0,0.0,0.0,0.0,0.0,0.0,0.0,0.0,0.0,0.0,0.0,0.0,0.0,0.0,0.0,0.0,0.0,0.0,0.0,0.0,0.0,0.0,0.0,0.0,0.0,0.0,0.0,0.0,0.0,0.0,0.0,0.0,0.0,0.0,0.0,0.0,0.0,0.0,0.0,0.0,0.0,0.0,0.0,0.0,0.0,0.0,0.0,0.0,0.0,0.0,0.0,0.0,0.0,0.0,0.0,0.0,0.0,0.0,0.0,0.0,0.0,0.0,0.0,0.0,0.0,0.0,0.0,0.0,0.0,0.0,0.0,0.0,0.0,0.0,0.0,0.0,0.0,0.0,0.0,0.0,0.0,0.0,0.0,0.0,0.0,0.0,0.0,0.0,0.0,0.0,0.0,0.0,0.0,0.0,0.0,0.0,0.0,0.0,0.0,0.0,0.0,0.0,0.0,0.0,0.0,0.0,0.0,0.0,0.0,0.0,0.0,0.0,0.0,0.0,0.0,0.0,0.0,0.0,0.0,0.0,0.0,0.0,0.0,0.0,0.0,0.0,0.0,0.0,0.0,0.0,0.0,0.0,0.0,0.0,0.0,0.0,0.0,0.0,0.0,0.0,0.0,0.0,0.0,0.0,0.0,0.0,0.0,0.0,0.0,0.0,0.0,0.0,0.0,0.0,0.0,0.0,0.0,0.0,0.0,0.0,0.0,0.0,0.0,0.0,0.0,0.0,0.0,0.0,0.0,0.0,0.0,0.0,0.0,0.0,0.0,0.0,0.0,0.0,0.0,0.0,0.0,0.0,0.0,0.0,0.0,0.0,0.0,0.0,0.0,0.0,0.0,0.0,0.0,0.0,0.0,0.0,0.0,0.0,0.0,0.0,0.0,0.0,0.0,0.0,0.0,0.0,0.0,0.0,0.0,0.0,0.0,0.0,0.0,0.0,0.0,0.0,0.0,0.0,0.0,0.0,0.0,0.0,0.0,0.0,0.0,0.0,0.0,0.0,0.0,0.0,0.0,0.0,0.0,0.0,0.0,0.0,0.0,0.0,0.0,0.0,0.0,0.0,0.0,0.0,0.0,0.0,0.0,0.0,0.0,0.0,0.0,0.0,0.0,0.0,0.0,0.0,0.0,0.0,0.0,0.0,0.0,0.0,0.0,0.0,0.0,0.0,0.0,0.0,0.0,0.0,0.0,0.0,0.0,0.0,0.0,0.0,0.0,0.0,0.0,0.0,0.0,0.0,0.0,0.0,0.0,0.0,0.0,0.0,0.0,0.0,0.0,0.0,0.0,0.0,0.0,0.0,0.0,0.0,0.0,0.0,0.0,0.0,0.0,0.0,0.0,0.0,0.0,0.0,0.0,0.0,0.0,0.0,0.0,0.0,0.0,0.0,0.0,0.0,0.0,0.0,0.0,0.0,0.0,0.0,0.0,0.0,0.0,0.0,0.0,0.0,0.0,0.0,0.0,0.0,0.0,0.0,0.0,0.0,0.0,0.0,0.0,0.0,0.0,0.0,0.0,0.0,0.0,0.0,0.0,0.0,0.0,0.0,0.0,0.0,0.0,0.0,0.0,0.0,0.0,0.0,0.0,0.0,0.0,0.0,0.0,0.0,0.0,0.0,0.0,0.0,0.0,0.0,0.0,0.0,0.0,0.0,0.0,0.0,0.0,0.0,0.0,0.0,0.0,0.0,0.0,0.0,0.0,0.0,0.0,0.0,0.0,0.0,0.0,0.0,0.0,0.0,0.0,0.0,0.0,0.0,0.0,0.0,0.0,0.0,0.0,0.0,0.0,0.0,0.0,0.0,0.0,0.0,0.0,0.0,0.0,0.0,0.0,0.0,0.0,0.0,0.0,0.0,0.0,0.0,0.0,0.0,0.0,0.0,0.0,0.0,0.0,0.0,0.0,0.0,0.0,0.0,0.0,0.0,0.0,0.0,0.0,0.0,0.0,0.0,0.0,0.0,0.0,0.0,0.0,0.0,0.0,0.0,0.0,0.0,0.0,0.0,0.0,0.0,0.0,0.0,0.0,0.0,0.0,0.0,0.0,0.0,0.0,0.0,0.0,0.0,0.0,0.0,0.0,0.0,0.0,0.0,0.0,0.0,0.0,0.0,0.0,0.0,0.0,0.0,0.0,0.0,0.0,0.0,0.0,0.0,0.0,0.0,0.0,0.0,0.0,0.0,0.0,0.0,0.0,0.0,0.0,0.0,0.0,0.0,0.0,0.0,0.0,0.0,0.0,0.0,0.0,0.0,0.0,0.0,0.0,0.0,0.0,0.0,0.0,0.0,0.0,0.0,0.0,0.0,0.0,0.0,0.0,0.0,0.0,0.0,0.0,0.0,0.0,0.0,0.0,0.0,0.0,0.0,0.0,0.0,0.0,0.0,0.0,0.0,0.0,0.0,0.0,0.0,0.0,0.0,0.0,0.0,0.0,0.0,0.0,0.0,0.0,0.0,0.0,0.0,0.0,0.0,0.0,0.0,0.0,0.0,0.0,0.0,0.0,0.0,0.0,0.0,0.0,0.0,0.0,0.0,0.0,0.0,0.0,0.0,0.0,0.0,0.0,0.0,0.0,0.0,0.0,0.0,0.0,0.0,0.0,0.0,0.0,0.0,0.0,0.0,0.0,0.0,0.0,0.0,0.0,0.0,0.0,0.0,0.0,0.0,0.0,0.0,0.0,0.0,0.0,0.0,0.0,0.0,0.0,0.0,0.0,0.0,0.0,0.0,0.0,0.0,0.0,0.0,0.0,0.0,0.0,0.0,0.0,0.0,0.0,0.0,0.0,0.0,0.0,0.0,0.0,0.0,0.0,0.0,0.0,0.0,0.0,0.0,0.0,0.0,0.0,0.0,0.0,0.0,0.0,0.0,0.0,0.0,0.0,0.0,0.0,0.0,0.0,0.0,0.0,0.0,0.0,0.0,0.0,0.0,0.0,0.0,0.0,0.0,0.0,0.0,0.0,0.0,0.0,0.0,0.0,0.0,0.0,0.0,0.0,0.0,0.0,0.0,0.0,0.0,0.0,0.0,0.0,0.0,0.0,0.0,0.0,0.0,0.0,0.0,0.0,0.0,0.0,0.0,0.0,0.0,0.0,0.0,0.0,0.0,0.0,0.0,0.0,0.0,0.0,0.0,0.0,0.0,0.0,0.0,0.0,0.0,0.0,0.0,0.0,0.0,0.0,0.0,0.0,0.0,0.0,0.0,0.0,0.0,0.0,0.0,0.0,0.0,0.0,0.0,0.0,0.0,0.0,0.0,0.0,0.0,0.0,0.0,0.0,0.0,0.0,0.0,0.0,0.0,0.0,0.0,0.0,0.0,0.0,0.0,0.0,0.0,0.0,0.0,0.0,0.0,0.0,0.0,0.0,0.0,0.0,0.0,0.0,0.0,0.0,0.0,0.0,0.0,0.0,0.0,0.0,0.0,0.0,0.0,0.0,0.0,0.0,0.0,0.0,0.0,0.0,0.0,0.0,0.0,0.0,0.0,0.0,0.0,0.0,0.0,0.0,0.0,0.0,0.0,0.0,0.0,0.0,0.0,0.0,0.0,0.0,0.0,0.0,0.0,0.0,0.0,0.0,0.0,0.0,0.0,0.0,0.0,0.0,0.0,0.0,0.0,0.0,0.0,0.0,0.0,0.0,0.0,0.0,0.0,0.0,0.0,0.0,0.0,0.0,0.0,0.0,0.0,0.0,0.0,0.0,0.0,0.0,0.0,0.0,0.0,0.0,0.0,0.0,0.0,0.0,0.0,0.0,0.0,0.0,0.0,0.0,0.0,0.0,0.0,0.0,0.0,0.0,0.0,0.0,0.0,0.0,0.0,0.0,0.0,0.0,0.0,0.0,0.0,0.0,0.0,0.0,0.0,0.0,0.0,0.0,0.0,0.0,0.0,0.0,-0.0273,0.0,0.0,0.0,0.0,0.0,0.0,0.0,0.0,0.0,0.0,0.0,0.0,0.0,0.0,0.0,0.0,0.0,0.0,0.0,0.0,0.0,0.0,0.0,0.0,0.0,0.0,0.0,0.0,0.0,0.0,0.0,0.0,0.0,0.0,0.0,0.0,0.0,0.0,0.929,0.964,0.9969,1.0261,0.9917,0.9762,0.9762,0.0,0.0,0.0,0.0,0.0,0.0,0.0,0.0,0.0,0.0,0.0,0.0,0.0,0.0,0.0,0.0,0.0,0.0,0.0,0.0,0.0,0.0,0.0,0.0,0.0,0.0,0.0,0.0,0.0,0.0,0.0,0.0,0.0,0.0,0.0,0.0,0.0,0.0,0.0,0.0,0.0,0.0,0.0,0.0,0.0,0.0,0.0,0.0,0.0,0.0,0.0,0.0,0.0,0.0,0.0,0.0,0.0,0.0,0.0,0.0,0.0,0.0,0.0,0.0,0.0,0.0,0.0,0.0,0.0,0.0,0.0,0.0393,0.0,0.0,0.0,0.0,0.0,0.0,0.0,0.0,0.0,0.0,0.0,0.0,0.0,0.0,0.0,0.0,0.0,0.0,0.0,0.0,0.0,0.0,0.0,0.8804,0.8804,0.8804,0.8804,0.8804,0.0,0.0,0.0,0.0,0.0,0.0,0.8804,0.8804,0.9087,0.9614,0.9951,1.051,1.1268,1.1209,1.0908,1.0345,0.9516,0.0,0.0,0.0,0.0,0.0,0.0,0.0,0.0,0.0,0.0,0.0,0.0,0.0,0.0,0.0,0.0,0.0,0.0,0.0,0.0,0.0,0.0,0.0,0.0,0.0,0.0,0.0,0.0,0.0,0.0,0.0,0.0,0.0,0.0,0.0,0.0,0.0,0.0,0.0,0.0,0.0,0.0,0.0,0.0,0.0,0.0,0.0,0.0,0.0,0.0,0.0,0.0,0.0,0.0,0.0,0.0,0.0,0.0,0.0,0.0,0.0,0.0,0.0,0.0,0.0,0.17,0.2186,0.2786,0.3378,0.269,0.2318,0.2195,0.0,0.0,0.0,0.0,0.0,0.0,0.0,0.0,0.0,0.0,0.0,0.0,0.0,0.0,0.0,0.0,0.0,0.0,0.0,0.0,0.0,0.0,0.8804,0.8804,0.8804,0.8804,0.8804,0.8804,0.0,0.0,0.0,0.0,0.0,0.8804,0.8804,0.8831,0.8929,1.0514,1.1931,1.3138,1.2902,1.2734,1.2591,1.118,1.0542,1.0491,0.0,0.0,0.0,0.0,0.0,0.0,0.0,0.0,0.0,0.0,0.0,0.0,0.0,0.0,0.0,0.0,0.0,0.0,0.0,0.0,0.0,0.0,0.0,0.0,0.0,0.0,0.0,0.0,0.0,0.0,0.0,0.0,0.0,0.0,0.0,0.0,0.0,0.0,0.0,0.0,0.0,0.9,0.7584,0.0,0.0,0.0,0.0,0.0,0.0,0.0,0.0,0.0,0.0,0.0,0.0,0.0,0.0,0.1893,0.2093,0.2499,0.3111,0.2694,0.3026,0.4039,0.3487,0.3484,0.3902,0.3907,0.0,0.2944,0.2985,0.0,0.0,0.0,0.0,0.0,0.0,0.0,0.0,0.0,0.0,0.0,0.0,0.0,0.0,0.0,0.0,0.0,0.0,0.0,0.0,0.0,0.9133,0.9361,0.9361,0.9718,0.9762,0.9387,0.9361,0.0,0.0,0.0,0.8804,0.8804,0.8804,0.9071,0.9651,1.0985,1.199,1.2728,1.3331,1.3604,1.3586,1.3205,1.2369,1.1162,1.0597,0.0,0.0,0.0,0.0,0.0,0.0,0.0,0.0,0.0,0.0,0.0,0.0,0.0,0.0,0.0,0.0,0.0,0.0,0.0,0.0,0.0,0.0,0.0,0.0,0.0,0.0,0.0,0.0,0.0,0.0,0.0,0.0,0.0,0.0,0.0,0.0,0.0,0.0,0.0,0.9313,0.8402,0.7777,0.7047,0.6312,0.0,0.0,0.0,0.0,0.0,0.0,0.0,0.0,0.0,0.2952,0.309,0.3319,0.3712,0.3798,0.4004,0.4336,0.406,0.4171,0.4589,0.4273,0.4193,0.4273,0.4341,0.4134,0.3723,0.3845,0.3439,0.2785,0.0,0.0,0.0,0.0,0.0,0.0,0.0,0.0,0.0,0.0,0.0,0.0,0.0,0.0,0.0,0.0,0.0,0.0,0.9061,0.9765,1.019,1.0072,1.0622,1.0639,0.9847,0.9788,0.951,0.8831,0.8804,0.8804,0.8804,0.8951,0.948,1.0407,1.1435,1.2105,1.2392,1.3529,1.4047,1.4005,1.4282,1.356,1.2122,1.1507,1.0878,1.0346,0.0,0.0,0.0,0.0,0.0,0.0,0.0,0.0,0.0,0.0,0.0,0.0,0.0,0.0,0.0,0.0,0.0,0.0,0.0,0.0,0.0,0.0,0.0,0.0,0.0,0.0,0.0,0.0,0.0,0.0,0.0,0.0,0.0,0.0,0.0,0.0,0.0,0.8864,0.8277,0.8002,0.7399,0.6752,0.0,0.0,0.0,0.0,0.0,0.0,0.375,0.3537,0.3587,0.3912,0.4451,0.4802,0.4887,0.4924,0.4941,0.4941,0.5013,0.4935,0.4748,0.4748,0.4646,0.4491,0.4491,0.4402,0.4281,0.4379,0.4102,0.3608,0.3608,0.3264,0.0,0.2565,0.2148,0.1703,0.0,0.0,0.0,0.0,0.0,0.0,0.0,0.0,0.0,0.0,0.0,0.9744,0.9744,1.0743,1.1245,1.0795,1.1187,1.0983,0.988,0.9788,0.951,0.8831,0.8804,0.8804,0.8804,0.9352,0.9978,1.0685,1.1992,1.2816,1.3155,1.3939,1.416,1.3884,1.3461,1.3553,1.3903,1.2853,1.2133,1.1591,1.0338,0.0,0.0,0.0,0.0,0.0,0.0,0.0,0.0,0.0,0.0,0.0,0.0,0.0,0.0,0.0,0.0,0.0,0.0,0.0,0.0,0.0,0.0,0.0,0.0,0.0,0.0,0.0,0.0,0.0,0.0,0.0,0.0,0.0,0.0,0.0,0.0,0.0,0.0,0.8864,0.8385,0.0,0.0,0.0,0.0,0.5771,0.5081,0.4718,0.4823,0.416,0.4102,0.4816,0.4877,0.4881,0.4887,0.5022,0.509,0.509,0.527,0.5221,0.4877,0.4877,0.4745,0.4491,0.4491,0.4487,0.4467,0.4284,0.4204,0.4154,0.4154,0.4261,0.4294,0.3594,0.3289,0.3093,0.0,0.0,0.0,0.0,0.0,0.0,0.0,0.0,0.8804,0.8804,0.9387,0.9922,1.0219,1.1606,1.2457,1.229,1.2832,1.2529,1.0983,1.0619,0.9747,0.815,0.8533,0.8891,0.9051,0.9479,1.0102,1.0892,1.1756,1.2445,1.2978,1.4021,1.4431,1.4375,1.453,1.4453,1.417,1.3081,1.2184,1.1455,1.1192,1.0965,0.0,0.0,0.0,0.0,0.0,0.0,0.0,0.0,0.0,0.0,0.0,0.0,0.0,0.0,0.0,0.0,0.0,0.0,0.0,0.0,0.0,0.0,0.0,0.0,0.0,0.0,0.0,0.0,0.0,0.0,0.0,0.0,0.0,0.0,0.0,0.0,0.0,0.9463,0.9395,0.0,0.0,0.8726,0.8316,0.6994,0.6713,0.638,0.5755,0.5047,0.4769,0.5022,0.5152,0.5235,0.5235,0.5155,0.51,0.51,0.5094,0.4969,0.4772,0.4772,0.466,0.4491,0.4491,0.4491,0.4487,0.4433,0.4385,0.4385,0.4385,0.4447,0.446,0.4211,0.379,0.3317,0.0,0.0,0.0,0.0,0.0,0.0,0.0,0.0,0.8883,0.9113,0.971,1.0402,1.1102,1.252,1.3449,1.3449,1.3836,1.337,1.1595,1.0822,0.9622,0.7771,0.8269,0.8839,0.9357,0.9967,1.0608,1.1289,1.2084,1.2619,1.2945,1.3856,1.4216,1.4148,1.45,1.4348,1.3739,1.3164,1.2551,1.2005,1.1826,1.1602,1.1353,0.0,0.0,0.0,0.0,0.0,0.0,0.0,0.0,0.0,0.0,0.0,0.0,0.0,0.0,0.0,0.0,0.0,0.0,0.0,0.0,0.0,0.0,0.0,0.0,0.0,0.0,0.0,0.0,0.0,0.0,0.0,0.0,0.0,0.0,0.0,1.0376,1.0056,1.0234,1.0181,0.9612,0.9977,0.9706,0.8329,0.8329,0.8004,0.7107,0.6301,0.5822,0.577,0.5582,0.5446,0.5395,0.526,0.5209,0.5206,0.5029,0.4911,0.4765,0.4714,0.4634,0.4491,0.4491,0.4491,0.4491,0.4491,0.4491,0.4491,0.4491,0.4491,0.4491,0.4491,0.4184,0.3735,0.0,0.0,0.0,0.0,0.0,0.0,0.0,0.8804,0.9035,0.971,1.0397,1.126,1.2392,1.3474,1.4143,1.4133,1.4097,1.3362,1.1595,1.0376,0.9108,0.7809,0.8037,0.8685,0.9719,1.0855,1.1597,1.1946,1.3034,1.346,1.324,1.3493,1.348,1.324,1.3247,1.3073,1.2829,1.3165,1.3362,1.3307,1.2214,1.2049,1.2418,0.0,0.0,0.0,0.0,0.0,0.0,0.0,0.0,0.0,0.0,0.0,0.0,0.0,0.0,0.0,0.0,0.0,0.0,0.0,0.0,0.0,0.0,0.0,0.0,0.0,0.0,0.0,0.0,0.0,0.0,0.0,0.0,0.0,1.095,1.0422,1.0291,1.0586,1.0888,1.0955,1.066,1.064,1.04,0.9762,0.974,0.9468,0.8824,0.7889,0.7276,0.7163,0.6211,0.5624,0.5468,0.5425,0.5418,0.5385,0.5192,0.5012,0.4877,0.4755,0.4631,0.4491,0.4491,0.4491,0.4491,0.4491,0.4491,0.4491,0.4491,0.4491,0.4491,0.4491,0.4491,0.4377,0.0,0.0,0.0,0.0,0.0,0.0,0.0,0.8804,0.9035,0.971,1.0689,1.1728,1.2833,1.4193,1.4941,1.4629,1.4147,1.3195,1.1585,1.0415,0.9465,0.8832,0.8594,0.9166,1.0615,1.1363,1.2104,1.2839,1.334,1.3673,1.3854,1.4142,1.4122,1.3854,1.4068,1.3874,1.3394,1.3466,1.3483,1.3452,1.328,1.2697,1.194,0.0,0.0,0.0,0.0,0.0,0.0,0.0,0.0,0.0,0.0,0.0,0.0,0.0,0.0,0.0,0.0,0.0,0.0,0.0,0.0,0.0,0.0,0.0,0.0,0.0,0.0,0.0,0.0,0.0,0.0,0.0,0.0,1.3125,1.2092,1.1878,1.1678,1.1243,1.1637,1.183,1.1571,1.1739,1.1368,1.0278,1.0313,0.9953,0.9078,0.8753,0.851,0.8329,0.7976,0.7402,0.6637,0.631,0.5798,0.5189,0.4935,0.4792,0.4748,0.4624,0.4532,0.4491,0.4491,0.4491,0.4491,0.4491,0.4491,0.4491,0.4491,0.4491,0.4491,0.4491,0.4491,0.4391,0.0,0.0,0.0,0.0,0.0,0.0,0.0,0.8804,0.9133,1.009,1.0797,1.1722,1.3115,1.4063,1.459,1.4521,1.3736,1.277,1.1577,1.0006,0.9064,0.8947,0.8631,0.9125,1.0573,1.1349,1.1817,1.2028,1.2799,1.3333,1.3648,1.3806,1.407,1.4499,1.4502,1.4402,1.4182,1.3935,1.3811,1.3757,1.3839,1.339,1.2697,1.2811,1.3251,1.381,1.381,1.4538,1.544,1.5125,0.0,0.0,0.0,0.0,0.0,0.0,0.0,0.0,0.0,0.0,0.0,0.0,0.0,0.0,0.0,0.0,0.0,0.0,0.0,0.0,0.0,0.0,0.0,0.0,1.4784,1.4604,1.4435,1.39,1.3351,1.2892,1.3045,1.2987,1.2506,1.2351,1.2057,1.1446,1.1339,1.1052,1.0462,1.0053,0.9535,0.8944,0.8403,0.7597,0.6478,0.6207,0.574,0.5096,0.4897,0.4752,0.4684,0.4559,0.4491,0.0,0.4491,0.4491,0.4491,0.4491,0.4491,0.0,0.0,0.0,0.0,0.0,0.4453,0.4314,0.0,0.0,0.0,0.0,0.0,0.0,0.0,0.8804,0.929,1.0618,1.0854,1.154,1.3304,1.3468,1.3572,1.39,1.2917,1.1991,1.1286,0.9425,0.8528,0.8848,0.8717,0.9198,1.0462,1.121,1.1285,1.0691,1.1993,1.2752,1.3012,1.3184,1.3876,1.4995,1.4723,1.475,1.4975,1.4409,1.4148,1.4099,1.4034,1.4007,1.3995,1.3661,1.4305,1.5332,1.529,1.552,1.5843,1.573,0.0,0.0,0.0,0.0,0.0,0.0,0.0,0.0,0.0,0.0,0.0,0.0,0.0,0.0,0.0,0.0,0.0,0.0,0.0,0.0,0.0,0.0,0.0,0.0,1.622,1.6524,1.7378,1.6342,1.5303,1.485,1.45,1.4004,1.3265,1.2719,1.2498,1.2764,1.2509,1.2305,1.2305,0.0,0.0,0.0,0.0,0.7398,0.6129,0.5973,0.5709,0.5279,0.504,0.487,0.4735,0.4593,0.4515,0.4515,0.4498,0.4491,0.4491,0.4491,0.4491,0.4491,0.4491,0.4491,0.4491,0.4491,0.4382,0.0,0.0,0.0,0.0,0.0,0.0,0.0,0.0,0.8804,0.929,1.0618,1.1129,1.1922,1.3333,1.3301,1.3066,1.2827,1.1629,1.0524,0.9694,0.9509,0.9754,1.0509,1.0934,1.1715,1.2908,1.2307,1.2138,1.2507,1.2778,1.2966,1.3018,1.431,1.4949,1.5015,1.515,1.513,1.5001,1.4888,1.4522,1.411,1.4103,1.4143,1.4264,1.4407,1.5155,1.6123,1.5748,1.6631,1.7885,1.7066,1.7484,1.8188,1.7316,1.7145,0.0,0.0,0.0,0.0,0.0,0.0,0.0,0.0,0.0,0.0,0.0,0.0,0.0,0.0,0.0,0.0,0.0,0.0,0.0,1.7005,1.7663,1.8389,1.9245,1.9142,1.7894,1.515,1.4169,1.3601,1.3227,1.3106,1.2953,1.2797,1.2509,1.2305,1.2305,1.2114,0.0,1.1697,1.1287,1.0479,0.9229,0.8313,0.7354,0.6371,0.0,0.0,0.5005,0.4769,0.4646,0.4668,0.4545,0.4491,0.4491,0.4491,0.4491,0.4491,0.4491,0.4491,0.4491,0.4491,0.447,0.4453,0.0,0.0,0.0,0.0,0.0,0.0,0.0,0.8804,0.9159,1.0167,1.0488,1.1042,1.2028,1.2017,1.1878,1.1662,1.0737,0.9733,0.8775,0.8972,0.9755,1.1136,1.0394,1.0881,1.2893,1.1472,1.0925,1.1393,1.1992,1.2335,1.2465,1.3254,1.4296,1.5351,1.4684,1.4777,1.5378,1.5129,1.4841,1.4502,1.4202,1.4515,1.5129,1.4934,1.5653,1.6759,1.6519,1.6994,1.7663,1.7551,1.7736,1.802,1.7836,1.7624,1.7222,0.0,0.0,0.0,0.0,0.0,0.0,0.0,0.0,0.0,0.0,0.0,0.0,0.0,0.0,1.5166,0.0,0.0,1.7324,1.8193,1.8867,1.9465,2.0146,1.9583,1.8472,1.6765,1.5623,1.4707,1.3981,1.319,1.2819,1.3005,1.273,1.2563,1.2563,1.2563,1.2227,1.1583,1.1407,1.0707,0.937,0.879,0.8062,0.7181,0.6669,0.6282,0.6074,0.5656,0.5318,0.5072,0.4745,0.4559,0.4515,0.4869,0.5003,0.503,0.5418,0.5117,0.4491,0.4491,0.4491,0.4491,0.0,0.0,0.0,0.0,0.0,0.0,0.0,0.8804,0.9035,0.971,0.9788,1.0064,1.0745,1.0686,1.0534,1.0415,0.9917,0.9298,0.853,0.8813,0.9771,1.1481,0.9911,1.0201,1.2776,1.0724,0.9963,1.0576,1.1001,1.1571,1.2285,1.2042,1.3307,1.5724,1.4186,1.4352,1.5751,1.5331,1.5149,1.5048,1.4469,1.5022,1.6024,1.5324,1.5981,1.7223,1.7048,1.6896,1.6804,1.722,1.7235,1.7178,1.77,1.7627,1.7166,1.6312,1.618,0.0,0.0,0.0,0.0,0.0,0.0,0.0,0.0,1.5639,1.5577,1.6216,1.6487,1.667,1.6999,1.7769,1.8603,1.9297,1.9766,2.0137,2.0439,1.9391,1.851,1.8273,1.6935,1.5588,1.446,1.3147,1.2619,1.3173,1.2958,1.2784,1.2784,1.2784,1.2258,1.1136,1.1087,1.0493,0.926,0.8996,0.8636,0.8096,0.7861,0.7593,0.7261,0.6691,0.6193,0.5819,0.5292,0.4858,0.4543,0.5218,0.5515,0.5569,0.6145,0.5769,0.4901,0.4732,0.4704,0.468,0.0,0.0,0.0,0.0,0.0,0.0,0.0,0.0,0.9035,0.971,0.9788,1.0064,1.0745,1.0269,0.9658,0.9087,0.8956,0.9092,0.9513,1.0058,1.0916,1.2158,1.2454,1.3261,1.4652,1.2211,1.1708,1.3448,1.1225,1.138,1.3632,1.2479,1.3307,1.573,1.4429,1.4578,1.5778,1.5758,1.5585,1.5317,1.5042,1.551,1.6359,1.5616,1.6193,1.729,1.6492,1.6363,1.6423,1.5754,1.6181,1.6954,1.6681,1.6836,1.6847,1.5337,1.5277,1.5432,1.4236,1.4721,1.5588,1.5521,1.5681,1.6244,0.0,1.7251,1.6943,1.841,1.8496,1.8325,1.8373,1.9085,1.9727,1.9824,2.0215,2.0371,2.0029,1.9828,1.9298,1.8176,1.6132,1.4421,1.3437,1.2976,1.2878,1.3186,1.2958,1.2784,1.2784,1.2784,1.2574,1.2157,1.215,1.1926,1.1533,1.0464,0.977,0.9462,0.8441,0.7928,0.7872,0.74,0.7141,0.7076,0.6584,0.5681,0.4543,0.5218,0.5515,0.5515,0.5597,0.5928,0.6285,0.5628,0.5378,0.5296,0.0,0.0,0.0,0.0,0.0,0.0,0.0,0.0,0.0,0.9185,0.9211,0.9335,0.9614,0.9387,0.8916,0.8235,0.8566,0.8861,0.9047,0.9439,1.0463,1.2215,1.1757,1.256,1.4943,1.2607,1.2183,1.3926,1.2813,1.2425,1.2716,1.2139,1.2915,1.4657,1.3301,1.3884,1.5771,1.5651,1.5411,1.5149,1.5271,1.5677,1.616,1.5743,1.6014,1.6564,1.5908,1.5445,0.0,1.519,1.5545,1.6056,1.6725,1.6585,1.6049,1.5365,1.513,1.4971,1.4468,1.4667,1.5061,1.5264,1.5788,1.6479,1.7225,1.7629,1.8007,1.8684,1.9318,1.9609,1.9111,1.9717,2.0215,0.0,2.0283,2.0449,1.9971,1.9446,1.8556,1.6964,1.5531,1.4694,1.4753,1.4163,1.4018,1.4547,1.3981,1.3606,1.3606,1.3082,1.265,1.2311,1.2305,1.2078,1.1617,1.1104,1.0651,1.0212,0.9542,0.9142,0.8956,0.8248,0.7704,0.7264,0.6802,0.6385,0.6043,0.6579,0.6767,0.6821,0.7251,0.761,0.775,0.6583,0.6145,0.6095,0.0,0.0,0.0,0.0,0.0,0.0,0.0,0.0,0.0,0.0,0.8804,0.8804,0.8804,0.8804,0.8593,0.8049,0.848,0.8802,0.8767,0.9041,1.0035,1.1855,1.1179,1.1957,1.4576,1.286,1.2706,1.4302,1.3651,1.3204,1.2963,1.1896,1.2474,1.4358,1.2598,1.3247,1.5691,1.5398,1.5104,1.4878,1.4937,1.5232,1.563,1.5172,1.5214,1.5488,1.5166,1.4562,1.3988,1.4409,1.4645,1.4933,1.6003,1.5799,1.5187,1.5054,1.4637,1.4266,1.4467,1.4715,1.5011,1.5498,1.6397,1.7214,1.7466,1.8257,1.8987,1.9104,1.9814,2.0166,1.9424,1.9832,2.0145,1.9795,2.0107,2.0234,1.9805,1.8968,1.7812,1.6159,1.5243,1.4992,1.567,1.4786,1.4488,1.5376,1.4541,1.4074,1.4201,1.331,1.265,1.2311,1.2305,1.2058,1.155,1.147,1.1176,1.0707,1.0381,1.0087,0.98,0.908,0.8323,0.7534,0.7372,0.7175,0.701,0.7497,0.7696,0.775,0.8289,0.8619,0.8672,0.7589,0.7074,0.6885,0.0,0.0,0.0,0.0,0.0,0.0,0.0,0.0,0.0,0.0,0.0,0.0,0.0,0.8804,0.8778,0.8778,0.8778,0.8904,0.9176,0.9482,1.0077,1.0995,1.1799,1.2682,1.3626,1.3179,1.3759,1.5358,1.3093,1.3253,1.5588,1.1794,1.2086,1.5622,1.28,1.2982,1.5391,1.5149,1.4803,1.4482,1.3895,1.4122,1.4727,1.3663,1.3651,1.4163,1.4143,1.387,1.3467,1.3081,1.3243,1.3599,1.3813,1.4152,1.4356,1.3973,1.343,1.3131,1.3903,1.4881,1.587,1.6744,1.7874,1.8965,1.9401,1.9683,2.0,2.0458,2.0195,1.9805,1.9365,1.9307,1.9316,1.9307,1.9658,1.9785,1.9365,1.8564,1.7549,1.625,1.5313,1.4962,0.0,1.4109,1.3728,1.492,1.4078,1.3726,1.4186,1.331,1.265,1.2311,1.2305,1.2158,1.1893,1.157,1.1276,1.0975,1.072,1.0419,1.0094,0.9784,0.9119,0.8207,0.8837,0.8178,0.668,0.7402,0.7696,0.7696,0.7723,0.8182,0.8804,0.8752,0.8289,0.7563,0.0,0.0,0.0,0.0,0.0,0.0,0.0,0.0,0.0,0.0,0.0,0.0,0.0,0.0,0.0,0.0,0.8804,0.8904,0.9191,0.9519,1.0017,1.0707,1.1356,1.2044,1.2739,1.2983,1.351,1.4193,1.3636,1.3363,1.3306,1.133,1.146,1.3256,1.1649,1.2242,1.4509,1.4208,1.3921,1.3662,1.3937,1.4115,1.4137,1.3399,1.3262,1.3374,0.0,1.2799,1.3066,1.2954,1.2993,1.318,1.3641,1.3632,1.338,1.324,1.3437,1.3916,1.4881,1.6319,1.776,1.8534,1.951,2.0298,2.0252,2.0327,2.0263,1.9805,1.9365,1.8734,1.774,1.7832,1.8115,1.8389,1.9033,1.9443,1.9307,1.8789,1.7701,1.5859,1.5381,0.0,0.0,0.0,0.0,1.6486,1.566,1.5407,1.6158,1.5041,1.4167,1.3703,1.3389,1.2956,1.244,1.1751,1.1436,1.1534,1.0674,1.0007,0.9511,0.9639,0.9405,0.8871,0.91,0.8875,0.8321,0.8397,0.8427,0.8427,0.8427,0.8593,0.8804,0.8804,0.8646,0.8401,0.0,0.0,0.0,0.0,0.0,0.0,0.0,0.0,0.0,0.0,0.0,0.0,0.0,0.0,0.0,0.0,0.0,0.8858,0.9044,0.9265,0.9586,1.0067,1.0648,1.1182,1.167,1.2105,1.2428,1.2609,1.2894,1.2619,1.1741,1.0635,1.0717,1.1741,1.0499,1.1075,1.2942,1.3121,1.2906,1.2462,1.3096,1.3097,1.2703,1.2267,1.218,0.0,1.1641,1.1758,1.223,1.2725,1.2905,1.2978,1.3358,1.3214,1.2964,1.3242,1.3926,1.4841,1.6175,1.7733,1.9184,1.9964,2.0646,2.0986,2.0653,2.0243,1.9629,1.8815,1.8008,1.7155,1.619,1.6269,1.6592,1.7012,1.7676,1.8277,1.8599,1.8096,1.7256,1.5995,1.5576,1.5254,0.0,0.0,0.0,1.6877,1.616,1.6073,1.6954,1.5985,1.5243,1.4924,1.4603,1.4131,1.3421,1.2724,1.2331,1.2228,1.1234,1.0522,1.0127,1.0084,0.9856,0.9517,0.9411,0.9311,0.9191,0.8898,0.8804,0.8804,0.8804,0.8804,0.8804,0.8804,0.8804,0.8804,0.0,0.0,0.0,0.0,0.0,0.0,0.0,0.0,0.0,0.0,0.0,0.0,0.0,0.0,0.0,0.0,0.0,0.0,0.8857,0.8804,0.8904,0.9178,0.9737,1.02,1.0519,1.0641,1.0723,1.0723,1.0955,1.1046,1.1046,0.9782,0.9862,1.0997,0.9426,0.9434,1.0765,1.1881,1.1798,1.0948,1.1392,1.1189,1.0648,1.0384,1.0506,1.0788,1.0762,1.0788,1.1074,1.2387,1.2866,1.2935,1.2964,1.2983,1.3169,1.3958,1.4825,1.5918,1.7617,1.9023,2.0225,2.1044,2.1229,2.1073,2.0644,1.9512,1.8295,1.7461,1.625,1.5215,1.4795,1.4717,1.4883,1.5371,1.584,1.6447,1.7357,1.675,1.6359,0.0,0.0,0.0,0.0,0.0,0.0,1.6153,0.0,1.5824,1.6689,1.6258,1.5981,1.59,1.5883,1.5524,1.4755,1.4347,1.3766,1.3,1.2291,1.1932,1.1812,1.1122,1.0602,1.0194,0.9917,0.9626,0.9295,0.9031,0.8883,0.8857,0.8857,0.8857,0.8857,0.8804,0.8831,0.8857,0.0,0.0,0.0,0.0,0.0,0.0,0.0,0.0,0.0,0.0,0.0,0.0,0.0,0.0,0.0,0.0,0.0,0.0,0.9536,0.9087,0.8838,0.8891,0.9237,0.9471,0.9544,0.95,0.9454,0.9454,0.9223,0.9108,0.9075,0.803,0.8097,0.9069,0.7904,0.798,0.9081,0.9905,0.9976,0.9581,1.0553,1.0715,1.0369,1.0041,1.0288,1.0737,1.0236,1.0686,1.1591,1.1947,1.265,1.3408,1.3695,1.4043,1.4463,1.5351,1.6416,1.7588,1.8662,2.0146,2.1514,2.2051,2.1668,2.0995,2.0254,1.8848,1.7363,1.6162,1.5108,1.4309,1.3916,1.3828,1.4287,1.5703,1.6269,0.0,1.812,1.8091,0.0,1.6794,0.0,1.667,1.6144,1.6367,0.0,0.0,1.7234,1.7695,1.8574,1.8491,1.81,1.7391,1.7033,1.6431,1.5602,1.5006,1.412,1.3009,1.2811,1.2619,1.2406,1.2397,1.2108,1.1578,1.1418,1.1174,1.088,1.0462,0.9987,0.9536,0.9536,0.9536,0.9491,0.8982,0.9106,0.9484,0.0,0.0,0.0,0.0,0.0,0.0,0.0,0.0,0.0,0.0,0.0,0.0,0.0,0.0,0.0,0.0,0.0,0.0,0.0,0.9614,0.9237,0.9237,0.9092,0.9024,0.9024,0.8626,0.8277,0.7957,0.7712,0.744,0.71,0.6562,0.6592,0.7105,0.6531,0.6592,0.722,0.8563,0.8868,0.0,0.0,1.0046,0.9637,0.9432,0.9788,1.0261,0.9614,1.0218,1.1469,1.2152,1.3135,1.4141,1.4533,1.5098,1.585,1.6885,1.7978,1.9082,2.0137,2.1406,2.2451,2.25,2.1719,2.0664,1.96,1.7881,1.6201,1.505,1.4143,1.3516,1.3271,1.3232,1.3613,1.4784,1.5312,0.0,1.7324,1.7642,1.7711,0.0,1.7627,0.0,1.7227,1.7256,1.7393,0.0,1.7881,1.8301,1.8965,1.918,1.8971,1.8226,1.7956,1.7313,1.6272,1.5879,1.5253,1.4344,1.3975,1.3729,1.3605,1.3365,1.2991,1.2477,0.0,1.2119,1.195,1.1354,1.0905,1.0541,1.0541,1.0541,1.0512,1.0329,1.0497,1.0734,0.0,0.0,0.0,0.0,0.0,0.0,0.0,0.0,0.0,0.0,0.0,0.0,0.0,0.0,0.0,0.0,0.0,0.0,0.0,0.0,0.9935,0.9935,0.9283,0.8929,0.8929,0.8123,0.7402,0.675,0.6642,0.6231,0.5515,0.5515,0.546,0.5378,0.5378,0.5378,0.5515,0.7538,0.8092,0.7691,0.9086,0.9309,0.8811,0.0,0.9335,0.9891,0.9491,1.002,1.1184,1.2708,1.3986,1.4961,1.5498,1.6248,1.7204,1.8481,1.9426,2.0361,2.1631,2.25,2.2925,2.2607,2.1406,1.999,1.8715,1.6765,1.4972,1.4114,1.3389,1.2905,1.2905,1.2905,1.3057,1.3594,1.3958,1.4669,1.6075,1.6572,1.7213,1.8373,1.8198,1.8154,1.8481,1.8188,1.8037,1.8086,1.8096,1.8217,1.8588,1.9053,1.9062,1.8539,1.8461,1.7847,1.6619,1.6668,1.6514,1.6085,1.5332,1.5012,1.5038,1.4282,1.3708,1.3287,0.0,0.0,1.2828,1.2131,1.1779,1.1699,1.1699,1.1699,1.1741,1.1997,1.215,1.2155,0.0,0.0,0.0,0.0,0.0,0.0,0.0,0.0,0.0,0.0,1.1509,1.0788,0.0,0.0,0.0,0.0,0.0,0.0,0.0,0.0,0.0,1.0644,0.9987,0.964,0.964,0.8355,0.7643,0.7503,0.6885,0.6231,0.5515,0.5515,0.5191,0.468,0.468,0.468,0.4787,0.6308,0.6907,0.6912,0.8388,0.891,0.8857,0.9413,0.0,0.0,1.1801,1.194,1.1865,1.3408,1.4538,1.5508,1.668,1.7627,1.852,1.9853,2.0596,2.1171,2.2148,2.251,2.2607,2.2529,2.0723,1.8695,1.7812,1.5918,1.4085,1.3271,1.3013,1.2905,1.2905,1.2905,1.3277,1.4375,1.4629,1.5254,1.6956,1.7217,1.748,0.0,1.8057,1.8037,1.8115,1.8057,0.0,0.0,0.0,0.0,1.8598,1.9053,1.8926,1.8144,1.7783,1.7148,1.6212,1.6512,1.6514,1.6095,1.5938,1.5888,1.5903,1.5758,1.5407,1.4972,0.0,0.0,1.4373,1.3868,1.331,1.2815,1.2815,1.2815,1.277,1.2291,1.2455,1.2831,0.0,0.0,0.0,0.0,0.0,0.0,0.0,1.2608,1.251,1.2856,1.2304,1.1891,1.1891,1.2172,1.2378,0.0,0.0,0.0,0.0,0.0,0.0,1.1316,1.0686,1.0167,0.9814,0.9131,0.8428,0.7696,0.0,0.6799,0.6064,0.6064,0.5905,0.5582,0.5582,0.5582,0.566,0.6723,0.7182,0.7262,0.8374,0.8804,0.8883,0.9536,0.0,0.0,1.2387,1.2427,1.204,1.3592,1.4533,1.5352,1.6894,1.8115,1.918,2.0292,2.0879,2.1385,2.2275,2.251,2.2402,2.1921,2.003,1.8027,1.6975,1.5195,1.3633,1.3032,1.2905,1.2905,1.2905,1.2905,1.3179,1.3984,1.4307,1.4893,1.6182,1.6758,1.7285,1.793,1.8008,1.8096,1.8286,1.81,0.0,0.0,0.0,0.0,1.8276,1.8052,1.7773,1.733,1.7148,1.6728,1.6105,1.6279,1.6279,1.6095,1.6095,1.6212,1.6406,1.6406,1.6172,1.5732,0.0,0.0,1.5078,1.4648,1.4271,1.3986,1.3986,1.3986,1.3959,1.3856,1.4015,1.4223,0.0,0.0,0.0,0.0,0.0,0.0,0.0,1.2905,1.2905,1.2905,1.2905,1.2954,1.3079,1.2968,1.2954,0.0,0.0,0.0,0.0,0.0,0.0,0.0,0.0,0.0,1.0244,0.0,0.0,0.8143,0.8296,0.0,0.0,0.0,0.0,0.0,0.6664,0.6588,0.6642,0.7402,0.7771,0.0,0.0,0.9113,0.0,0.0,0.0,0.0,0.0,1.2535,1.224,1.3522,1.426,1.4902,1.6367,1.7807,1.9043,1.9902,2.0596,2.1239,2.2139,2.2373,2.2168,2.1309,1.9468,1.7566,1.6262,1.47,1.3447,1.2998,1.2905,1.2905,1.2905,1.2905,1.3067,1.3605,1.3857,1.4324,1.5318,1.6096,1.6843,1.7646,1.79,0.0,1.8701,1.8468,0.0,0.0,0.0,0.0,0.0,1.7061,1.656,1.656,1.656,1.6377,1.5958,1.6046,1.6095,1.6095,1.6193,1.6387,1.6707,1.6794,1.6621,1.6232,0.0,0.0,0.0,1.5098,1.4922,1.4922,1.4922,1.4922,1.4961,1.5293,1.541,1.5361,0.0,0.0,0.0,0.0,0.0,0.0,0.0,1.2905,1.2905,1.2905,1.2905,1.3104,1.3661,1.3238,1.3128,0.0,0.0,0.0,0.0,0.0,0.0,0.0,0.0,0.0,0.0,0.0,0.0,0.9607,1.021,0.0,0.0,0.0,0.0,0.0,0.0,0.6588,0.6642,0.7402,0.0,0.0,0.0,0.0,0.0,0.0,0.0,0.0,0.0,1.2856,1.2876,1.3383,1.3821,1.427,1.4853,1.6222,1.7725,1.8564,1.9678,2.086,2.1699,2.1943,2.1728,2.0889,1.9149,1.7267,1.5792,1.4599,1.3604,1.3027,1.2905,1.2905,1.2905,1.2905,1.3194,1.4155,1.3897,1.404,1.5468,1.5957,1.6339,1.6765,0.0,0.0,1.9162,1.9198,0.0,0.0,0.0,0.0,0.0,1.6633,1.6153,1.6153,1.6153,1.5938,1.5478,1.5899,1.6095,1.6095,1.6475,1.6658,1.6716,1.7139,1.708,1.6619,0.0,0.0,0.0,1.5537,1.5352,1.5352,1.5352,1.5352,1.5361,1.54,1.541,1.5371,0.0,0.0,0.0,0.0,0.0,0.0,1.2905,1.2905,1.2905,1.2905,1.3214,1.3529,1.3768,1.3897,1.4084,1.4306,0.0,0.0,0.0,0.0,0.0,0.0,0.0,0.0,0.0,0.0,1.1065,1.0389,1.0669,0.0,0.0,0.0,0.0,0.0,0.0,0.0,0.9148,0.9448,0.0,0.0,0.0,0.0,0.0,0.0,0.0,0.0,0.0,0.0,1.2925,1.3076,1.3242,1.3408,1.361,1.4287,1.5371,1.698,1.8794,2.0487,2.1349,2.2164,2.2526,2.1597,1.9693,1.7712,1.6513,1.5246,1.426,1.4025,1.3695,1.3552,1.3931,1.3705,1.3675,1.4462,1.4376,1.4516,1.5344,1.5802,1.6248,1.6809,1.7854,0.0,0.0,0.0,0.0,0.0,0.0,0.0,0.0,1.7334,1.7002,1.7002,1.7002,1.6906,1.6715,1.6906,1.6783,1.634,1.6798,1.6898,1.6707,1.6882,1.7041,1.708,0.0,0.0,0.0,1.5703,1.5566,1.5831,1.5831,1.5644,1.5439,1.5703,1.5635,1.541,0.0,0.0,0.0,0.0,0.0,1.3104,1.2929,1.3065,1.3176,1.3176,1.3529,1.3933,1.4295,1.471,1.5039,1.5231,1.5062,0.0,0.0,0.0,0.0,0.0,0.0,0.0,0.0,0.0,1.1978,1.1091,1.13,1.1416,0.0,0.0,0.0,0.0,0.0,0.0,0.0,0.0,0.0,0.0,0.0,0.0,0.0,0.0,0.0,0.0,0.0,0.0,0.0,0.0,0.0,1.3176,1.3176,1.3474,1.418,1.5759,1.7727,1.9607,2.0581,2.1536,2.209,2.1185,1.9507,1.776,1.6614,1.5635,1.4858,1.4514,1.4236,1.4143,1.4376,1.4236,1.426,1.488,1.4812,1.4867,1.5311,1.5726,1.6238,1.6875,0.0,0.0,0.0,0.0,0.0,0.0,0.0,0.0,0.0,0.0,1.8058,1.7605,1.7605,1.7605,1.7605,1.7605,1.733,1.6821,1.7301,1.7483,1.742,1.7521,1.7858,0.0,0.0,0.0,0.0,1.6684,1.6611,1.7011,1.6588,1.6307,1.6168,1.6117,1.5899,1.5586,0.0,0.0,0.0,0.0,0.0,0.0,1.2992,1.3396,1.3802,1.3802,1.3792,1.4249,1.5454,1.5588,1.582,1.6423,1.5942,0.0,0.0,0.0,0.0,0.0,0.0,0.0,0.0,0.0,1.313,1.1789,1.2535,1.2842,1.2764,1.2101,1.215,1.2715,0.0,0.0,0.0,0.0,0.0,0.0,0.0,0.0,0.0,0.0,0.0,0.0,0.0,0.0,0.0,0.0,0.0,0.0,0.0,1.419,1.4748,1.5035,1.6394,1.807,1.9141,1.9704,1.9824,1.8934,1.8115,1.7122,1.5661,1.5464,1.5241,1.405,1.4283,1.4514,1.3909,1.4283,1.4903,1.5499,1.5085,1.4903,1.5499,1.5827,1.6203,0.0,0.0,1.887,0.0,0.0,0.0,0.0,0.0,0.0,0.0,0.0,1.9123,1.766,1.7605,1.7605,1.7605,1.7605,1.7605,1.7578,1.8052,1.8572,1.9093,1.9482,0.0,0.0,0.0,0.0,0.0,1.8845,1.8791,1.9137,1.7736,1.7525,1.783,1.6547,1.6095,1.6026,0.0,0.0,0.0,0.0,0.0,0.0,0.0,1.4294,1.4422,1.4422,1.4778,1.5186,1.5565,1.5974,1.6281,1.6466,1.6337,0.0,0.0,0.0,0.0,0.0,0.0,0.0,0.0,0.0,1.4202,1.3784,1.4027,1.412,1.4099,1.3878,1.3677,1.3464,1.3048,0.0,0.0,0.0,0.0,0.0,0.0,0.0,0.0,0.0,0.0,0.0,0.0,0.0,0.0,0.0,0.0,0.0,0.0,0.0,0.0,1.5301,1.6676,1.815,1.8767,1.9686,2.0322,1.9627,1.871,1.7751,1.6926,1.6477,1.6107,1.571,1.5466,1.5365,1.5599,1.5454,1.5499,1.6129,1.6051,1.5998,1.6194,1.663,0.0,1.7929,1.925,0.0,0.0,0.0,0.0,0.0,0.0,0.0,0.0,0.0,1.9592,1.9123,1.9097,1.9097,1.9097,1.9097,1.8847,1.8367,1.8931,1.916,1.9123,1.934,0.0,0.0,0.0,0.0,0.0,1.9422,1.9298,1.9666,1.9235,1.8978,1.8876,1.8738,1.83,1.7727,0.0,0.0,0.0,0.0,0.0,0.0,0.0,1.4903,1.5039,1.5039,1.5365,1.5698,1.5908,1.6259,1.65,1.65,1.65,0.0,0.0,0.0,0.0,0.0,0.0,0.0,1.561,1.5231,1.4926,1.4698,1.4698,1.4812,1.5028,1.4812,1.4629,1.448,1.4226,1.4143,0.0,0.0,0.0,0.0,0.0,0.0,1.4526,0.0,0.0,0.0,0.0,0.0,0.0,0.0,0.0,0.0,0.0,0.0,0.0,0.0,1.6669,1.7605,1.8066,1.8833,1.9359,1.8982,1.8229,1.7476,1.7137,1.6773,1.6445,1.6216,1.6051,1.5974,1.6139,1.603,1.6051,1.6445,1.65,1.65,1.65,1.7024,0.0,1.8635,0.0,0.0,0.0,0.0,0.0,0.0,0.0,0.0,0.0,0.0,1.9597,1.9798,1.9798,1.9798,1.9798,1.9798,1.9553,1.9123,1.9721,2.0005,2.0006,0.0,0.0,0.0,0.0,0.0,0.0,2.0741,2.0694,2.1038,2.0534,2.0293,2.0243,1.9991,1.952,1.901,0.0,0.0,0.0,0.0,0.0,0.0,0.0,1.5298,1.5654,1.5654,1.5654,1.5886,1.6488,1.6552,1.6552,1.6552,0.0,0.0,0.0,0.0,0.0,0.0,0.0,0.0,1.5676,1.5654,1.5387,1.4846,1.4846,1.5096,1.5654,1.5085,1.5096,1.5588,1.5017,1.4744,1.4675,1.426,1.4328,1.4664,1.4249,1.4658,0.0,0.0,0.0,0.0,0.0,0.0,0.0,0.0,0.0,0.0,0.0,0.0,0.0,0.0,0.0,0.0,0.0,1.7348,1.7348,1.7348,1.6911,1.65,1.65,1.65,0.0,1.5776,1.6117,1.6324,1.5776,1.6117,1.65,1.65,1.6538,1.6538,1.65,1.7087,0.0,0.0,0.0,0.0,0.0,0.0,0.0,0.0,0.0,0.0,0.0,0.0,0.0,1.9736,1.9786,1.9798,1.9798,1.9798,1.9823,1.9874,2.0478,2.1043,2.1568,0.0,0.0,0.0,0.0,0.0,0.0,2.2556,2.2644,2.2955,2.1662,2.1498,2.1818,2.0603,2.009,2.003,0.0,0.0,0.0,0.0,0.0,0.0,0.0,0.0,0.0,0.0,1.6281,1.6497,1.7042,1.7118,1.7118,0.0,0.0,0.0,0.0,0.0,0.0,0.0,0.0,0.0,1.6281,1.6281,1.6216,1.6086,1.6086,1.6151,1.6281,1.6151,1.592,1.5576,1.5454,1.5118,1.4744,1.5547,1.5426,1.4766,1.5568,1.5538,0.0,0.0,0.0,0.0,1.584,1.5968,0.0,0.0,0.0,0.0,0.0,0.0,0.0,0.0,1.65,1.6525,1.6663,0.0,1.6701,1.6701,1.66,1.65,0.0,1.65,1.6457,1.6315,1.6402,1.6457,1.6303,1.6402,1.65,1.65,1.6886,1.7024,1.655,0.0,0.0,0.0,0.0,0.0,0.0,0.0,0.0,0.0,0.0,0.0,0.0,0.0,0.0,1.9196,1.9597,1.9798,1.9798,1.9798,2.0024,2.049,2.1056,2.1581,2.2133,0.0,0.0,0.0,0.0,0.0,0.0,2.2957,2.2995,2.3065,2.2735,2.2699,2.2781,2.2451,2.2084,2.1734,0.0,0.0,0.0,0.0,0.0,0.0,0.0,0.0,0.0,0.0,0.0,0.0,0.0,0.0,0.0,0.0,0.0,0.0,0.0,0.0,0.0,0.0,0.0,1.6993,1.6522,1.6731,1.6752,1.65,1.6752,1.6879,1.6879,1.7105,1.6925,1.6382,1.6382,1.621,1.5947,1.6579,1.6493,1.5947,1.66,0.0,0.0,0.0,0.0,0.0,1.5982,1.6237,0.0,1.6117,1.6238,1.6445,0.0,0.0,0.0,0.0,1.65,1.65,1.65,1.65,1.65,1.65,1.65,1.65,1.65,1.65,1.65,1.65,1.65,1.65,1.65,1.65,1.65,1.65,1.6773,0.0,0.0,0.0,0.0,0.0,0.0,0.0,0.0,0.0,0.0,0.0,0.0,0.0,0.0,0.0,0.0,0.0,1.9271,1.956,1.9798,1.9798,1.9962,2.0302,2.0867,2.1393,2.1945,0.0,0.0,0.0,0.0,0.0,2.3108,2.3108,2.3108,2.3108,2.3108,2.3108,2.3108,2.3108,2.292,2.2656,0.0,0.0,0.0,0.0,0.0,0.0,0.0,0.0,0.0,0.0,0.0,0.0,0.0,0.0,0.0,0.0,0.0,0.0,0.0,0.0,0.0,0.0,1.7626,1.7666,1.6752,1.7188,1.7188,1.6731,1.7188,1.7435,1.7422,1.7887,1.7867,1.7435,1.7435,1.7435,1.7416,1.7419,1.7423,1.741,1.7309,0.0,0.0,0.0,0.0,0.0,0.0,0.0,0.0,1.6633,1.6616,1.6616,1.6543,0.0,0.0,0.0,0.0,0.0,1.65,1.65,1.65,1.65,1.65,1.65,1.65,1.65,1.65,1.65,1.65,1.65,1.65,1.65,1.65,1.65,0.0,0.0,1.7674,1.7712,0.0,0.0,0.0,0.0,0.0,0.0,0.0,0.0,0.0,0.0,0.0,0.0,0.0,0.0,1.9008,1.9259,1.9798,1.9886,1.9936,1.9936,2.0629,2.1182,2.1631,2.2184,0.0,0.0,0.0,0.0,2.3108,2.3108,2.3108,2.3108,2.3108,2.3108,2.3108,2.3108,2.3108,2.3108,0.0,0.0,0.0,0.0,0.0,0.0,0.0,0.0,0.0,0.0,0.0,0.0,0.0,0.0,0.0,0.0,0.0,0.0,0.0,0.0,0.0,1.7887,1.8007,1.8027,1.7867,1.7947,1.7947,1.7847,1.7947,1.7987,1.7987,1.8066,1.8066,1.7987,1.7987,1.7987,1.7973,1.7989,1.797,1.7932,1.7367,0.0,0.0,0.0,0.0,0.0,0.0,0.0,0.0,1.7154,1.7167,1.7097,1.6637,0.0,0.0,0.0,0.0,0.0,1.65,1.65,1.65,1.65,1.65,1.65,1.65,1.65,1.65,1.65,1.65,1.65,1.65,1.65,1.65,1.65,0.0,1.7765,0.0,0.0,0.0,0.0,0.0,0.0,0.0,0.0,0.0,0.0,0.0,0.0,0.0,0.0,0.0,0.0,0.0,1.9259,1.9798,2.0314,2.0566,2.0566,2.1568,2.2108,2.2209,2.2732,2.302,0.0,0.0,0.0,2.3108,2.3108,2.3108,2.3108,2.3108,2.3108,2.3108,2.3108,2.3108,2.3108,0.0,0.0,0.0,0.0,0.0,0.0,0.0,0.0,0.0,0.0,0.0,0.0,0.0,0.0,0.0,0.0,0.0,0.0,0.0,0.0,1.9549,1.9299,1.9299,1.891,1.8125,1.838,1.84,1.8106,1.84,1.8535,1.8535,1.8793,1.8774,1.8554,1.8793,1.8774,1.8554,1.8836,1.8798,1.8526,0.0,0.0,0.0,0.0,0.0,0.0,0.0,0.0,0.0,0.0,1.7727,1.7686,1.7442,0.0,0.0,0.0,0.0,0.0,1.6573,1.65,1.65,1.65,1.65,1.65,1.65,1.65,1.65,1.65,1.65,1.65,1.65,1.65,1.66,1.6936,0.0,0.0,0.0,0.0,0.0,0.0,0.0,0.0,0.0,0.0,0.0,0.0,0.0,0.0,0.0,0.0,0.0,0.0,0.0,0.0,2.0321,2.0587,2.0541,2.0239,2.0715,2.1117,2.1443,2.1995,2.238,0.0,0.0,2.3108,2.3108,2.3108,2.3108,2.3108,2.3108,2.3108,2.3108,2.3108,2.3108,2.3058,0.0,0.0,0.0,0.0,0.0,0.0,0.0,0.0,0.0,0.0,0.0,0.0,0.0,0.0,0.0,0.0,0.0,0.0,0.0,2.0666,2.0466,2.0466,2.0466,1.9871,1.8627,1.913,1.9185,1.8783,1.9185,1.9383,1.9401,1.9656,1.9639,1.9401,1.9763,1.9674,1.9251,1.9663,1.9536,1.9118,0.0,0.0,0.0,0.0,0.0,0.0,0.0,0.0,0.0,0.0,0.0,0.0,0.0,0.0,0.0,1.7605,1.7483,1.7415,1.6993,1.6879,1.6879,1.6879,1.6701,1.65,1.65,1.66,1.6663,1.6525,1.66,1.6663,1.6525,1.65,0.0,1.7463,1.8292,0.0,0.0,0.0,0.0,0.0,0.0,0.0,0.0,0.0,0.0,0.0,0.0,0.0,0.0,0.0,0.0,0.0,0.0,0.0,2.1004,2.0964,2.0552,1.9798,2.0218,2.0588,2.0945,2.1783,2.2405,2.2827,2.32,2.3395,2.3365,2.3198,2.3108,2.3138,2.3305,2.3484,2.3619,2.3454,2.3395,2.3301,0.0,0.0,0.0,0.0,0.0,0.0,0.0,0.0,0.0,0.0,0.0,0.0,0.0,0.0,0.0,0.0,0.0,0.0,0.0,2.0959,2.0943,2.0943,2.0943,2.0699,2.0145,2.0616,2.0829,2.0797,2.0829,2.0845,2.0845,2.0449,2.0466,2.0845,2.0894,2.0633,2.0212,2.0246,2.0019,1.9594,1.8999,0.0,0.0,0.0,0.0,0.0,0.0,0.0,0.0,0.0,0.0,0.0,0.0,0.0,1.8086,1.8046,1.8046,1.8027,1.8007,1.7987,1.7987,1.7987,1.7229,1.65,1.65,1.6936,1.7184,1.6613,1.6948,1.7149,1.6588,1.65,1.6851,1.7965,0.0,0.0,0.0,0.0,0.0,0.0,0.0,0.0,0.0,0.0,0.0,0.0,0.0,0.0,0.0,0.0,0.0,0.0,0.0,0.0,2.1625,2.1633,2.1004,1.9811,2.1444,2.1983,2.1602,2.3392,2.4203,2.4245,2.4214,2.4205,2.4147,2.3395,2.3108,2.3155,2.3914,2.4624,2.5147,2.4452,2.4205,2.4105,0.0,0.0,0.0,0.0,0.0,0.0,0.0,0.0,0.0,0.0,0.0,0.0,0.0,0.0,0.0,0.0,0.0,0.0,0.0,2.1624,2.1368,2.1368,2.1368,2.1291,2.1118,2.1039,2.0991,2.0991,2.0991,2.0991,2.0991,2.107,2.107,2.1007,2.126,2.1134,2.0747,2.0747,2.0649,2.0483,2.0217,2.014,0.0,0.0,0.0,0.0,0.0,0.0,0.0,0.0,1.9406,1.9369,1.9169,1.9095,1.9024,1.8688,1.8593,1.8516,1.8204,1.8106,1.8106,1.8106,1.7807,1.7415,1.7076,1.6909,1.6785,1.6538,1.6685,1.6773,1.6538,1.681,1.73,1.8078,0.0,0.0,0.0,0.0,0.0,0.0,0.0,0.0,0.0,0.0,0.0,0.0,0.0,0.0,0.0,0.0,0.0,0.0,0.0,0.0,0.0,2.1899,2.1459,2.0988,2.1641,2.1873,2.1708,2.3226,2.3894,2.3949,2.4668,2.4979,2.4951,2.4667,2.4525,2.4553,2.4866,2.5147,2.537,2.5091,2.4979,2.4922,0.0,0.0,0.0,0.0,0.0,0.0,0.0,0.0,0.0,0.0,0.0,0.0,0.0,0.0,0.0,0.0,0.0,0.0,2.286,2.2388,2.2099,2.2099,2.2099,2.2099,2.2099,2.184,2.165,2.1532,2.1412,2.1367,2.14,2.1553,2.1538,2.1415,2.1705,2.1583,2.1181,2.1181,2.1134,2.0991,2.0991,2.0991,0.0,0.0,0.0,0.0,0.0,0.0,0.0,0.0,2.012,2.007,1.9945,1.9892,1.9803,1.9299,1.9151,1.9062,1.8688,1.8612,1.8612,1.8612,1.8477,1.8263,1.7887,1.7527,1.7222,1.7076,1.6894,1.6779,1.6748,1.6945,0.0,0.0,0.0,0.0,0.0,0.0,0.0,0.0,0.0,0.0,0.0,0.0,0.0,0.0,0.0,0.0,0.0,0.0,0.0,0.0,0.0,0.0,0.0,2.2538,2.2294,2.2294,2.2294,2.2301,2.2376,2.3653,2.4362,2.4578,2.5388,2.5755,2.5728,2.5508,2.5536,2.5755,2.5755,2.5892,2.6081,2.5837,2.5755,2.5701,0.0,0.0,0.0,0.0,0.0,0.0,0.0,0.0,0.0,0.0,0.0,0.0,0.0,0.0,0.0,0.0,0.0,0.0,2.32,2.32,2.32,2.32,2.32,2.32,2.32,2.32,2.3045,2.2708,2.2303,2.2161,2.2296,2.1823,2.1853,2.2296,2.2296,2.2032,2.1613,2.1613,2.1368,2.1007,2.1007,2.1007,2.1007,0.0,0.0,0.0,0.0,0.0,0.0,0.0,2.0991,2.0926,2.0449,2.0314,2.0229,1.9836,1.9708,1.9708,1.9708,1.9708,1.9708,1.9708,1.9299,1.8912,1.8912,1.8903,1.8753,1.8283,1.7775,1.7387,1.7306,1.6879,0.0,0.0,0.0,0.0,0.0,0.0,0.0,0.0,0.0,0.0,0.0,0.0,0.0,0.0,0.0,0.0,0.0,0.0,0.0,0.0,0.0,0.0,0.0,2.3595,2.3595,2.3595,2.3595,2.3652,2.3753,2.5029,2.5974,2.6608,2.6549,2.651,2.6457,2.5728,2.5837,2.651,2.651,2.6956,2.7524,2.6774,2.651,2.6404,0.0,0.0,0.0,0.0,0.0,0.0,0.0,0.0,0.0,0.0,0.0,0.0,0.0,0.0,0.0,0.0,0.0,0.0,2.3555,2.3335,2.32,2.32,2.32,2.32,2.32,2.3426,2.338,2.3057,2.269,2.2538,2.2573,2.2243,2.218,2.2296,2.2296,2.2223,2.2092,2.2092,2.2017,2.1915,2.1915,2.1915,2.1915,0.0,0.0,0.0,0.0,0.0,0.0,0.0,0.0,0.0,2.0845,2.0797,2.078,2.0649,2.0381,2.0124,2.0124,1.9927,1.9708,1.9708,1.9584,1.946,1.946,1.8884,1.8308,1.816,1.7997,1.7759,1.7359,1.7483,0.0,0.0,0.0,0.0,0.0,0.0,0.0,0.0,0.0,0.0,0.0,0.0,0.0,0.0,0.0,0.0,0.0,0.0,0.0,0.0,0.0,0.0,0.0,0.0,2.3595,2.3595,2.3595,2.3866,2.4354,2.5207,2.5974,2.6632,2.7075,2.728,2.7255,2.7034,2.7086,2.728,2.728,2.7408,2.7575,2.7357,2.728,2.7255,0.0,0.0,0.0,0.0,0.0,0.0,0.0,0.0,0.0,0.0,2.3966,2.4062,0.0,0.0,0.0,0.0,0.0,0.0,0.0,2.3948,2.3842,2.3842,2.3749,2.367,2.3599,2.3795,2.3795,2.3606,2.3247,2.3033,2.2898,2.2734,2.2598,2.2463,2.2594,2.2581,2.2463,2.2463,2.2463,2.245,2.2349,2.2296,2.2296,0.0,0.0,0.0,0.0,0.0,0.0,0.0,0.0,0.0,2.1307,2.1244,2.1213,2.1039,2.0797,2.0533,2.0348,2.0124,1.9909,1.9729,1.9708,1.9708,1.9708,1.9208,1.8734,1.8745,1.8576,1.8322,1.8008,1.8027,0.0,0.0,0.0,0.0,0.0,0.0,0.0,0.0,0.0,0.0,0.0,0.0,0.0,0.0,0.0,0.0,0.0,0.0,0.0,0.0,0.0,0.0,0.0,0.0,0.0,2.3595,2.3595,2.3947,2.4619,2.5008,2.5719,2.6632,2.7315,2.76,2.76,2.76,2.76,2.76,2.76,2.76,2.76,2.76,2.76,2.76,0.0,0.0,0.0,0.0,0.0,0.0,0.0,0.0,0.0,0.0,2.4685,2.4804,0.0,0.0,0.0,0.0,0.0,0.0,0.0,2.4804,2.4804,2.4804,2.4623,2.4426,2.4237,2.4228,2.4218,2.419,2.3858,2.3544,2.3236,2.3212,2.3033,2.2759,2.3069,2.3033,2.2746,2.2746,2.2733,2.2669,2.2422,2.2307,2.231,2.2338,0.0,0.0,0.0,0.0,0.0,0.0,0.0,0.0,2.1794,2.1658,2.1598,2.1229,2.1086,2.0959,2.0533,2.0365,2.0212,1.9839,1.9744,1.9708,1.9708,1.9698,1.9701,1.9704,1.93,1.8958,1.8917,1.8535,0.0,0.0,0.0,0.0,0.0,0.0,0.0,0.0,0.0,0.0,0.0,0.0,0.0,0.0,0.0,0.0,0.0,0.0,0.0,0.0,0.0,0.0,0.0,0.0,0.0,0.0,2.3595,2.3924,2.4515,2.4575,2.5292,2.6542,2.7225,2.751,2.751,2.757,2.76,2.76,2.76,2.76,2.76,2.76,2.76,2.76,0.0,0.0,0.0,0.0,0.0,0.0,0.0,0.0,0.0,0.0,0.0,0.0,0.0,0.0,0.0,0.0,0.0,0.0,0.0,2.4804,2.4804,2.4804,2.476,2.4639,2.4435,2.4445,2.4357,2.419,2.3858,2.3671,2.3577,2.3317,2.3153,2.3093,2.3165,2.3153,2.3093,2.3093,2.2947,2.2695,2.2634,2.2487,2.2307,2.2523,2.2612,0.0,0.0,0.0,0.0,0.0,0.0,0.0,2.218,2.2149,2.212,2.2049,2.1749,2.1445,2.1337,2.0814,2.028,2.0177,1.9929,1.9708,1.9708,1.9689,1.9693,1.9687,1.9616,1.9386,1.8978,0.0,0.0,0.0,0.0,0.0,0.0,0.0,0.0,0.0,0.0,0.0,0.0,0.0,0.0,0.0,0.0,0.0,0.0,0.0,0.0,0.0,0.0,0.0,2.3595,2.3595,2.3595,0.0,2.3595,2.3684,2.3834,2.435,2.5038,2.5854,2.6512,2.6821,2.6866,2.739,2.76,2.76,2.76,2.76,2.76,2.76,2.76,2.76,0.0,0.0,0.0,0.0,0.0,0.0,0.0,0.0,0.0,0.0,0.0,0.0,0.0,0.0,0.0,0.0,0.0,0.0,0.0,0.0,2.4993,2.4897,2.4897,2.4828,2.4647,2.4561,2.4444,2.4339,2.4067,2.3937,2.3945,2.3764,2.3588,2.3455,2.3617,2.3588,2.3437,2.3437,2.3346,2.3153,2.2835,2.2699,2.2721,2.2712,2.281,2.2923,2.2759,0.0,0.0,0.0,0.0,0.0,0.0,0.0,2.2296,2.2296,2.212,2.1899,2.1658,2.1134,2.0533,2.0122,1.9856,1.9708,1.9708,1.9708,1.9708,1.9708,1.9708,1.9603,0.0,0.0,0.0,0.0,0.0,0.0,0.0,0.0,0.0,0.0,0.0,0.0,0.0,0.0,0.0,0.0,0.0,0.0,0.0,0.0,0.0,0.0,0.0,0.0,2.3595,2.3595,2.3595,2.3595,2.3595,2.373,2.4,2.4409,2.4963,2.5644,2.6303,2.6962,2.7531,2.7881,2.8198,2.8472,2.8472,2.8472,2.8472,2.8472,2.8472,2.8424,0.0,0.0,0.0,0.0,0.0,0.0,0.0,0.0,0.0,0.0,0.0,0.0,0.0,0.0,0.0,0.0,0.0,0.0,0.0,0.0,0.0,2.5052,2.5046,2.4968,2.4835,2.4666,2.4575,2.4543,2.4384,2.4284,2.4256,2.4218,2.4046,2.3795,2.4084,2.4054,2.3785,2.3785,2.3746,2.366,2.3093,2.3009,2.3177,2.296,2.3045,2.3247,2.2972,2.2835,2.2746,2.2531,0.0,0.0,0.0,0.0,2.2296,2.2296,2.2296,2.2209,2.1823,2.1431,2.0894,2.0017,1.9803,1.9782,1.9726,1.9708,1.9708,1.9708,1.9708,0.0,0.0,0.0,0.0,0.0,0.0,0.0,0.0,0.0,0.0,0.0,0.0,0.0,0.0,0.0,0.0,0.0,0.0,0.0,0.0,0.0,0.0,0.0,0.0,2.3638,2.3745,2.3745,2.3773,2.3879,2.3879,2.4116,2.4547,2.4649,2.5024,2.5584,2.625,2.7209,2.8295,2.842,2.8832,2.9406,2.9406,2.9406,2.9406,2.9406,2.9406,2.9339,0.0,0.0,0.0,0.0,0.0,0.0,0.0,0.0,0.0,0.0,2.5329,2.5383,0.0,0.0,0.0,0.0,0.0,0.0,0.0,0.0,0.0,2.5269,2.5264,2.5163,2.498,2.4955,2.4884,2.476,2.4731,2.4631,2.4452,2.4275,2.417,2.4141,2.418,2.417,2.4123,2.4123,2.3976,2.3692,2.3599,2.3414,2.3242,2.3471,2.3588,2.3639,2.3577,2.338,2.3129,2.3099,2.2721,0.0,0.0,0.0,2.2296,2.2296,2.2296,2.2282,2.2223,2.1869,2.1306,2.0449,2.0212,2.0124,1.9782,1.9708,1.9708,0.0,0.0,0.0,0.0,0.0,0.0,0.0,0.0,0.0,0.0,0.0,0.0,0.0,0.0,0.0,0.0,0.0,0.0,0.0,0.0,0.0,0.0,0.0,2.2278,2.3565,2.3595,0.0,2.4287,2.4287,2.4532,2.4989,2.4989,2.5012,2.5105,2.5123,2.5179,2.5286,2.5975,2.6714,2.7503,2.8086,2.8758,2.9406,2.9406,2.9406,2.9406,2.9406,2.9406,2.9384,0.0,0.0,0.0,0.0,0.0,0.0,0.0,0.0,0.0,0.0,0.0,2.5462,0.0,0.0,0.0,0.0,0.0,0.0,0.0,0.0,0.0,2.5404,2.5404,2.536,2.523,2.5114,2.5,2.4917,2.4835,2.4753,2.4662,2.4586,2.4428,2.419,2.419,2.419,2.419,2.419,2.4103,2.3947,2.3785,2.3714,2.3764,2.3714,2.3816,2.3966,2.3774,2.3617,2.3448,2.3259,2.3026,2.2781,2.2721,0.0,0.0,0.0,2.2296,2.2237,2.1988,2.1764,2.146,2.0846,2.0682,2.0566,2.0139,2.0035,1.9965,1.9747,0.0,0.0,0.0,0.0,0.0,0.0,0.0,0.0,0.0,0.0,0.0,0.0,0.0,0.0,0.0,0.0,0.0,0.0,0.0,0.0,0.0,2.2236,2.2836,2.4444,2.4491,0.0,2.4851,2.4835,2.4969,2.5202,2.5486,2.5652,2.5652,2.5926,2.5938,2.5767,2.6066,2.6792,2.779,2.8526,2.9181,2.9832,3.0265,3.0414,3.0414,3.0414,3.0414,3.0356,0.0,0.0,0.0,0.0,0.0,0.0,0.0,0.0,0.0,0.0,0.0,0.0,0.0,0.0,0.0,0.0,0.0,0.0,0.0,0.0,0.0,2.5491,2.5491,2.5488,2.5428,2.527,2.5144,2.5105,2.4981,2.4896,2.4855,2.4855,2.4666,2.4348,2.4348,2.4348,2.4348,2.4348,2.433,2.4257,2.4009,2.4027,2.417,2.3917,2.3986,2.417,2.3917,2.3774,2.3671,2.3511,2.3346,2.3165,2.3009,2.2835,0.0,0.0,0.0,2.2223,2.1884,2.1779,2.169,2.126,2.115,2.1039,2.0583,2.0483,2.0382,0.0,0.0,0.0,0.0,0.0,0.0,0.0,0.0,0.0,0.0,0.0,0.0,0.0,0.0,0.0,0.0,0.0,0.0,0.0,0.0,0.0,2.273,2.2828,2.349,2.4894,2.5106,2.5278,2.5392,2.5524,2.558,2.5598,2.5997,2.6191,2.6191,2.6556,2.6563,2.6332,2.6332,2.697,2.8075,2.8843,2.9527,3.0176,3.0903,3.119,3.119,3.119,3.119,3.1151,0.0,0.0,0.0,0.0,0.0,0.0,0.0,0.0,0.0,0.0,0.0,0.0,2.5599,2.5658,2.5683,2.5683,2.5683,2.5661,2.5601,2.5599,2.5563,2.5493,2.5491,0.0,2.5486,2.5425,2.5372,2.5375,2.5317,2.5187,2.4992,2.4992,2.4917,2.4768,2.4768,2.4768,2.4768,2.4768,2.4654,2.4486,2.4469,2.4357,2.419,2.418,2.418,2.4208,2.418,2.3976,2.3753,2.4054,2.3742,2.3247,2.3555,2.32,2.2695,0.0,0.0,0.0,2.2268,2.2268,2.2149,2.1705,2.1567,2.146,2.1055,0.0,0.0,0.0,0.0,0.0,0.0,0.0,0.0,0.0,0.0,0.0,0.0,0.0,0.0,0.0,0.0,0.0,0.0,0.0,0.0,0.0,0.0,0.0,2.2044,2.3359,2.4111,2.4151,2.4846,2.5449,2.5943,2.6401,2.6607,2.6607,2.6657,2.6657,2.6657,2.6691,2.6691,2.6674,2.6674,2.7113,2.789,2.8668,2.9447,3.0176,3.0903,3.119,3.119,3.119,3.119,3.119,0.0,0.0,0.0,0.0,0.0,0.0,0.0,0.0,0.0,0.0,0.0,0.0,0.0,2.5683,2.5703,2.5703,2.5703,2.5683,2.5661,2.5661,2.5659,2.5633,2.5633,2.5605,2.5563,2.5543,2.5495,2.5394,2.5372,2.5311,2.5179,2.5179,2.5171,2.5115,2.4902,2.4804,2.4804,2.4804,2.476,2.4678,2.4543,2.4452,2.4375,2.4256,2.419,2.419,2.419,2.4113,2.4036,2.4161,2.4036,2.3827,2.3724,2.3533,2.3265,2.2835,2.2621,2.2527,2.2349,2.2296,2.2268,2.2092,2.2046,2.1928,2.1492,2.1384,0.0,0.0,0.0,0.0,0.0,0.0,0.0,0.0,0.0,0.0,0.0,0.0,0.0,0.0,0.0,0.0,0.0,0.0,0.0,0.0,0.0,0.0,2.3535,2.4312,2.5035,2.5759,2.6025,2.6263,2.6436,2.6624,2.6691,2.6691,2.6691,2.6691,2.6691,2.6691,2.6691,2.6691,2.6691,2.6843,2.7199,2.8468,2.8839,2.8804,3.0531,3.0903,3.0548,3.1021,3.119,3.1123,0.0,0.0,0.0,0.0,0.0,0.0,0.0,0.0,2.5703,2.5703,0.0,0.0,0.0,0.0,2.5703,2.5703,2.5703,2.5703,2.5703,2.5703,2.5703,2.5703,2.5703,2.5683,2.5634,2.5606,2.5556,2.5477,2.5421,2.5372,2.533,2.5308,2.5308,2.5298,2.5074,2.4974,2.4974,2.4974,2.4929,2.4862,2.4659,2.4551,2.4478,2.4275,2.419,2.419,0.0,0.0,0.0,0.0,0.0,0.0,0.0,2.3795,2.3566,2.2928,2.2725,2.2634,2.2374,2.2296,2.2296,2.2296,2.2296,2.2223,2.1913,0.0,0.0,0.0,0.0,0.0,0.0,0.0,0.0,0.0,0.0,0.0,0.0,0.0,0.0,0.0,0.0,0.0,0.0,0.0,0.0,0.0,0.0,0.0,2.4426,2.5179,2.5916,2.6674,2.6691,2.6691,2.6691,2.6691,2.6691,2.6691,2.6691,2.6691,2.6691,2.6691,2.6691,2.6691,2.6691,2.6691,2.6793,2.8061,2.8433,2.8348,2.9871,3.0463,3.0497,3.0734,3.0987,3.1123,0.0,0.0,0.0,0.0,0.0,0.0,0.0,0.0,2.5703,2.5703,0.0,0.0,0.0,0.0,0.0,2.5703,2.5703,2.5703,2.5703,2.5703,2.5703,2.5703,2.5703,2.5703,2.5703,2.5635,2.5602,2.5602,2.5477,2.539,2.5398,2.5326,2.5308,2.5308,2.5308,2.5308,2.5308,2.5308,2.5173,2.4992,2.4855,2.4678,2.4478,2.4275,2.419,0.0,2.419,2.419,0.0,2.419,0.0,0.0,0.0,2.3986,2.3606,2.2987,2.2768,2.2647,0.0,0.0,0.0,2.2296,2.2296,2.2296,2.2296,0.0,0.0,0.0,0.0,0.0,0.0,0.0,0.0,0.0,0.0,0.0,0.0,0.0,0.0,0.0,0.0,0.0,0.0,0.0,0.0,0.0,0.0,2.4525,2.4525,2.5912,2.6691,2.6691,2.6691,2.6691,2.6691,2.6691,2.6691,2.6691,2.6691,2.6708,2.6725,2.6725,2.6725,2.6741,2.6741,2.6741,2.6775,2.752,2.8247,2.8942,2.9028,2.9909,3.1041,3.04,3.0603,3.1176,0.0,0.0,0.0,0.0,0.0,2.5703,2.5703,2.5703,2.5703,0.0,0.0,0.0,2.5703,2.5703,2.5703,2.5703,2.5703,2.5703,2.5703,2.5703,2.5703,2.5703,2.5703,2.5703,2.5703,2.5683,2.5658,2.5602,2.5505,2.5453,2.5406,2.533,2.5308,2.5308,2.5308,2.5308,2.5308,2.5308,2.5173,2.4992,2.4855,2.4678,2.4478,2.4275,0.0,0.0,0.0,2.419,2.419,0.0,2.419,2.419,0.0,2.4141,2.3927,2.3277,2.3087,2.2952,2.2443,0.0,0.0,0.0,0.0,0.0,0.0,0.0,0.0,0.0,0.0,0.0,0.0,0.0,0.0,0.0,0.0,0.0,0.0,0.0,0.0,0.0,0.0,0.0,0.0,0.0,0.0,0.0,0.0,2.5304,2.5304,2.6184,2.6691,2.6691,2.6691,2.6691,2.6691,2.6691,2.6691,2.6691,2.6691,2.6841,2.7131,2.7131,2.7286,2.756,2.756,2.756,2.7585,2.7742,2.7621,2.7538,2.9471,2.9799,2.9386,3.1185,3.1376,3.0692,0.0,0.0,0.0,0.0,0.0,2.5703,2.5703,2.5703,2.5703,0.0,0.0,0.0,2.5703,2.5703,2.5703,2.5703,2.5703,2.5703,2.5703,2.5703,2.5703,2.5703,2.5703,2.5703,2.5703,2.5703,2.5683,2.5636,2.5569,2.5517,2.5444,2.536,2.5336,2.5308,2.5308,2.5308,2.5308,2.5308,2.5224,2.5118,2.4889,2.4731,2.4591,2.4312,2.419,0.0,0.0,0.0,2.419,2.419,2.419,0.0,0.0,0.0,2.4094,2.3566,2.3403,2.3277,2.2664,2.2494,2.2436,2.2321,0.0,0.0,2.2296,2.2296,0.0,0.0,0.0,0.0,0.0,0.0,0.0,0.0,0.0,0.0,0.0,0.0,0.0,0.0,0.0,0.0,0.0,0.0,0.0,0.0,2.4932,2.5744,2.6048,2.6471,2.6691,2.6691,2.6691,2.6691,2.6691,2.6691,2.6774,2.6955,2.6955,2.7162,2.7545,2.7545,2.7678,2.7897,2.7897,2.7897,2.7904,2.7867,2.7781,2.7778,2.9041,2.9557,2.9766,3.106,3.1488,3.1306,0.0,0.0,2.5703,2.5703,2.5781,2.584,2.584,2.584,2.584,0.0,2.5762,2.5742,2.582,2.5762,2.5703,2.5703,2.5703,2.5703,2.5703,2.5703,2.5703,2.5703,2.5703,2.5703,2.5703,2.5703,2.5703,2.5703,2.5634,2.5563,2.5508,2.5428,2.5363,2.5308,2.5308,2.5308,2.5308,2.5308,2.5298,2.5243,2.4935,2.479,0.0,0.0,2.419,2.419,2.419,2.419,2.419,2.419,2.419,0.0,0.0,0.0,0.0,0.0,2.3703,2.3573,2.295,2.2742,2.2634,2.2377,0.0,0.0,2.2296,2.2296,0.0,0.0,0.0,0.0,0.0,0.0,0.0,0.0,0.0,0.0,0.0,0.0,0.0,0.0,0.0,0.0,0.0,0.0,0.0,2.444,2.5253,2.6015,2.6657,2.6741,2.6741,2.6691,2.6741,2.6775,2.6775,2.6775,2.6971,2.738,2.738,2.7574,2.7968,2.7968,2.7982,2.8024,2.8024,2.8024,2.8024,2.8024,2.8358,2.8838,2.8294,2.9337,3.106,3.0625,3.1302,3.2393,0.0,2.5703,2.5703,2.5703,2.6289,2.6758,2.6758,2.6758,2.6758,2.6758,2.6133,2.5977,2.668,2.6113,2.5703,2.5703,2.5703,2.5703,2.5703,2.5703,2.5703,2.5703,2.5703,2.5703,2.5703,2.5703,2.5703,2.5703,2.5634,2.5563,2.5508,2.5428,2.5363,2.5308,2.5308,2.5308,2.5308,2.5308,2.5208,2.5034,2.4869,2.47,2.4537,2.4294,2.419,2.419,2.419,2.419,2.419,2.419,2.419,2.419,0.0,0.0,0.0,2.3795,0.0,0.0,2.2903,2.2742,0.0,0.0,0.0,0.0,2.2296,2.2296,2.2296,0.0,0.0,0.0,0.0,0.0,0.0,0.0,0.0,0.0,0.0,0.0,0.0,0.0,0.0,0.0,0.0,0.0,2.4355,2.4491,2.5743,2.6539,2.6691,2.702,2.7035,2.6708,2.7003,2.7194,2.7194,2.7194,2.7378,2.7779,2.7779,2.7964,2.8298,2.8298,2.8476,2.8779,2.8779,2.8779,2.8779,2.8779,2.8521,2.8191,2.8976,2.9534,3.0102,3.1597,3.2117,3.2095,2.5703,2.5703,2.5703,2.5703,2.6426,2.6992,2.6992,2.7363,2.7656,2.7656,2.6894,2.6348,2.6348,2.5957,2.5703,2.5703,2.5703,2.5703,2.5703,2.5703,2.5703,2.5703,2.5703,2.5703,2.5703,2.5703,2.5703,2.5703,2.5634,2.5563,2.5508,2.5428,2.5363,2.5308,2.5308,2.5308,2.5308,2.5308,2.5229,2.5135,2.4889,0.0,2.4478,2.4275,2.419,2.419,2.419,2.419,2.419,2.419,2.419,0.0,0.0,2.419,2.417,0.0,2.3937,2.3806,0.0,0.0,0.0,2.2432,0.0,0.0,0.0,2.2296,2.2296,0.0,0.0,0.0,0.0,0.0,0.0,0.0,0.0,0.0,0.0,0.0,0.0,0.0,0.0,0.0,0.0,0.0,2.4345,2.5289,2.6369,2.7083,2.7303,2.7485,2.7517,2.7301,2.7485,2.7589,2.7589,2.7589,2.7779,2.8156,2.8156,2.8329,2.8694,2.8694,2.8815,2.9005,2.9005,2.9005,2.9023,2.9427,2.9375,2.9096,2.9681,3.0394,3.1222,3.2237,3.2733,3.2811,2.5703,2.5703,2.5703,2.5703,2.6562,2.7246,2.7246,2.7851,2.8301,2.8301,2.7539,2.6797,2.6269,2.5898,2.5703,2.5703,2.5703,2.5703,2.5703,2.5703,2.5703,2.5703,2.5703,2.5703,2.5703,2.5703,2.5703,2.5703,2.5634,2.5563,2.5508,2.5428,2.5363,2.5308,2.5308,2.5308,2.5308,2.5308,2.5274,2.5208,0.0,2.47,2.4537,2.4294,2.419,2.419,2.419,2.419,2.419,2.419,2.419,2.419,2.419,2.419,0.0,0.0,0.0,0.0,0.0,0.0,0.0,0.0,0.0,2.2467,0.0,0.0,0.0,2.2467,0.0,0.0,0.0,0.0,0.0,0.0,0.0,0.0,0.0,0.0,0.0,0.0,0.0,0.0,0.0,0.0,2.4505,2.6161,2.6991,2.7562,2.7883,2.795,2.7968,2.7897,2.795,2.801,2.801,2.801,2.817,2.8527,2.8527,2.8682,2.9005,2.9005,2.9005,2.9005,2.9005,2.9097,2.9262,2.9769,3.0246,3.065,3.0485,3.1237,3.2381,3.2546,3.3005,3.3436,2.5703,2.5703,2.5703,2.5703,2.7051,2.8144,2.8144,2.8242,2.8301,2.8301,2.7539,2.7266,2.793,2.6621,2.5703,2.5703,2.5703,2.5703,2.5703,2.5703,2.5703,2.5703,2.5703,2.5703,2.5703,2.5703,2.5703,2.5703,2.5634,2.5563,2.551,2.5434,2.5352,2.5308,2.5308,2.5308,2.5308,2.5308,2.5203,0.0,2.4862,2.479,0.0,2.4339,2.419,2.419,2.419,2.419,2.419,0.0,2.419,2.419,0.0,2.419,2.419,0.0,0.0,0.0,0.0,0.0,0.0,0.0,2.3099,0.0,0.0,0.0,2.3099,2.3099,0.0,2.3014,2.2712,0.0,0.0,0.0,0.0,0.0,0.0,0.0,0.0,0.0,0.0,0.0,0.0,0.0,0.0,2.6566,2.737,2.7855,2.7897,2.8183,2.821,2.7911,2.8197,2.8342,2.8342,2.8342,2.854,2.8929,2.8929,2.897,2.9005,2.9005,2.9005,2.9005,2.9005,2.939,3.0026,2.939,3.0399,3.2252,3.1531,3.1378,3.1623,3.2339,3.2656,3.2729,2.5703,2.5703,2.5859,2.6367,2.7051,2.7715,2.8223,2.8301,2.8125,2.7617,2.7226,2.6953,2.6816,2.6133,2.5703,2.5703,0.0,2.5703,0.0,0.0,2.5703,2.5703,2.5703,2.5703,2.5703,2.5703,2.5683,2.5636,2.5569,2.5517,2.5447,2.5368,2.5321,2.5308,2.5308,2.5308,2.5308,2.5308,2.5173,0.0,0.0,0.0,0.0,2.4312,2.419,2.419,2.419,2.419,2.419,0.0,2.419,0.0,0.0,0.0,0.0,0.0,0.0,0.0,0.0,0.0,0.0,0.0,0.0,0.0,2.32,0.0,2.32,0.0,0.0,0.0,0.0,0.0,0.0,0.0,0.0,0.0,0.0,0.0,0.0,0.0,0.0,0.0,0.0,0.0,0.0,0.0,0.0,2.8277,2.852,2.8676,2.8688,2.8533,2.8658,2.8749,2.8749,2.8749,2.8839,2.9005,2.9005,2.9005,2.9005,2.9005,2.9244,2.9702,2.9702,3.0155,3.087,3.0522,3.0999,3.1916,3.2045,3.21,3.2137,3.2472,3.2601,3.2601,2.6055,2.5859,2.6055,2.7168,2.7168,2.7285,2.8164,2.8496,2.8437,2.7793,2.75,2.7129,2.6484,2.5996,0.0,2.5703,2.5703,2.5703,0.0,0.0,2.5703,2.5703,2.5703,0.0,2.5703,2.5683,2.5658,2.5602,2.5539,2.5477,2.5409,2.5593,2.5669,2.5673,2.5904,2.6,2.6019,0.0,2.5819,2.5647,2.5227,2.4789,2.441,2.4266,2.419,2.419,2.419,2.419,2.419,2.419,2.419,0.0,2.419,0.0,0.0,0.0,0.0,0.0,2.3907,0.0,0.0,0.0,0.0,0.0,0.0,0.0,0.0,0.0,0.0,0.0,0.0,0.0,2.3263,2.3038,0.0,0.0,0.0,0.0,0.0,0.0,0.0,0.0,0.0,0.0,0.0,0.0,2.7471,0.0,2.8975,2.9005,2.9005,2.9005,2.9005,2.9115,2.9335,2.9335,2.9445,2.9647,2.9427,2.9445,2.9647,2.9427,2.9757,3.0522,3.0522,3.098,3.1715,3.1488,3.1525,3.1733,3.1898,3.2069,3.232,3.2766,3.2784,3.2601,2.6953,2.6289,2.623,2.7969,2.7559,2.7285,2.8164,2.9023,0.0,0.0,0.0,0.0,0.0,0.0,0.0,0.0,0.0,2.5703,2.5703,0.0,2.5703,2.5703,2.5703,2.5703,0.0,2.5635,2.5602,2.5602,2.5539,2.5477,2.5409,2.6269,2.6614,2.6601,2.7448,2.7818,2.7808,2.7542,2.7426,2.7309,2.6139,2.5079,2.4199,0.0,2.419,2.419,2.419,0.0,0.0,2.419,2.419,0.0,0.0,0.0,0.0,0.0,0.0,0.0,0.0,0.0,0.0,2.417,0.0,0.0,0.0,0.0,2.417,0.0,0.0,0.0,0.0,2.3682,2.3429,2.2641,2.3184,0.0,0.0,0.0,0.0,0.0,0.0,0.0,0.0,0.0,0.0,0.0,2.7354,0.0,2.8968,2.9005,2.9005,2.9005,2.9005,2.9372,3.0155,3.0173,3.0558,3.1323,3.0522,3.0577,3.1305,3.0522,3.0595,3.136,3.136,3.1825,3.2491,3.1715,3.1861,3.2399,3.0889,3.0742,3.1635,3.3183,3.3275,3.2601,2.8496,2.8027,2.7617,2.8203,2.7578,2.7109,0.0,2.8184,0.0,0.0,0.0,0.0,0.0,2.6842,2.6281,0.0,0.0,2.5703,2.5703,2.5703,0.0,0.0,0.0,2.5703,0.0,0.0,0.0,2.552,2.6097,2.6291,2.6202,2.7089,2.747,2.7467,2.778,2.7796,0.0,0.0,0.0,0.0,0.0,2.5306,2.4934,0.0,0.0,2.419,2.419,2.419,0.0,2.419,2.419,2.419,2.419,2.419,2.419,2.419,2.419,0.0,0.0,0.0,2.4318,2.486,0.0,0.0,0.0,0.0,0.0,0.0,0.0,0.0,0.0,2.4026,2.3935,2.3669,2.3862,2.3983,0.0,0.0,0.0,0.0,0.0,0.0,0.0,0.0,0.0,2.6539,2.7346,2.8154,0.0,2.9005,2.9005,2.9005,2.9005,2.9133,2.939,2.9934,3.0338,3.0613,3.087,3.114,3.1397,3.1109,3.1421,3.2192,3.2192,3.2651,3.333,3.254,3.2344,3.2546,3.1995,3.194,3.221,3.221,3.2375,3.2674,2.8926,2.918,2.9219,2.9219,0.0,0.0,0.0,0.0,0.0,0.0,2.8803,0.0,2.7813,0.0,2.6656,0.0,2.5807,2.5636,2.5661,2.5636,0.0,2.5661,2.5636,0.0,0.0,0.0,0.0,0.0,2.6799,2.7168,2.7082,2.7956,2.8342,2.8338,2.864,2.8644,2.8391,2.8319,2.8085,0.0,0.0,2.6072,0.0,0.0,2.4704,0.0,0.0,2.419,2.419,2.419,2.419,2.419,2.419,2.4401,2.464,2.464,2.4832,2.5162,2.5686,2.5438,0.0,0.0,2.5438,0.0,2.5052,0.0,0.0,0.0,0.0,0.0,0.0,0.0,2.4281,2.4585,2.4401,2.419,0.0,2.4456,0.0,0.0,0.0,0.0,0.0,0.0,2.5613,2.6135,2.7181,2.8026,0.0,0.0,2.9005,2.9005,2.9005,2.9133,2.9427,3.0228,3.0779,3.1072,3.1586,3.1971,3.2228,3.1953,3.2265,3.3036,3.3036,3.333,3.3752,3.3238,3.2858,3.2601,3.2601,3.2601,3.2564,3.2339,3.2577,3.3096,2.8359,2.9726,0.0,0.0,3.0136,0.0,0.0,0.0,2.983,0.0,2.9917,2.9343,2.9304,2.7843,2.6832,2.6798,2.5992,2.5535,2.5597,2.5541,0.0,0.0,2.5522,2.551,2.5569,0.0,0.0,0.0,0.0,2.7913,2.7915,2.8796,2.9178,2.9204,3.0013,3.0222,2.9977,2.9763,2.9561,2.9287,2.8238,2.7346,2.6667,2.6631,0.0,2.43,2.4263,2.4281,2.43,2.4263,2.4281,2.4318,2.4318,2.4842,2.5448,2.5448,2.5988,2.6602,2.6649,2.662,2.6602,2.6649,0.0,0.0,0.0,0.0,2.6602,0.0,0.0,0.0,0.0,0.0,2.4557,2.5338,2.4824,2.4318,2.4318,0.0,0.0,0.0,0.0,0.0,0.0,2.4989,2.5429,2.5393,2.6898,2.7798,0.0,0.0,0.0,2.9005,2.9005,2.939,3.0191,3.0999,3.1806,3.2601,3.2638,3.3073,3.377,3.3005,3.3091,3.3807,3.3807,3.3807,3.3807,3.3807,3.3348,3.2656,3.2656,3.2669,3.2774,3.3513,3.382,3.3815,2.8983,2.9957,3.0462,0.0,2.9614,2.9429,0.0,0.0,0.0,0.0,3.0343,2.9951,2.9303,2.8315,2.7449,2.6851,2.5992,0.0,0.0,0.0,0.0,2.5513,2.552,2.58,2.6451,2.6032,0.0,2.6691,0.0,2.7333,2.7915,2.8736,2.9462,3.0071,3.0081,2.9988,2.9754,2.9561,2.9332,2.9027,2.8151,2.7677,0.0,0.0,2.6327,2.5915,2.5319,2.5485,2.5897,2.5301,2.5493,2.5988,2.5988,2.6135,2.6282,2.6282,2.6447,2.6741,2.7328,2.7053,2.6741,2.7346,2.7034,2.6602,0.0,0.0,0.0,0.0,0.0,0.0,0.0,0.0,0.0,2.6264,2.6117,2.5988,2.5988,0.0,0.0,0.0,0.0,0.0,0.0,2.5823,2.6043,2.5429,2.6898,2.7798,0.0,0.0,0.0,2.9005,2.9005,2.939,3.0191,3.0999,3.1806,3.2601,3.322,3.3605,3.3788,3.3587,3.3605,3.3807,3.3807,3.3807,3.3807,3.3807,3.3678,3.3495,3.3495,3.3615,3.3784,3.3789,3.3928,3.408,2.9183,0.0,0.0,2.9926,0.0,0.0,2.9371,0.0,0.0,2.9988,2.9916,0.0,2.8729,2.7899,2.7207,2.6746,2.5924,0.0,2.5443,0.0,0.0,2.5462,2.5428,2.5633,2.613,2.604,0.0,2.6663,0.0,2.7981,2.8434,2.9275,2.9868,3.0215,3.0068,2.9837,2.9551,2.9322,2.9145,2.8968,2.8521,0.0,0.0,2.7813,2.7647,2.7537,2.6751,2.6502,2.6539,2.608,2.6227,2.6602,2.6602,2.6851,2.7126,2.7126,2.7372,2.7758,2.8209,2.7978,2.7758,2.8209,2.7978,2.7647,2.7647,2.7647,2.7647,0.0,0.0,0.0,0.0,0.0,0.0,2.6602,2.6602,2.6602,0.0,0.0,0.0,0.0,0.0,0.0,0.0,2.6851,2.6796,2.5999,2.742,0.0,0.0,0.0,0.0,0.0,2.9335,2.9739,3.021,3.1347,3.2155,3.2601,3.3421,3.3807,3.3807,3.3807,3.3807,3.3807,3.3807,3.3807,3.3807,3.3807,3.3807,3.3802,3.3941,3.4068,3.4206,3.4189,3.4201,3.4183,2.9279,0.0,0.0,0.0,0.0,0.0,0.0,3.0048,0.0,2.93,0.0,2.88,2.7992,2.7121,2.6601,2.6601,0.0,2.5317,2.5383,2.533,2.534,2.5387,2.533,2.5346,2.5462,2.6096,0.0,0.0,0.0,2.8723,2.8953,2.9717,3.0049,2.9999,2.9977,2.9729,0.0,2.91,2.9005,2.9005,2.9005,2.9005,2.9005,2.9005,2.9005,2.8913,2.8209,2.7512,2.6895,2.6796,2.6822,2.6914,2.6914,2.7402,2.7952,2.7952,2.8448,2.9005,2.9005,2.9005,2.9005,2.9005,2.9005,2.9005,2.9005,2.9005,2.9005,2.9005,2.8436,0.0,0.0,0.0,0.0,2.6914,0.0,0.0,0.0,0.0,0.0,0.0,0.0,0.0,0.0,0.0,0.0,2.6667,2.8088,0.0,0.0,0.0,0.0,0.0,2.9831,0.0,3.0522,0.0,3.2656,3.2766,3.3476,3.3807,3.3807,3.3807,3.3807,3.3807,3.3807,3.3807,3.3807,3.3807,3.3815,3.3876,3.4147,3.4281,3.4338,3.4622,3.454,3.4304,3.0034,0.0,0.0,0.0,0.0,3.0373,3.0221,3.0326,3.0103,2.9222,2.9105,2.88,2.7992,2.7121,2.6601,2.6601,2.5808,0.0,0.0,0.0,0.0,2.5322,2.5317,2.5635,2.6365,2.5827,2.5885,0.0,0.0,2.6697,2.8107,2.8275,2.8937,2.9999,2.9829,2.9495,2.9067,2.9028,0.0,2.9005,2.9005,2.9005,2.9005,2.9005,2.9005,2.8987,2.884,2.8693,2.8473,2.7805,2.8026,2.8583,2.8583,2.8675,2.8785,2.8785,2.8895,2.9005,2.9005,2.9005,2.9005,2.9005,2.9005,2.9005,2.9005,2.9005,2.9005,2.9005,2.8895,2.8822,2.8968,0.0,0.0,0.0,0.0,0.0,0.0,0.0,0.0,0.0,0.0,0.0,0.0,0.0,0.0,0.0,0.0,0.0,0.0,0.0,0.0,0.0,0.0,0.0,0.0,0.0,0.0,3.3587,3.3733,3.3807,3.3807,3.3807,3.3807,3.3807,3.3807,3.3807,3.3807,3.3807,3.3923,3.4159,3.4486,3.4754,3.4916,3.4754,3.4803,3.4907,0.0,0.0,0.0,0.0,0.0,0.0,0.0,3.0095,0.0,2.9181,2.8742,2.8165,2.7313,2.6447,2.5923,2.5923,2.5538,2.5308,2.5308,2.5308,2.5308,2.5308,2.5308,0.0,2.5923,2.5519,2.5731,2.6601,0.0,2.7294,2.8525,2.8841,2.9291,2.9829,2.9485,2.9217,0.0,0.0,0.0,2.9005,2.9005,2.9005,2.9005,2.9005,2.9005,2.9005,2.9005,2.9005,2.895,2.8546,2.8675,2.9005,2.9005,2.9005,2.9005,2.9005,2.9005,2.9005,2.9005,2.9005,2.9005,2.9005,2.9005,2.9005,2.9005,2.9005,2.9005,2.9005,2.9005,2.9005,2.9005,2.9005,0.0,0.0,0.0,0.0,0.0,0.0,0.0,0.0,0.0,0.0,0.0,0.0,0.0,0.0,0.0,0.0,0.0,0.0,0.0,0.0,0.0,0.0,0.0,0.0,0.0,3.3807,3.3807,3.3807,3.3802,3.3935,3.4006,3.4006,3.4177,3.4279,3.4279,3.4279,3.4341,3.4497,3.4793,3.4981,3.5105,3.5113,3.5198,3.5273,0.0,3.0286,0.0,0.0,3.008,0.0,2.9939,2.9796,2.9529,2.9021,2.8407,2.7616,2.6581,2.5866,2.5398,2.5243,2.5248,2.5259,2.5303,2.5308,2.5308,2.5308,2.5308,2.5308,2.5308,2.5446,2.5873,0.0,0.0,2.8195,2.9056,2.9463,2.9658,2.9626,0.0,0.0,0.0,0.0,2.9005,2.9005,2.9005,2.9005,2.9005,2.9005,2.9005,2.9005,2.9005,2.9005,2.9005,2.9005,2.9005,2.9005,2.9005,2.9005,2.9005,2.9005,2.9005,2.9005,2.9005,2.9005,2.9005,2.9005,2.9005,2.9005,2.9005,2.9005,2.9005,2.9005,2.9005,2.9005,2.9005,2.9005,0.0,0.0,0.0,0.0,0.0,0.0,0.0,0.0,0.0,0.0,0.0,0.0,0.0,0.0,0.0,2.9005,2.9005,2.9044,0.0,0.0,0.0,0.0,3.2839,0.0,3.3807,0.0,3.3868,3.3889,3.3889,3.4171,3.4311,3.4323,3.4601,3.4694,3.4694,3.4754,3.4793,3.4803,3.5088,3.519,3.5226,3.5616,3.5654,3.5498,0.0,0.0,0.0,0.0,0.0,0.0,0.0,2.9713,2.9393,2.8566,2.8396,2.7773,2.6216,2.5982,2.5684,2.5087,2.5028,2.5105,2.5298,2.5308,2.5308,2.5308,2.5308,2.5308,2.5308,2.591,2.6331,0.0,0.0,2.7801,2.8814,2.8646,2.8865,0.0,0.0,0.0,0.0,2.9005,2.9005,2.9005,2.9005,2.9005,2.9005,2.9005,2.9005,2.9005,2.9005,2.9005,2.9005,2.9005,2.9005,2.9005,2.9005,2.9005,2.9005,2.9005,2.9005,2.9005,2.9005,2.9005,2.9005,2.9005,2.9005,2.9005,2.9005,2.9005,2.9005,2.9005,2.9005,2.9005,2.9005,2.9005,2.9005,0.0,0.0,0.0,0.0,0.0,0.0,0.0,0.0,0.0,0.0,0.0,0.0,0.0,0.0,2.9005,2.9005,2.9225,2.995,3.125,0.0,3.2383,3.3678,3.3752,0.0,3.3788,3.4043,3.4152,3.4183,3.4508,3.4653,3.4653,3.4684,3.4694,3.4714,3.4963,3.507,3.5088,3.5361,3.5453,3.5556,3.6301,3.6135,3.5596,0.0,0.0,0.0,0.0,0.0,0.0,0.0,2.9385,2.9142,2.8798,2.8549,2.816,2.752,2.6588,2.5884,2.5613,2.5167,2.4904,2.4987,2.5006,2.5006,2.5006,2.5006,2.5228,2.5703,2.5989,2.6633,0.0,0.0,0.0,0.0,2.9109,0.0,0.0,0.0,2.9005,2.9005,2.9005,2.9005,2.9005,2.9005,2.9005,2.9005,2.9005,2.9005,2.9005,2.9005,2.9005,2.9005,2.9005,2.9005,2.9005,2.9005,2.9005,2.9005,2.9005,2.9005,2.9005,2.9005,2.9005,2.9115,2.9592,2.9354,2.9133,2.961,2.9354,2.9005,2.9005,2.9005,2.9005,2.9005,2.9134,2.92,0.0,0.0,0.0,0.0,0.0,0.0,0.0,0.0,0.0,0.0,0.0,2.9579,0.0,0.0,2.9235,2.9235,2.9805,3.0663,3.1827,0.0,3.3105,3.433,3.4348,3.4348,3.433,3.4453,3.4508,3.4518,3.4813,3.5035,3.5182,3.5182,3.5458,3.5905,3.6024,3.6063,3.6128,3.6748,3.6673,3.6327,3.718,3.6949,3.6269,2.9504,0.0,2.9598,0.0,2.9375,2.9278,2.9278,2.9123,2.9005,2.9005,2.8753,2.8484,2.825,2.7202,2.6453,2.6276,2.5756,2.5438,2.5491,2.5518,2.5518,2.5518,2.5518,0.0,2.6335,2.6534,2.7201,2.8406,2.851,0.0,0.0,0.0,0.0,0.0,2.9005,2.9005,2.9005,2.9005,2.9005,2.9005,2.9005,2.9005,2.9005,2.9005,2.9005,2.9005,2.9005,2.9005,2.9042,2.9262,2.9207,2.9005,2.9005,2.9005,2.9005,2.9005,2.9005,2.906,2.9299,2.9239,2.9307,3.0118,2.9762,2.9407,3.016,2.9939,2.9576,2.9488,2.9329,2.9185,2.9134,2.9322,2.9425,0.0,0.0,0.0,0.0,0.0,0.0,0.0,0.0,0.0,0.0,0.0,0.0,0.0,0.0,0.0,2.9896,3.0461,0.0,0.0,0.0,0.0,0.0,0.0,3.4694,3.4694,3.4774,3.4832,3.4841,3.5096,3.5312,3.55,3.55,3.5827,3.6365,3.6596,3.6692,3.6788,3.7661,3.7623,3.7199,3.8065,3.7834,3.7084,2.9055,2.9214,2.932,2.9044,2.9005,2.9005,2.9005,2.9005,2.9005,2.9005,2.9005,2.8686,2.789,2.778,2.7538,2.6944,2.6888,2.6962,2.7159,2.7167,2.7167,0.0,0.0,2.7186,2.7186,2.7764,2.8185,2.8406,0.0,0.0,2.9402,0.0,0.0,2.9005,2.9005,2.9005,2.9005,2.9005,2.9005,2.9005,2.9005,2.9005,2.9005,2.9005,2.9005,2.9005,2.9005,2.9005,2.9115,2.9922,2.9647,2.9005,2.9005,2.9005,2.9005,2.9005,2.9005,2.917,2.9971,2.9802,2.9588,3.0397,3.0151,2.986,3.046,3.0799,3.0894,3.0642,3.0105,2.9625,2.9424,2.9551,2.9696,2.9696,0.0,0.0,0.0,0.0,0.0,0.0,0.0,0.0,3.0116,0.0,0.0,0.0,0.0,0.0,0.0,0.0,0.0,3.3346,3.366,0.0,3.4694,3.4694,3.4694,3.4694,3.4972,3.5096,3.5105,3.5369,3.55,3.55,3.55,3.5519,3.5577,3.6365,3.6692,3.6788,3.7661,3.7988,3.8084,3.895,3.8719,3.7988,2.9017,2.9067,2.91,2.8998,2.9005,2.9005,2.9005,2.9005,2.9005,2.9005,2.9005,2.8895,2.8638,2.8136,2.771,0.0,2.7003,2.672,0.0,2.6791,2.6791,2.6791,2.6791,2.7051,2.7606,2.7811,2.8199,2.881,0.0,0.0,0.0,2.9051,2.9005,2.9005,2.9005,2.9005,2.9005,2.9005,2.9005,2.9005,2.9005,2.9005,2.9005,2.9005,2.9005,2.9005,2.9005,2.9005,2.9042,2.9299,2.9574,2.9824,2.9824,2.9445,2.9005,2.9005,2.9005,2.9216,3.0191,3.0358,3.0584,3.2125,3.1544,3.0921,3.2221,3.2147,3.1798,3.1704,3.1534,3.1213,3.0593,3.0658,3.056,2.9825,0.0,0.0,0.0,0.0,0.0,0.0,0.0,0.0,0.0,3.2486,0.0,0.0,0.0,0.0,0.0,0.0,0.0,0.0,3.4421,0.0,3.5239,3.5258,3.5258,3.5258,3.532,3.5369,3.5395,3.6029,3.6019,3.5558,3.6719,3.7199,3.7276,3.8123,3.8469,3.8546,3.9381,3.9381,3.8996,3.9804,3.9611,3.8892,2.9005,2.9005,2.9005,2.9005,2.9005,2.9005,2.9005,2.9005,2.9005,2.9005,2.9005,2.9005,2.9005,2.8546,0.0,2.8246,2.7787,0.0,2.7501,2.7501,2.7501,2.7501,2.7501,2.7739,2.8246,0.0,0.0,2.9005,2.9005,2.9005,2.9005,2.9005,2.9005,2.9005,2.9005,2.9005,2.9005,2.9005,2.9005,2.9005,2.9005,2.9005,2.9005,2.9005,2.9005,2.9005,2.9005,2.9005,2.906,2.9354,2.9574,2.9873,3.0584,3.0249,2.9658,2.9954,3.0046,3.0224,3.0999,3.1044,3.1214,3.2693,3.2153,3.1686,3.3331,3.3234,3.2793,3.281,3.2623,3.2287,3.1701,3.176,3.1678,3.1016,0.0,0.0,0.0,0.0,0.0,0.0,0.0,0.0,0.0,3.3487,0.0,0.0,0.0,0.0,0.0,0.0,0.0,3.468,3.504,0.0,3.55,3.55,3.55,3.55,3.5808,3.5942,3.5981,3.6808,3.6904,3.65,3.7546,3.8007,3.8065,3.8931,3.9304,3.9381,4.0189,4.0189,3.9804,4.0304,4.0189,3.9708,2.9005,2.9005,0.0,0.0,2.9005,0.0,2.9005,2.9005,2.9005,2.9005,2.9005,2.9005,2.9005,2.9005,2.9005,2.9005,0.0,0.0,0.0,2.9005,2.9005,2.9005,2.9005,0.0,2.9005,2.9005,2.9005,2.9005,2.9005,2.9005,2.9005,2.9005,2.9005,2.9005,2.9005,2.9005,2.9005,2.9005,2.9005,2.9005,2.9005,2.9005,2.9005,2.906,2.9078,2.9097,2.9152,2.917,2.928,3.005,2.986,2.9593,3.1354,3.1443,3.1013,3.1638,3.1824,3.1907,3.2213,3.1908,3.1661,3.25,3.2335,3.2352,3.3859,3.4047,3.3917,3.3922,3.3482,3.2999,3.276,3.2868,3.2968,3.291,3.2891,3.2891,3.2891,0.0,0.0,0.0,0.0,0.0,0.0,3.4538,3.5154,0.0,0.0,0.0,0.0,0.0,0.0,3.5481,3.55,3.5538,3.5577,3.5577,3.5615,3.5673,3.6423,3.6788,3.6808,3.77,3.8065,3.8007,3.8123,3.8142,3.8161,3.9034,3.9381,3.9457,4.0208,4.0496,4.0496,4.0496,4.0496,4.04,0.0,0.0,2.9005,2.9005,2.9005,2.9005,2.9005,2.9005,2.9005,2.9005,2.9005,2.9005,2.9005,2.9005,2.9005,2.9005,2.9005,2.9005,2.9005,2.9005,2.9005,2.9005,2.9005,2.9005,2.9005,2.9005,2.9005,2.9005,2.9005,2.9005,2.9005,2.9005,2.9005,2.9005,2.9005,2.9005,2.9005,2.9005,2.9005,2.9005,2.9005,2.9005,2.9078,2.9684,2.9922,3.0008,3.0613,3.0834,3.0901,3.1288,3.1689,3.2162,3.2809,3.3342,3.353,3.242,3.2109,3.2298,3.3175,3.3323,3.3452,3.4525,3.4677,3.4519,3.4263,3.4665,3.5091,3.5098,3.4973,3.4666,3.3941,3.3852,3.366,3.3006,3.2891,3.2891,3.2891,0.0,0.0,0.0,3.4071,3.4372,3.4846,3.525,3.5404,0.0,0.0,0.0,0.0,0.0,3.5923,3.5519,3.55,3.5788,3.6404,3.6423,3.675,3.7411,3.7603,3.77,3.7719,3.8584,3.8623,3.8065,3.9361,3.9554,3.9073,3.9881,4.0227,4.0227,4.0439,4.0496,4.0496,4.0496,4.0496,4.0477,2.9005,2.9005,2.9005,2.9005,2.9005,2.9005,2.9005,2.9005,2.9005,2.9005,2.9005,2.9005,2.9005,2.9005,2.9005,2.9005,2.9005,2.9005,2.9005,2.9005,2.9005,2.9005,2.9005,2.9005,2.9005,2.9005,2.9005,2.9005,2.9005,2.9005,2.9005,2.9005,2.9005,2.9005,2.9005,2.9005,2.9005,2.9005,2.9005,2.9005,2.9005,2.9005,2.9097,2.9886,3.021,3.0325,3.1253,3.157,3.1628,3.188,3.2272,3.2745,3.3373,3.3911,3.4214,3.3821,3.3627,3.3593,3.3899,3.3971,3.4127,3.4756,3.5212,3.5385,3.4911,3.5154,3.55,3.55,3.55,3.5365,3.4872,3.4795,3.4641,3.418,3.4083,3.4083,3.4083,3.4083,0.0,3.4737,3.4795,3.4988,3.5442,3.55,3.55,3.55,0.0,0.0,3.6058,3.6846,3.6904,3.6077,3.6442,3.6853,3.7296,3.7296,3.7526,3.8007,3.8392,3.8584,3.8623,3.9477,3.9592,3.9181,4.0092,4.0246,3.9881,4.0323,4.0496,4.0496,4.0496,4.0496,4.0496,4.0496,4.0496,4.0496,2.9005,2.9005,2.9005,2.9005,2.9005,2.9005,2.9005,2.9005,2.9005,2.9005,2.9005,2.9005,2.9005,2.9005,2.9005,2.9005,2.9115,2.9133,2.9005,2.9005,2.9005,2.9005,2.9005,2.9005,2.9005,2.9005,2.9005,2.9005,2.9005,2.9005,2.9005,2.9005,2.9083,2.9232,2.9065,2.9083,2.9232,2.9065,2.901,2.9062,2.9017,2.9044,2.9197,3.0102,3.0463,3.0655,3.1826,3.223,3.2283,3.2543,3.2627,3.2804,3.3748,3.406,3.4244,3.5215,3.5346,3.5062,3.4543,3.4398,3.4398,3.4398,3.4949,3.55,3.55,3.55,3.55,3.55,3.55,3.55,3.55,3.55,3.55,3.55,3.55,3.55,3.55,0.0,3.55,3.55,3.55,3.55,3.55,3.5615,3.5673,3.5673,3.6442,0.0,0.0,3.7719,3.7853,3.7123,3.768,3.8065,3.818,3.8315,3.8373,3.8392,3.913,3.9477,3.9496,4.0189,4.0496,4.0496,4.0496,4.0496,4.0496,4.0496,4.0496,4.0496,4.0496,4.0496,4.0496,4.0496,4.0496,4.0496,2.9005,2.9005,2.9005,2.9005,2.9005,2.9005,2.9005,2.9005,2.9005,2.9005,2.9005,2.9005,2.9005,2.9005,2.9005,2.9005,2.961,2.9721,2.9042,2.9005,2.9005,2.9005,2.9005,2.9005,2.9005,2.9005,2.9005,2.9005,2.9005,2.9005,2.9005,2.9005,2.9477,3.0302,2.9399,2.9495,3.0302,2.9388,2.9134,2.932,2.9089,2.9249,2.9739,3.1057,3.1699,3.2098,3.3681,3.4247,3.4288,3.4564,3.4662,3.4715,3.5119,3.5235,3.528,3.5455,3.546,3.5427,3.532,3.5288,3.5288,3.5288,3.5404,3.55,3.55,3.55,3.55,3.55,3.55,3.55,3.55,3.55,3.55,3.55,3.55,3.55,0.0,0.0,3.55,3.55,3.55,3.55,3.55,3.6115,3.65,3.65,3.7315,3.7796,3.7796,3.8623,3.9034,3.8892,3.8315,3.8354,3.9092,3.9765,4.0112,4.0112,4.0246,4.0304,4.0323,4.0439,4.0496,4.0496,4.0496,4.0496,4.0496,4.0496,4.0496,4.0496,4.0496,4.0496,4.0496,4.0496,4.0496,4.0496,2.9005,2.9005,2.9005,2.9005,2.9005,2.9005,2.9005,2.9005,2.9005,2.9005,2.9005,2.9005,2.9005,2.9005,2.9005,2.9005,2.9739,3.0044,2.9666,3.0063,3.0283,3.0283,2.9879,2.9647,2.9647,2.9647,2.9647,2.9647,3.0081,3.0081,2.9647,3.0099,3.0637,3.1214,3.0739,3.0865,3.1392,3.0475,3.0402,3.0865,3.0297,3.047,3.1156,3.2258,3.2739,3.3034,3.4424,3.4917,3.4954,3.5223,3.5312,3.5346,3.5453,3.55,3.55,3.55,3.55,3.55,3.55,3.55,3.55,3.55,3.55,3.55,3.55,3.55,3.55,3.55,3.55,3.55,3.55,3.55,3.55,3.55,3.55,0.0,0.0,3.55,3.5654,3.6096,3.6154,3.6327,3.6796,3.718,3.7411,3.7411,3.82,3.8892,3.9315,3.9727,4.0169,4.0623,3.9796,3.9534,3.9938,4.0304,4.0496,4.0496,4.0496,4.0496,4.0496,4.0496,4.0496,4.0496,4.0496,4.0496,4.0496,4.0496,4.0496,4.0496,4.0496,4.0496,4.0496,4.0496,4.0496,4.0496,2.9005,2.9005,2.9005,2.9005,2.9005,2.9005,2.9005,2.9005,2.9005,2.9005,2.9005,2.9005,2.9005,2.9005,2.9005,2.9005,2.9916,3.0485,3.0485,3.1403,3.1801,3.1415,3.0797,3.0485,3.0485,3.0485,3.0503,3.0567,3.114,3.1139,3.0683,3.1229,3.1767,3.2263,3.2004,3.2154,3.253,3.1645,3.1673,3.2237,3.155,3.1708,3.2448,3.3202,3.3533,3.3729,3.4797,3.5198,3.5223,3.5432,3.55,3.55,3.55,3.55,3.55,3.55,3.55,3.55,3.55,3.55,3.55,3.55,3.55,3.55,3.55,3.55,3.55,3.55,3.55,3.55,3.55,3.55,3.55,3.55,0.0,0.0,0.0,3.5788,3.6077,3.6904,3.7,3.7276,3.793,3.818,3.8296,3.8296,3.9111,3.9938,4.0766,4.0804,4.12,4.2066,4.1258,4.0804,4.0804,4.0997,4.1112,4.1112,4.09,4.0804,4.0804,4.0593,4.0496,4.0516,4.0708,4.0689,4.0516,4.0727,4.0689,4.0496,4.0496,4.0496,4.0496,4.0496,4.0496,4.0496,2.9005,2.9005,2.9005,2.9005,2.9005,2.9005,2.9005,2.9005,2.9005,2.9005,2.9005,2.9005,2.9005,2.9005,2.9005,2.9005,3.0411,3.1323,3.1323,3.2761,3.2963,3.147,3.1342,3.1323,3.1323,3.1323,3.1426,3.1685,3.15,3.1626,3.2043,3.1861,3.2436,3.3601,3.2616,3.2727,3.3606,3.2558,3.2281,3.2542,3.2246,3.2406,3.2916,3.3544,3.3915,3.4262,3.5152,3.546,3.546,3.5493,3.55,3.55,3.55,3.55,3.55,3.55,3.55,3.55,3.55,3.55,3.55,3.55,3.55,3.55,3.55,3.55,3.55,3.55,3.55,3.55,3.55,3.55,3.55,3.55,0.0,0.0,3.65,3.6615,3.6923,3.7796,3.7892,3.793,3.7988,3.8719,3.9207,3.9207,3.9958,4.0777,4.1662,4.1692,4.2104,4.2989,4.2162,4.1692,4.1692,4.2508,4.2912,4.2893,4.2085,4.1692,4.1681,4.0873,4.0496,4.0535,4.1354,4.1258,4.0554,4.1373,4.1239,4.0496,4.0496,4.0496,4.0496,4.0496,4.0496,4.0496,2.9005,2.9005,2.9005,2.9005,2.9005,2.9005,2.9005,2.9005,2.9005,2.9005,2.9005,2.9005,2.9005,2.9445,2.9739,2.9739,3.1219,3.2137,3.2137,3.3183,3.3293,3.2192,3.2137,3.2137,3.2137,3.2137,3.2281,3.2534,3.2941,3.3064,3.294,3.3388,3.396,3.4579,3.4179,3.432,3.4793,3.3845,3.3815,3.4345,3.3711,3.3878,3.4532,3.4765,3.4913,3.5045,3.5385,3.55,3.55,3.55,3.55,3.55,3.55,3.55,3.55,3.55,3.55,3.55,3.55,3.55,3.55,3.55,3.55,3.55,3.55,3.55,3.55,3.55,3.55,3.55,3.55,3.55,3.5654,3.6154,0.0,3.6538,3.7392,3.7507,3.7834,3.87,3.9246,3.9758,4.0296,4.1143,4.1662,4.1662,4.1931,4.247,4.3316,4.3355,4.3278,4.3104,4.3258,4.3104,4.2604,4.2931,4.3104,4.3104,4.2758,4.2604,4.2585,4.2258,4.1816,4.1316,4.1662,4.1316,4.0535,4.0854,4.0804,4.0496,4.0496,4.0843,4.1316,4.1316,4.1643,4.2047,2.9005,2.9005,2.9005,2.9005,2.9005,2.9005,2.9005,2.9005,2.9005,2.9005,2.9005,2.9005,2.9005,2.9482,2.9824,2.9824,3.128,3.2228,3.2228,3.322,3.355,3.2999,3.2968,3.302,3.3098,3.3098,3.33,3.3665,3.4131,3.4244,3.4068,3.4595,3.4972,3.5223,3.5223,3.5339,3.5462,3.4853,3.4949,3.5442,3.4853,3.4968,3.55,3.55,3.55,3.55,3.55,3.55,3.55,3.55,3.55,3.55,3.55,3.55,3.55,3.55,3.55,3.55,3.55,3.55,3.55,3.55,3.55,3.55,3.55,3.55,3.55,3.55,3.5692,3.5885,3.5885,3.6096,3.6462,3.7026,3.7123,3.7411,3.8296,3.8411,3.8719,3.9573,4.0169,4.0835,4.1712,4.2335,4.2816,4.3085,4.3104,4.3451,4.4259,4.4566,4.4451,4.3893,4.4412,4.4432,4.3893,4.3893,4.3893,4.3874,4.3605,4.347,4.347,4.322,4.2777,4.222,4.222,4.172,4.0931,4.1208,4.0997,4.0554,4.1112,4.1508,4.1835,4.2125,4.2448,4.2668,2.9005,2.9005,2.9005,2.9005,2.9005,2.9005,2.9005,2.9005,2.9005,2.9005,2.9005,2.9005,2.9005,2.9005,2.9005,2.9005,3.0485,3.1415,3.1415,3.2921,3.3788,3.3788,3.3788,3.3941,3.4188,3.42,3.4492,3.5105,3.4822,3.4972,3.5493,3.5223,3.5258,3.55,3.55,3.55,3.55,3.55,3.55,3.55,3.55,3.55,3.55,3.55,3.55,3.55,3.55,3.55,3.55,3.55,3.55,3.55,3.55,3.55,3.55,3.55,3.55,3.55,3.55,3.55,3.55,3.55,3.55,3.55,3.5519,3.5519,3.5519,3.5519,3.6154,3.6712,3.6712,3.743,3.8007,3.8007,3.8007,3.8315,3.9207,3.9323,3.9631,4.0419,4.0535,4.0873,4.1731,4.1827,4.22,4.3047,4.3124,4.347,4.4259,4.5133,4.5594,4.5594,4.5594,4.5594,4.5594,4.5594,4.5594,4.5594,4.472,4.4316,4.4278,4.347,4.3124,4.3104,4.3104,4.2624,4.1885,4.2739,4.2074,4.0669,4.242,4.2566,4.1925,4.286,4.2704,4.2038,2.9005,2.9005,2.9005,2.9005,2.9005,2.9005,2.9005,2.9005,2.9005,2.9005,2.9005,2.9005,2.9005,2.95,2.9831,2.9831,3.1311,3.2485,3.3054,3.3709,3.4093,3.4093,3.4093,3.4111,3.4188,3.4423,3.4725,3.5105,3.5016,3.5166,3.55,3.5424,3.5424,3.55,3.55,3.55,3.55,3.55,3.55,3.55,3.55,3.55,3.55,3.55,3.55,3.55,3.55,3.55,3.55,3.55,3.55,3.55,3.55,3.55,3.55,3.55,3.55,3.55,3.55,3.55,3.55,3.55,3.55,3.5654,3.6212,3.6346,3.6519,3.7142,3.745,3.7603,3.7603,3.7815,3.82,3.8815,3.8911,3.9411,4.0854,4.1046,4.1373,4.222,4.2816,4.3258,4.3528,4.4105,4.4566,4.4825,4.4863,4.496,4.521,4.546,4.5594,4.5594,4.5685,4.5712,4.5594,4.5594,4.5594,4.5594,4.5344,4.521,4.521,4.496,4.4509,4.3932,4.3932,4.347,4.2689,4.2423,4.2015,4.1532,4.1454,4.2033,4.2939,4.3135,4.3485,4.3802,2.9005,2.9005,2.9097,2.9427,2.9207,2.9115,2.9427,2.9207,2.9005,2.9005,2.9005,2.9005,2.9005,2.9427,2.9861,3.0173,3.1783,3.3161,3.4092,3.4318,3.4401,3.4401,3.451,3.4563,3.4563,3.4745,3.499,3.5266,3.5266,3.5346,3.55,3.55,3.55,3.55,3.55,3.55,3.55,3.55,3.55,3.55,3.55,3.55,3.55,3.55,3.55,3.55,3.55,3.55,3.55,3.55,3.55,3.55,3.55,3.55,3.55,3.55,3.55,3.55,3.55,3.5731,3.5962,3.5962,3.5962,3.6096,3.6596,3.6962,3.7353,3.7892,3.8277,3.8507,3.8507,3.8777,3.9277,4.0142,3.9988,4.0373,4.2066,4.2019,4.2124,4.3008,4.3528,4.3951,4.4259,4.4778,4.5229,4.5575,4.5594,4.561,4.568,4.5688,4.5681,4.5722,4.5808,4.5795,4.5722,4.5722,4.5706,4.5688,4.5688,4.5688,4.5722,4.5722,4.5432,4.491,4.4607,4.4182,4.3705,4.3241,4.2654,4.2071,4.2221,4.2524,4.2914,4.3246,4.3529,4.3679,2.9005,2.9005,2.9244,3.0063,2.9592,2.9372,3.0173,2.9684,2.9189,2.9115,2.9115,2.9115,2.9115,2.9115,2.9439,3.0264,3.199,3.351,3.4617,3.4714,3.4753,3.4753,3.499,3.513,3.513,3.513,3.5266,3.55,3.55,3.55,3.55,3.55,3.55,3.55,3.55,3.55,3.55,3.55,3.55,3.55,3.55,3.55,3.55,3.55,3.55,3.55,3.55,3.55,3.55,3.55,3.55,3.55,3.55,3.55,3.55,3.55,3.55,3.5519,3.5596,3.6135,3.6712,3.6788,3.6865,3.6923,3.6923,3.7546,3.8142,3.82,3.8911,3.9515,3.9515,4.0189,4.0989,4.1797,4.1239,4.1304,4.297,4.2527,4.2354,4.322,4.3316,4.3605,4.4355,4.4438,4.4754,4.5563,4.5627,4.5669,4.579,4.5816,4.583,4.5899,4.5912,4.5912,4.5899,4.5912,4.5872,4.5803,4.5803,4.5842,4.5899,4.5899,4.5899,4.586,4.5129,4.4818,4.4798,4.4733,4.372,4.2377,4.3907,4.3518,4.2252,4.3236,4.3101,4.2428,2.9005,2.9005,2.9244,3.0063,3.0063,3.021,3.1029,3.0993,3.065,3.0026,2.9953,2.9953,2.9953,2.9953,3.0353,3.1355,3.2597,3.3711,3.4637,3.4898,3.5008,3.5008,3.5273,3.5398,3.5398,3.5398,3.5439,3.55,3.55,3.55,3.55,3.55,3.55,3.55,3.55,3.55,3.55,3.55,3.55,3.55,3.55,3.55,3.55,3.55,3.55,3.55,3.55,3.55,3.55,3.55,3.55,3.55,3.55,3.55,3.55,3.55,3.55,3.5635,3.6269,3.6577,3.6865,3.7546,3.8238,3.8738,3.8738,3.8873,3.9207,3.9823,4.0642,4.1258,4.1258,4.197,4.2604,4.2797,4.2662,4.2893,4.3893,4.3874,4.4085,4.496,4.5056,4.5133,4.5306,4.5422,4.5548,4.5742,4.5807,4.5817,4.5803,4.5839,4.5872,4.5899,4.5998,4.6021,4.5903,4.5998,4.6008,4.5881,4.5881,4.5896,4.5899,4.5899,4.5899,4.5879,4.5728,4.565,4.5596,4.503,4.4175,4.3236,4.2946,4.2623,4.2431,4.329,4.3518,4.3299,2.9078,2.9005,2.9372,3.0577,3.0467,3.0595,3.1788,3.1654,3.1121,3.032,3.0522,3.0485,2.9702,3.0081,3.0878,3.2072,3.343,3.4469,3.5041,3.5215,3.5289,3.5289,3.5432,3.55,3.55,3.55,3.55,3.55,3.55,3.55,3.55,3.55,3.55,3.55,3.55,3.55,3.55,3.55,3.55,3.55,3.55,3.55,3.55,3.55,3.55,3.55,3.55,3.55,3.55,3.55,3.55,3.55,3.55,3.55,3.55,3.55,3.5769,3.6154,3.6596,3.7315,3.8046,3.8507,3.9246,3.9765,3.94,3.9912,4.0604,4.1027,4.1816,4.2431,4.2431,4.2797,4.3239,4.3605,4.3355,4.3528,4.4739,4.4627,4.4727,4.5596,4.5715,4.5751,4.5751,4.5807,4.5859,4.5859,4.5881,4.5918,4.5933,4.5986,4.6011,4.6084,4.615,4.6152,4.6087,4.615,4.615,4.6084,4.603,4.6033,4.6084,4.6084,4.6084,4.6084,4.6084,4.6084,4.6067,4.5664,4.4773,4.364,4.3603,4.3102,4.25,4.3334,4.3669,4.3633,2.9537,2.9409,2.9867,3.1347,3.1054,3.1109,3.2583,3.2247,3.1513,3.0723,3.1103,3.0955,2.9619,3.0477,3.1591,3.2713,3.4249,3.5254,3.5493,3.55,3.55,3.55,3.55,3.55,3.55,3.55,3.55,3.55,3.55,3.55,3.55,3.55,3.55,3.55,3.55,3.55,3.55,3.55,3.55,3.55,3.55,3.55,3.55,3.55,3.55,3.55,3.55,3.55,3.55,3.55,3.55,3.55,3.55,3.55,3.5538,3.5654,3.6173,3.6769,3.7058,3.82,3.935,3.9495,4.0041,4.0403,3.9899,4.0831,4.1805,4.1836,4.2641,4.3335,4.3335,4.3462,4.3794,4.4469,4.4006,4.4064,4.5452,4.5117,4.5013,4.5725,4.5876,4.5907,4.5928,4.5928,4.5928,4.5928,4.5963,4.6001,4.6106,4.6119,4.6196,4.6308,4.6308,4.6308,4.6308,4.6308,4.6308,4.6308,4.6198,4.6199,4.6308,4.6308,4.6308,4.6308,4.6308,4.6308,4.6308,4.6308,4.5351,4.3984,4.4726,4.4023,4.2734,4.3594,4.4023,4.4121,3.1103,3.1085,3.1366,3.2271,3.2344,3.2583,3.3495,3.355,3.3183,3.2381,3.1965,3.1663,3.144,3.26,3.3437,3.3617,3.4756,3.5453,3.55,3.55,3.55,3.55,3.55,3.55,3.55,3.55,3.55,3.55,3.55,3.55,3.55,3.55,3.55,3.55,3.55,3.55,3.55,3.55,3.55,3.55,3.55,3.55,3.55,3.55,3.55,3.55,3.55,3.55,3.55,3.55,3.55,3.55,3.55,3.55,3.5635,3.6327,3.6615,3.7019,3.8546,3.913,3.9495,4.0307,4.059,4.0864,4.1558,4.177,4.1825,4.1951,4.3228,4.4318,4.4318,4.4977,4.5561,4.5677,4.56,4.56,4.5833,4.577,4.574,4.5876,4.589,4.5955,4.6053,4.6077,4.6077,4.6077,4.6175,4.6201,4.611,4.6202,4.6289,4.6308,4.6308,4.6308,4.6308,4.6308,4.6308,4.6308,4.6289,4.6289,4.6308,4.6308,4.6308,4.6308,4.6308,4.6308,4.6308,4.6308,4.5723,4.4844,4.4941,4.4394,4.3633,4.4492,4.5293,4.584,3.0907,3.1091,3.1513,3.1861,3.2289,3.2858,3.3678,3.3807,3.3561,3.2902,3.2614,3.2351,3.2057,3.3086,3.3853,3.4016,3.4939,3.55,3.55,3.55,3.55,3.55,3.55,3.55,3.55,3.55,3.55,3.55,3.55,3.55,3.55,3.55,3.55,3.55,3.55,3.55,3.55,3.55,3.55,3.55,3.55,3.5769,3.6173,3.6173,3.6173,3.6115,3.5654,3.55,3.55,3.55,3.55,3.55,3.55,3.5808,3.6231,3.6596,3.741,3.8376,3.9102,4.0063,4.0951,4.1335,4.1823,4.2343,4.2835,4.3188,4.3435,4.3495,4.4457,4.5273,4.5273,4.5614,4.5899,4.5899,4.5899,4.5899,4.5899,4.5951,4.6039,4.6115,4.6119,4.6147,4.6201,4.6202,4.6202,4.6202,4.6268,4.6269,4.6203,4.6268,4.6308,4.6308,4.6308,4.6308,4.6308,4.6308,4.6308,4.6308,4.6308,4.6308,4.6308,4.6308,4.6308,4.6308,4.6308,4.6308,4.6308,4.6308,4.5781,4.5058,4.5547,4.5488,4.5195,4.5586,4.5976,4.623]}]]